Logo
 


Wetterdaten - Sonntag, 25.08.2019 - Rheinberg-Annaberg     25 m ber NN private Wetterstation Rheinberg/Angaben ohne Gewhr!
Wetterdaten: aktuell Sonntag, 25.08.2019 08:35
Datum Zeit Temp. A. Feuchte A. Luftdruck Regen Wind Richtung Richtung Sonnenschein ET UV Solar Taupunkt Windchill Windben Empfang
25.08.2019 08:35 20,2 C 72 % 1018,6 hPa 0,0 l/m 0,1 km/h N 360 0 min 0,000 mm 0,6 UV-I 219 W/m 15,0 C 20,2 C 1,9 km/h 100,00 %
25.08.2019 08:34 20,2 C 73 % 1018,6 hPa 0,0 l/m 0,1 km/h N 360 0 min 0,000 mm 0,6 UV-I 216 W/m 15,2 C 20,2 C 1,9 km/h 95,65 %
25.08.2019 08:33 20,1 C 73 % 1018,6 hPa 0,0 l/m 0,1 km/h N 360 0 min 0,000 mm 0,6 UV-I 214 W/m 15,1 C 20,1 C 1,9 km/h 95,83 %
25.08.2019 08:32 20,1 C 73 % 1018,6 hPa 0,0 l/m 0,0 km/h N 360 0 min 0,000 mm 0,6 UV-I 211 W/m 15,1 C 20,1 C 0,0 km/h 100,00 %
25.08.2019 08:31 20,0 C 73 % 1018,6 hPa 0,0 l/m 0,0 km/h N 360 0 min 0,000 mm 0,6 UV-I 208 W/m 15,0 C 20,0 C 0,0 km/h 95,83 %
25.08.2019 08:30 19,9 C 74 % 1018,6 hPa 0,0 l/m 0,0 km/h N 360 0 min 0,000 mm 0,6 UV-I 206 W/m 15,1 C 19,9 C 0,0 km/h 95,65 %
25.08.2019 08:29 19,8 C 74 % 1018,6 hPa 0,0 l/m 0,6 km/h N 360 0 min 0,000 mm 0,6 UV-I 205 W/m 15,0 C 19,8 C 1,9 km/h 95,83 %
25.08.2019 08:28 19,8 C 74 % 1018,6 hPa 0,0 l/m 0,2 km/h N 360 0 min 0,000 mm 0,6 UV-I 201 W/m 15,0 C 19,8 C 1,9 km/h 100,00 %
25.08.2019 08:27 19,7 C 75 % 1018,6 hPa 0,0 l/m 0,2 km/h N 360 0 min 0,000 mm 0,6 UV-I 199 W/m 15,1 C 19,7 C 1,9 km/h 96,30 %
25.08.2019 08:26 19,6 C 75 % 1018,6 hPa 0,0 l/m 0,1 km/h N 360 0 min 0,000 mm 0,5 UV-I 196 W/m 15,0 C 19,6 C 1,9 km/h 100,00 %
25.08.2019 08:25 19,4 C 75 % 1018,6 hPa 0,0 l/m 0,6 km/h N 360 0 min 0,000 mm 0,5 UV-I 193 W/m 14,8 C 19,4 C 1,9 km/h 95,65 %
25.08.2019 08:24 19,3 C 76 % 1018,6 hPa 0,0 l/m 0,6 km/h N 360 0 min 0,000 mm 0,5 UV-I 191 W/m 15,0 C 19,3 C 1,9 km/h 95,83 %
25.08.2019 08:23 19,2 C 76 % 1018,6 hPa 0,0 l/m 0,1 km/h N 360 0 min 0,000 mm 0,5 UV-I 189 W/m 14,9 C 19,2 C 1,9 km/h 100,00 %
25.08.2019 08:22 19,1 C 77 % 1018,5 hPa 0,0 l/m 0,0 km/h N 360 0 min 0,000 mm 0,5 UV-I 186 W/m 15,0 C 19,1 C 0,0 km/h 95,83 %
25.08.2019 08:21 19,0 C 77 % 1018,5 hPa 0,0 l/m 0,0 km/h N 360 0 min 0,000 mm 0,5 UV-I 183 W/m 14,9 C 19,0 C 0,0 km/h 100,00 %
25.08.2019 08:20 18,9 C 78 % 1018,6 hPa 0,0 l/m 0,0 km/h N 360 0 min 0,000 mm 0,5 UV-I 180 W/m 15,0 C 18,9 C 0,0 km/h 95,83 %
25.08.2019 08:19 18,8 C 78 % 1018,6 hPa 0,0 l/m 0,0 km/h N 360 0 min 0,000 mm 0,5 UV-I 177 W/m 14,9 C 18,8 C 0,0 km/h 100,00 %
25.08.2019 08:18 18,7 C 79 % 1018,6 hPa 0,0 l/m 0,0 km/h N 360 0 min 0,000 mm 0,5 UV-I 175 W/m 15,0 C 18,7 C 0,0 km/h 96,30 %
25.08.2019 08:17 18,6 C 80 % 1018,5 hPa 0,0 l/m 0,0 km/h N 360 0 min 0,000 mm 0,5 UV-I 172 W/m 15,1 C 18,6 C 0,0 km/h 95,65 %
25.08.2019 08:16 18,4 C 80 % 1018,6 hPa 0,0 l/m 0,0 km/h N 360 0 min 0,000 mm 0,4 UV-I 169 W/m 14,9 C 18,4 C 0,0 km/h 100,00 %
25.08.2019 08:15 18,3 C 81 % 1018,5 hPa 0,0 l/m 0,0 km/h N 360 0 min 0,000 mm 0,0 UV-I 167 W/m 15,0 C 18,3 C 0,0 km/h 90,91 %
25.08.2019 08:14 18,2 C 81 % 1018,5 hPa 0,0 l/m 0,0 km/h N 360 0 min 0,000 mm 0,0 UV-I 164 W/m 14,9 C 18,2 C 0,0 km/h 100,00 %
25.08.2019 08:13 18,1 C 81 % 1018,5 hPa 0,0 l/m 0,0 km/h N 360 0 min 0,000 mm 0,0 UV-I 161 W/m 14,8 C 18,1 C 0,0 km/h 95,65 %
25.08.2019 08:12 17,9 C 82 % 1018,5 hPa 0,0 l/m 0,0 km/h N 360 0 min 0,000 mm 0,0 UV-I 159 W/m 14,8 C 17,9 C 0,0 km/h 100,00 %
25.08.2019 08:11 17,8 C 82 % 1018,5 hPa 0,0 l/m 0,0 km/h N 360 0 min 0,000 mm 0,0 UV-I 156 W/m 14,7 C 17,8 C 0,0 km/h 96,15 %
25.08.2019 08:10 17,7 C 83 % 1018,5 hPa 0,0 l/m 0,0 km/h N 360 0 min 0,000 mm 0,0 UV-I 153 W/m 14,8 C 17,7 C 0,0 km/h 100,00 %
25.08.2019 08:09 17,6 C 83 % 1018,5 hPa 0,0 l/m 0,0 km/h N 360 0 min 0,000 mm 0,0 UV-I 149 W/m 14,7 C 17,6 C 0,0 km/h 91,30 %
25.08.2019 08:08 17,5 C 83 % 1018,5 hPa 0,0 l/m 0,0 km/h N 360 0 min 0,000 mm 0,0 UV-I 147 W/m 14,6 C 17,5 C 0,0 km/h 96,30 %
25.08.2019 08:07 17,4 C 83 % 1018,5 hPa 0,0 l/m 0,0 km/h N 360 0 min 0,000 mm 0,0 UV-I 143 W/m 14,5 C 17,4 C 0,0 km/h 100,00 %
25.08.2019 08:06 17,4 C 83 % 1018,5 hPa 0,0 l/m 0,0 km/h N 360 0 min 0,000 mm 0,0 UV-I 141 W/m 14,5 C 17,4 C 0,0 km/h 95,83 %
25.08.2019 08:05 17,3 C 83 % 1018,4 hPa 0,0 l/m 0,0 km/h N 360 0 min 0,000 mm 0,0 UV-I 138 W/m 14,4 C 17,3 C 0,0 km/h 100,00 %
25.08.2019 08:04 17,3 C 84 % 1018,5 hPa 0,0 l/m 0,0 km/h N 360 0 min 0,000 mm 0,0 UV-I 135 W/m 14,6 C 17,3 C 0,0 km/h 95,65 %
25.08.2019 08:03 17,2 C 84 % 1018,5 hPa 0,0 l/m 0,0 km/h N 360 0 min 0,000 mm 0,0 UV-I 134 W/m 14,5 C 17,2 C 0,0 km/h 100,00 %
25.08.2019 08:02 17,1 C 84 % 1018,4 hPa 0,0 l/m 0,0 km/h N 360 0 min 0,000 mm 0,0 UV-I 131 W/m 14,4 C 17,1 C 0,0 km/h 91,30 %
25.08.2019 08:01 17,0 C 84 % 1018,4 hPa 0,0 l/m 0,0 km/h N 360 0 min 0,000 mm 0,0 UV-I 128 W/m 14,3 C 17,0 C 0,0 km/h 100,00 %
25.08.2019 08:00 16,9 C 84 % 1018,4 hPa 0,0 l/m 0,0 km/h N 360 0 min 0,026 mm 0,0 UV-I 126 W/m 14,2 C 16,9 C 0,0 km/h 95,65 %
25.08.2019 07:59 16,8 C 84 % 1018,4 hPa 0,0 l/m 0,0 km/h N 360 0 min 0,000 mm 0,0 UV-I 122 W/m 14,1 C 16,8 C 0,0 km/h 100,00 %
25.08.2019 07:58 16,8 C 84 % 1018,4 hPa 0,0 l/m 0,0 km/h N 360 0 min 0,000 mm 0,0 UV-I 120 W/m 14,1 C 16,8 C 0,0 km/h 95,65 %
25.08.2019 07:57 16,8 C 84 % 1018,4 hPa 0,0 l/m 0,0 km/h N 360 0 min 0,000 mm 0,0 UV-I 116 W/m 14,1 C 16,8 C 0,0 km/h 100,00 %
25.08.2019 07:56 16,7 C 84 % 1018,4 hPa 0,0 l/m 0,0 km/h N 360 0 min 0,000 mm 0,0 UV-I 114 W/m 14,0 C 16,7 C 0,0 km/h 100,00 %
25.08.2019 07:55 16,7 C 84 % 1018,4 hPa 0,0 l/m 0,0 km/h N 360 0 min 0,000 mm 0,0 UV-I 111 W/m 14,0 C 16,7 C 0,0 km/h 100,00 %
25.08.2019 07:54 16,6 C 84 % 1018,3 hPa 0,0 l/m 0,0 km/h N 360 0 min 0,000 mm 0,0 UV-I 108 W/m 13,9 C 16,6 C 0,0 km/h 100,00 %
25.08.2019 07:53 16,6 C 84 % 1018,3 hPa 0,0 l/m 0,0 km/h N 360 0 min 0,000 mm 0,0 UV-I 105 W/m 13,9 C 16,6 C 0,0 km/h 92,00 %
25.08.2019 07:52 16,6 C 84 % 1018,3 hPa 0,0 l/m 0,0 km/h N 360 0 min 0,000 mm 0,0 UV-I 102 W/m 13,9 C 16,6 C 0,0 km/h 100,00 %
25.08.2019 07:51 16,6 C 84 % 1018,3 hPa 0,0 l/m 0,0 km/h N 360 0 min 0,000 mm 0,0 UV-I 100 W/m 13,9 C 16,6 C 0,0 km/h 100,00 %
25.08.2019 07:50 16,5 C 84 % 1018,3 hPa 0,0 l/m 0,0 km/h N 360 0 min 0,000 mm 0,0 UV-I 98 W/m 13,8 C 16,5 C 0,0 km/h 100,00 %
25.08.2019 07:49 16,5 C 84 % 1018,3 hPa 0,0 l/m 0,0 km/h N 360 0 min 0,000 mm 0,0 UV-I 96 W/m 13,8 C 16,5 C 0,0 km/h 100,00 %
25.08.2019 07:48 16,5 C 84 % 1018,3 hPa 0,0 l/m 0,0 km/h N 360 0 min 0,000 mm 0,0 UV-I 87 W/m 13,8 C 16,5 C 0,0 km/h 100,00 %
25.08.2019 07:47 16,5 C 84 % 1018,3 hPa 0,0 l/m 0,0 km/h N 360 0 min 0,000 mm 0,0 UV-I 64 W/m 13,8 C 16,5 C 0,0 km/h 100,00 %
25.08.2019 07:46 16,4 C 85 % 1018,3 hPa 0,0 l/m 0,0 km/h N 360 0 min 0,000 mm 0,0 UV-I 44 W/m 13,9 C 16,4 C 0,0 km/h 100,00 %
25.08.2019 07:45 16,4 C 85 % 1018,3 hPa 0,0 l/m 0,0 km/h N 360 0 min 0,000 mm 0,0 UV-I 39 W/m 13,9 C 16,4 C 0,0 km/h 100,00 %
25.08.2019 07:44 16,4 C 85 % 1018,3 hPa 0,0 l/m 0,0 km/h N 360 0 min 0,000 mm 0,0 UV-I 39 W/m 13,9 C 16,4 C 0,0 km/h 96,67 %
25.08.2019 07:43 16,3 C 85 % 1018,4 hPa 0,0 l/m 0,0 km/h N 360 0 min 0,000 mm 0,0 UV-I 38 W/m 13,8 C 16,3 C 0,0 km/h 100,00 %
25.08.2019 07:42 16,3 C 85 % 1018,3 hPa 0,0 l/m 0,0 km/h N 360 0 min 0,000 mm 0,0 UV-I 37 W/m 13,8 C 16,3 C 0,0 km/h 100,00 %
25.08.2019 07:41 16,3 C 85 % 1018,3 hPa 0,0 l/m 0,0 km/h N 360 0 min 0,000 mm 0,0 UV-I 37 W/m 13,8 C 16,3 C 0,0 km/h 100,00 %
25.08.2019 07:40 16,2 C 85 % 1018,3 hPa 0,0 l/m 0,0 km/h N 360 0 min 0,000 mm 0,0 UV-I 37 W/m 13,7 C 16,2 C 0,0 km/h 100,00 %
25.08.2019 07:39 16,2 C 85 % 1018,3 hPa 0,0 l/m 0,0 km/h N 360 0 min 0,000 mm 0,0 UV-I 35 W/m 13,7 C 16,2 C 0,0 km/h 100,00 %
25.08.2019 07:38 16,2 C 85 % 1018,3 hPa 0,0 l/m 0,0 km/h N 360 0 min 0,000 mm 0,0 UV-I 35 W/m 13,7 C 16,2 C 0,0 km/h 100,00 %
25.08.2019 07:37 16,2 C 85 % 1018,3 hPa 0,0 l/m 0,0 km/h N 360 0 min 0,000 mm 0,0 UV-I 35 W/m 13,7 C 16,2 C 0,0 km/h 100,00 %
25.08.2019 07:36 16,2 C 85 % 1018,3 hPa 0,0 l/m 0,0 km/h N 360 0 min 0,000 mm 0,0 UV-I 34 W/m 13,7 C 16,2 C 0,0 km/h 100,00 %
25.08.2019 07:35 16,1 C 85 % 1018,3 hPa 0,0 l/m 0,0 km/h N 360 0 min 0,000 mm 0,0 UV-I 33 W/m 13,6 C 16,1 C 0,0 km/h 100,00 %
25.08.2019 07:34 16,1 C 85 % 1018,3 hPa 0,0 l/m 0,0 km/h N 360 0 min 0,000 mm 0,0 UV-I 33 W/m 13,6 C 16,1 C 0,0 km/h 100,00 %
25.08.2019 07:33 16,1 C 85 % 1018,3 hPa 0,0 l/m 0,0 km/h N 360 0 min 0,000 mm 0,0 UV-I 33 W/m 13,6 C 16,1 C 0,0 km/h 100,00 %
25.08.2019 07:32 16,1 C 85 % 1018,2 hPa 0,0 l/m 0,0 km/h N 360 0 min 0,000 mm 0,0 UV-I 32 W/m 13,6 C 16,1 C 0,0 km/h 100,00 %
25.08.2019 07:31 16,1 C 85 % 1018,2 hPa 0,0 l/m 0,0 km/h N 360 0 min 0,000 mm 0,0 UV-I 32 W/m 13,6 C 16,1 C 0,0 km/h 100,00 %
25.08.2019 07:29 16,0 C 85 % 1018,2 hPa 0,0 l/m 0,0 km/h N 360 0 min 0,000 mm 0,0 UV-I 30 W/m 13,5 C 16,0 C 0,0 km/h 96,97 %
25.08.2019 07:28 16,0 C 85 % 1018,2 hPa 0,0 l/m 0,0 km/h N 360 0 min 0,000 mm 0,0 UV-I 30 W/m 13,5 C 16,0 C 0,0 km/h 100,00 %
25.08.2019 07:27 15,9 C 85 % 1018,2 hPa 0,0 l/m 0,0 km/h N 360 0 min 0,000 mm 0,0 UV-I 30 W/m 13,4 C 15,9 C 0,0 km/h 96,67 %
25.08.2019 07:26 15,9 C 85 % 1018,2 hPa 0,0 l/m 0,0 km/h N 360 0 min 0,000 mm 0,0 UV-I 29 W/m 13,4 C 15,9 C 0,0 km/h 100,00 %
25.08.2019 07:25 15,9 C 85 % 1018,2 hPa 0,0 l/m 0,0 km/h N 360 0 min 0,000 mm 0,0 UV-I 28 W/m 13,4 C 15,9 C 0,0 km/h 96,15 %
25.08.2019 07:24 15,9 C 85 % 1018,2 hPa 0,0 l/m 0,0 km/h N 360 0 min 0,000 mm 0,0 UV-I 28 W/m 13,4 C 15,9 C 0,0 km/h 100,00 %
25.08.2019 07:23 15,8 C 85 % 1018,2 hPa 0,0 l/m 0,0 km/h N 360 0 min 0,000 mm 0,0 UV-I 28 W/m 13,3 C 15,8 C 0,0 km/h 100,00 %
25.08.2019 07:22 15,8 C 85 % 1018,2 hPa 0,0 l/m 0,0 km/h N 360 0 min 0,000 mm 0,0 UV-I 26 W/m 13,3 C 15,8 C 0,0 km/h 95,65 %
25.08.2019 07:21 15,8 C 85 % 1018,2 hPa 0,0 l/m 0,0 km/h N 360 0 min 0,000 mm 0,0 UV-I 26 W/m 13,3 C 15,8 C 0,0 km/h 100,00 %
25.08.2019 07:20 15,7 C 85 % 1018,2 hPa 0,0 l/m 0,0 km/h N 360 0 min 0,000 mm 0,0 UV-I 26 W/m 13,2 C 15,7 C 0,0 km/h 100,00 %
25.08.2019 07:19 15,7 C 85 % 1018,2 hPa 0,0 l/m 0,0 km/h N 360 0 min 0,000 mm 0,0 UV-I 25 W/m 13,2 C 15,7 C 0,0 km/h 100,00 %
25.08.2019 07:18 15,7 C 85 % 1018,2 hPa 0,0 l/m 0,0 km/h N 360 0 min 0,000 mm 0,0 UV-I 25 W/m 13,2 C 15,7 C 0,0 km/h 100,00 %
25.08.2019 07:17 15,7 C 85 % 1018,2 hPa 0,0 l/m 0,0 km/h N 360 0 min 0,000 mm 0,0 UV-I 25 W/m 13,2 C 15,7 C 0,0 km/h 100,00 %
25.08.2019 07:16 15,6 C 85 % 1018,1 hPa 0,0 l/m 0,0 km/h N 360 0 min 0,000 mm 0,0 UV-I 25 W/m 13,1 C 15,6 C 0,0 km/h 100,00 %
25.08.2019 07:15 15,6 C 85 % 1018,2 hPa 0,0 l/m 0,0 km/h N 360 0 min 0,000 mm 0,0 UV-I 23 W/m 13,1 C 15,6 C 0,0 km/h 100,00 %
25.08.2019 07:14 15,6 C 85 % 1018,2 hPa 0,0 l/m 0,0 km/h N 360 0 min 0,000 mm 0,0 UV-I 23 W/m 13,1 C 15,6 C 0,0 km/h 100,00 %
25.08.2019 07:13 15,6 C 85 % 1018,2 hPa 0,0 l/m 0,0 km/h N 360 0 min 0,000 mm 0,0 UV-I 23 W/m 13,1 C 15,6 C 0,0 km/h 100,00 %
25.08.2019 07:12 15,6 C 85 % 1018,2 hPa 0,0 l/m 0,0 km/h N 360 0 min 0,000 mm 0,0 UV-I 23 W/m 13,1 C 15,6 C 0,0 km/h 96,15 %
25.08.2019 07:11 15,5 C 85 % 1018,1 hPa 0,0 l/m 0,0 km/h N 360 0 min 0,000 mm 0,0 UV-I 21 W/m 13,0 C 15,5 C 0,0 km/h 96,30 %
25.08.2019 07:10 15,5 C 85 % 1018,1 hPa 0,0 l/m 0,0 km/h N 360 0 min 0,000 mm 0,0 UV-I 21 W/m 13,0 C 15,5 C 0,0 km/h 100,00 %
25.08.2019 07:09 15,5 C 85 % 1018,1 hPa 0,0 l/m 0,0 km/h N 360 0 min 0,000 mm 0,0 UV-I 21 W/m 13,0 C 15,5 C 0,0 km/h 100,00 %
25.08.2019 07:08 15,5 C 85 % 1018,2 hPa 0,0 l/m 0,0 km/h N 360 0 min 0,000 mm 0,0 UV-I 20 W/m 13,0 C 15,5 C 0,0 km/h 100,00 %
25.08.2019 07:07 15,5 C 85 % 1018,1 hPa 0,0 l/m 0,0 km/h N 360 0 min 0,000 mm 0,0 UV-I 19 W/m 13,0 C 15,5 C 0,0 km/h 100,00 %
25.08.2019 07:06 15,5 C 85 % 1018,2 hPa 0,0 l/m 0,0 km/h N 360 0 min 0,000 mm 0,0 UV-I 19 W/m 13,0 C 15,5 C 0,0 km/h 100,00 %
25.08.2019 07:05 15,5 C 85 % 1018,1 hPa 0,0 l/m 0,0 km/h N 360 0 min 0,000 mm 0,0 UV-I 19 W/m 13,0 C 15,5 C 0,0 km/h 96,30 %
25.08.2019 07:04 15,5 C 85 % 1018,1 hPa 0,0 l/m 0,0 km/h N 360 0 min 0,000 mm 0,0 UV-I 18 W/m 13,0 C 15,5 C 0,0 km/h 100,00 %
25.08.2019 07:03 15,5 C 85 % 1018,1 hPa 0,0 l/m 0,0 km/h N 360 0 min 0,000 mm 0,0 UV-I 18 W/m 13,0 C 15,5 C 0,0 km/h 100,00 %
25.08.2019 07:02 15,5 C 85 % 1018,1 hPa 0,0 l/m 0,0 km/h N 360 0 min 0,000 mm 0,0 UV-I 18 W/m 13,0 C 15,5 C 0,0 km/h 100,00 %
25.08.2019 07:00 15,5 C 85 % 1018,2 hPa 0,0 l/m 0,0 km/h N 0 0 min 0,000 mm 0,0 UV-I 16 W/m 13,0 C 15,5 C 0,0 km/h 100,00 %
25.08.2019 06:55 15,6 C 85 % 1018,2 hPa 0,0 l/m 0,0 km/h N 0 0 min 0,000 mm 0,0 UV-I 14 W/m 13,1 C 15,6 C 0,0 km/h 100,00 %
25.08.2019 06:54 15,6 C 85 % 1018,2 hPa 0,0 l/m 0,0 km/h N 360 0 min 0,000 mm 0,0 UV-I 13 W/m 13,1 C 15,6 C 0,0 km/h 98,74 %
25.08.2019 06:53 15,6 C 85 % 1018,2 hPa 0,0 l/m 0,0 km/h N 360 0 min 0,000 mm 0,0 UV-I 12 W/m 13,1 C 15,6 C 0,0 km/h 100,00 %
25.08.2019 06:52 15,6 C 85 % 1018,2 hPa 0,0 l/m 0,0 km/h N 360 0 min 0,000 mm 0,0 UV-I 12 W/m 13,1 C 15,6 C 0,0 km/h 100,00 %
25.08.2019 06:51 15,6 C 85 % 1018,2 hPa 0,0 l/m 0,0 km/h N 360 0 min 0,000 mm 0,0 UV-I 11 W/m 13,1 C 15,6 C 0,0 km/h 100,00 %
25.08.2019 06:49 15,6 C 85 % 1018,2 hPa 0,0 l/m 0,0 km/h N 360 0 min 0,000 mm 0,0 UV-I 11 W/m 13,1 C 15,6 C 0,0 km/h 100,00 %
25.08.2019 06:48 15,6 C 85 % 1018,2 hPa 0,0 l/m 0,0 km/h N 360 0 min 0,000 mm 0,0 UV-I 11 W/m 13,1 C 15,6 C 0,0 km/h 96,15 %
25.08.2019 06:47 15,6 C 85 % 1018,2 hPa 0,0 l/m 0,0 km/h N 360 0 min 0,000 mm 0,0 UV-I 9 W/m 13,1 C 15,6 C 0,0 km/h 100,00 %
25.08.2019 06:46 15,6 C 85 % 1018,2 hPa 0,0 l/m 0,0 km/h N 360 0 min 0,000 mm 0,0 UV-I 9 W/m 13,1 C 15,6 C 0,0 km/h 96,15 %
25.08.2019 06:45 15,6 C 85 % 1018,1 hPa 0,0 l/m 0,0 km/h N 360 0 min 0,000 mm 0,0 UV-I 9 W/m 13,1 C 15,6 C 0,0 km/h 100,00 %
25.08.2019 06:44 15,5 C 85 % 1018,1 hPa 0,0 l/m 0,0 km/h N 360 0 min 0,000 mm 0,0 UV-I 8 W/m 13,0 C 15,5 C 0,0 km/h 100,00 %
25.08.2019 06:43 15,5 C 85 % 1018,2 hPa 0,0 l/m 0,0 km/h N 360 0 min 0,000 mm 0,0 UV-I 7 W/m 13,0 C 15,5 C 0,0 km/h 100,00 %
25.08.2019 06:42 15,5 C 85 % 1018,2 hPa 0,0 l/m 0,0 km/h N 360 0 min 0,000 mm 0,0 UV-I 7 W/m 13,0 C 15,5 C 0,0 km/h 95,65 %
25.08.2019 06:41 15,5 C 85 % 1018,1 hPa 0,0 l/m 0,0 km/h N 360 0 min 0,000 mm 0,0 UV-I 7 W/m 13,0 C 15,5 C 0,0 km/h 100,00 %
25.08.2019 06:40 15,5 C 85 % 1018,1 hPa 0,0 l/m 0,0 km/h N 360 0 min 0,000 mm 0,0 UV-I 5 W/m 13,0 C 15,5 C 0,0 km/h 100,00 %
25.08.2019 06:39 15,5 C 85 % 1018,2 hPa 0,0 l/m 0,0 km/h N 360 0 min 0,000 mm 0,0 UV-I 5 W/m 13,0 C 15,5 C 0,0 km/h 100,00 %
25.08.2019 06:38 15,4 C 85 % 1018,1 hPa 0,0 l/m 0,0 km/h N 360 0 min 0,000 mm 0,0 UV-I 5 W/m 12,9 C 15,4 C 0,0 km/h 100,00 %
25.08.2019 06:37 15,4 C 85 % 1018,1 hPa 0,0 l/m 0,0 km/h N 360 0 min 0,000 mm 0,0 UV-I 5 W/m 12,9 C 15,4 C 0,0 km/h 100,00 %
25.08.2019 06:36 15,4 C 85 % 1018,1 hPa 0,0 l/m 0,0 km/h N 360 0 min 0,000 mm 0,0 UV-I 0 W/m 12,9 C 15,4 C 0,0 km/h 95,65 %
25.08.2019 06:35 15,4 C 85 % 1018,1 hPa 0,0 l/m 0,0 km/h N 360 0 min 0,000 mm 0,0 UV-I 0 W/m 12,9 C 15,4 C 0,0 km/h 100,00 %
25.08.2019 06:34 15,4 C 85 % 1018,1 hPa 0,0 l/m 0,0 km/h N 360 0 min 0,000 mm 0,0 UV-I 0 W/m 12,9 C 15,4 C 0,0 km/h 100,00 %
25.08.2019 06:33 15,4 C 85 % 1018,1 hPa 0,0 l/m 0,0 km/h N 360 0 min 0,000 mm 0,0 UV-I 0 W/m 12,9 C 15,4 C 0,0 km/h 100,00 %
25.08.2019 06:32 15,4 C 85 % 1018,1 hPa 0,0 l/m 0,0 km/h N 360 0 min 0,000 mm 0,0 UV-I 0 W/m 12,9 C 15,4 C 0,0 km/h 100,00 %
25.08.2019 06:31 15,4 C 85 % 1018,1 hPa 0,0 l/m 0,0 km/h N 360 0 min 0,000 mm 0,0 UV-I 0 W/m 12,9 C 15,4 C 0,0 km/h 100,00 %
25.08.2019 06:30 15,4 C 85 % 1018,1 hPa 0,0 l/m 0,0 km/h N 360 0 min 0,000 mm 0,0 UV-I 0 W/m 12,9 C 15,4 C 0,0 km/h 100,00 %
25.08.2019 06:29 15,4 C 85 % 1018,1 hPa 0,0 l/m 0,0 km/h N 360 0 min 0,000 mm 0,0 UV-I 0 W/m 12,9 C 15,4 C 0,0 km/h 100,00 %
25.08.2019 06:28 15,4 C 84 % 1018,1 hPa 0,0 l/m 0,0 km/h N 360 0 min 0,000 mm 0,0 UV-I 0 W/m 12,7 C 15,4 C 0,0 km/h 100,00 %
25.08.2019 06:27 15,4 C 84 % 1018,1 hPa 0,0 l/m 0,0 km/h N 360 0 min 0,000 mm 0,0 UV-I 0 W/m 12,7 C 15,4 C 0,0 km/h 100,00 %
25.08.2019 06:26 15,4 C 84 % 1018,1 hPa 0,0 l/m 0,0 km/h N 360 0 min 0,000 mm 0,0 UV-I 0 W/m 12,7 C 15,4 C 0,0 km/h 100,00 %
25.08.2019 06:25 15,4 C 84 % 1018,1 hPa 0,0 l/m 0,0 km/h N 360 0 min 0,000 mm 0,0 UV-I 0 W/m 12,7 C 15,4 C 0,0 km/h 95,65 %
25.08.2019 06:24 15,5 C 84 % 1018,1 hPa 0,0 l/m 0,0 km/h N 360 0 min 0,000 mm 0,0 UV-I 0 W/m 12,8 C 15,5 C 0,0 km/h 100,00 %
25.08.2019 06:23 15,5 C 84 % 1018,1 hPa 0,0 l/m 0,0 km/h N 360 0 min 0,000 mm 0,0 UV-I 0 W/m 12,8 C 15,5 C 0,0 km/h 100,00 %
25.08.2019 06:22 15,6 C 84 % 1018,2 hPa 0,0 l/m 0,0 km/h N 360 0 min 0,000 mm 0,0 UV-I 0 W/m 12,9 C 15,6 C 0,0 km/h 100,00 %
25.08.2019 06:21 15,6 C 84 % 1018,2 hPa 0,0 l/m 0,0 km/h N 360 0 min 0,000 mm 0,0 UV-I 0 W/m 12,9 C 15,6 C 0,0 km/h 100,00 %
25.08.2019 06:20 15,6 C 84 % 1018,1 hPa 0,0 l/m 0,0 km/h N 360 0 min 0,000 mm 0,0 UV-I 0 W/m 12,9 C 15,6 C 0,0 km/h 100,00 %
25.08.2019 06:19 15,6 C 84 % 1018,1 hPa 0,0 l/m 0,0 km/h N 360 0 min 0,000 mm 0,0 UV-I 0 W/m 12,9 C 15,6 C 0,0 km/h 100,00 %
25.08.2019 06:18 15,6 C 84 % 1018,1 hPa 0,0 l/m 0,0 km/h N 360 0 min 0,000 mm 0,0 UV-I 0 W/m 12,9 C 15,6 C 0,0 km/h 100,00 %
25.08.2019 06:17 15,6 C 84 % 1018,1 hPa 0,0 l/m 0,0 km/h N 360 0 min 0,000 mm 0,0 UV-I 0 W/m 12,9 C 15,6 C 0,0 km/h 100,00 %
25.08.2019 06:16 15,6 C 84 % 1018,1 hPa 0,0 l/m 0,0 km/h N 360 0 min 0,000 mm 0,0 UV-I 0 W/m 12,9 C 15,6 C 0,0 km/h 100,00 %
25.08.2019 06:15 15,6 C 84 % 1018,1 hPa 0,0 l/m 0,0 km/h N 360 0 min 0,000 mm 0,0 UV-I 0 W/m 12,9 C 15,6 C 0,0 km/h 100,00 %
25.08.2019 06:14 15,6 C 84 % 1018,1 hPa 0,0 l/m 0,0 km/h N 360 0 min 0,000 mm 0,0 UV-I 0 W/m 12,9 C 15,6 C 0,0 km/h 100,00 %
25.08.2019 06:13 15,6 C 84 % 1018,1 hPa 0,0 l/m 0,0 km/h N 360 0 min 0,000 mm 0,0 UV-I 0 W/m 12,9 C 15,6 C 0,0 km/h 100,00 %
25.08.2019 06:12 15,6 C 84 % 1018,1 hPa 0,0 l/m 0,0 km/h N 360 0 min 0,000 mm 0,0 UV-I 0 W/m 12,9 C 15,6 C 0,0 km/h 100,00 %
25.08.2019 06:11 15,6 C 84 % 1018,1 hPa 0,0 l/m 0,0 km/h N 360 0 min 0,000 mm 0,0 UV-I 0 W/m 12,9 C 15,6 C 0,0 km/h 96,15 %
25.08.2019 06:10 15,6 C 84 % 1018,1 hPa 0,0 l/m 0,0 km/h N 360 0 min 0,000 mm 0,0 UV-I 0 W/m 12,9 C 15,6 C 0,0 km/h 100,00 %
25.08.2019 06:09 15,6 C 84 % 1018,0 hPa 0,0 l/m 0,0 km/h N 360 0 min 0,000 mm 0,0 UV-I 0 W/m 12,9 C 15,6 C 0,0 km/h 100,00 %
25.08.2019 06:08 15,6 C 84 % 1018,0 hPa 0,0 l/m 0,0 km/h N 360 0 min 0,000 mm 0,0 UV-I 0 W/m 12,9 C 15,6 C 0,0 km/h 100,00 %
25.08.2019 06:07 15,6 C 84 % 1018,0 hPa 0,0 l/m 0,0 km/h N 360 0 min 0,000 mm 0,0 UV-I 0 W/m 12,9 C 15,6 C 0,0 km/h 95,83 %
25.08.2019 06:06 15,6 C 84 % 1018,0 hPa 0,0 l/m 0,0 km/h N 360 0 min 0,000 mm 0,0 UV-I 0 W/m 12,9 C 15,6 C 0,0 km/h 100,00 %
25.08.2019 06:05 15,6 C 84 % 1018,0 hPa 0,0 l/m 0,0 km/h N 360 0 min 0,000 mm 0,0 UV-I 0 W/m 12,9 C 15,6 C 0,0 km/h 100,00 %
25.08.2019 06:04 15,6 C 83 % 1018,1 hPa 0,0 l/m 0,0 km/h N 360 0 min 0,000 mm 0,0 UV-I 0 W/m 12,7 C 15,6 C 0,0 km/h 98,47 %
25.08.2019 06:03 15,7 C 83 % 1018,1 hPa 0,0 l/m 0,0 km/h N 360 0 min 0,000 mm 0,0 UV-I 0 W/m 12,8 C 15,7 C 0,0 km/h 100,00 %
25.08.2019 06:02 15,7 C 83 % 1018,0 hPa 0,0 l/m 0,0 km/h N 360 0 min 0,000 mm 0,0 UV-I 0 W/m 12,8 C 15,7 C 0,0 km/h 100,00 %
25.08.2019 06:01 15,7 C 83 % 1018,1 hPa 0,0 l/m 0,0 km/h N 360 0 min 0,000 mm 0,0 UV-I 0 W/m 12,8 C 15,7 C 0,0 km/h 100,00 %
25.08.2019 06:00 15,7 C 83 % 1018,0 hPa 0,0 l/m 0,0 km/h N 360 0 min 0,025 mm 0,0 UV-I 0 W/m 12,8 C 15,7 C 0,0 km/h 100,00 %
25.08.2019 05:59 15,7 C 83 % 1018,0 hPa 0,0 l/m 0,0 km/h N 360 0 min 0,000 mm 0,0 UV-I 0 W/m 12,8 C 15,7 C 0,0 km/h 100,00 %
25.08.2019 05:58 15,7 C 83 % 1018,0 hPa 0,0 l/m 0,0 km/h N 360 0 min 0,000 mm 0,0 UV-I 0 W/m 12,8 C 15,7 C 0,0 km/h 100,00 %
25.08.2019 05:57 15,7 C 83 % 1018,1 hPa 0,0 l/m 0,0 km/h N 360 0 min 0,000 mm 0,0 UV-I 0 W/m 12,8 C 15,7 C 0,0 km/h 100,00 %
25.08.2019 05:56 15,8 C 83 % 1018,0 hPa 0,0 l/m 0,0 km/h N 360 0 min 0,000 mm 0,0 UV-I 0 W/m 12,9 C 15,8 C 0,0 km/h 100,00 %
25.08.2019 05:55 15,8 C 83 % 1018,0 hPa 0,0 l/m 0,0 km/h N 360 0 min 0,000 mm 0,0 UV-I 0 W/m 12,9 C 15,8 C 0,0 km/h 100,00 %
25.08.2019 05:54 15,8 C 83 % 1018,0 hPa 0,0 l/m 0,0 km/h N 360 0 min 0,000 mm 0,0 UV-I 0 W/m 12,9 C 15,8 C 0,0 km/h 100,00 %
25.08.2019 05:53 15,8 C 83 % 1018,0 hPa 0,0 l/m 0,0 km/h N 360 0 min 0,000 mm 0,0 UV-I 0 W/m 12,9 C 15,8 C 0,0 km/h 100,00 %
25.08.2019 05:52 15,8 C 83 % 1018,0 hPa 0,0 l/m 0,0 km/h N 360 0 min 0,000 mm 0,0 UV-I 0 W/m 12,9 C 15,8 C 0,0 km/h 100,00 %
25.08.2019 05:51 15,7 C 83 % 1018,0 hPa 0,0 l/m 0,0 km/h N 360 0 min 0,000 mm 0,0 UV-I 0 W/m 12,8 C 15,7 C 0,0 km/h 100,00 %
25.08.2019 05:50 15,8 C 83 % 1018,0 hPa 0,0 l/m 0,0 km/h N 360 0 min 0,000 mm 0,0 UV-I 0 W/m 12,9 C 15,8 C 0,0 km/h 100,00 %
25.08.2019 05:49 15,7 C 83 % 1018,0 hPa 0,0 l/m 0,0 km/h N 360 0 min 0,000 mm 0,0 UV-I 0 W/m 12,8 C 15,7 C 0,0 km/h 100,00 %
25.08.2019 05:48 15,8 C 83 % 1018,0 hPa 0,0 l/m 0,0 km/h N 360 0 min 0,000 mm 0,0 UV-I 0 W/m 12,9 C 15,8 C 0,0 km/h 100,00 %
25.08.2019 05:47 15,8 C 83 % 1018,0 hPa 0,0 l/m 0,0 km/h N 360 0 min 0,000 mm 0,0 UV-I 0 W/m 12,9 C 15,8 C 0,0 km/h 100,00 %
25.08.2019 05:46 15,8 C 83 % 1018,0 hPa 0,0 l/m 0,0 km/h N 360 0 min 0,000 mm 0,0 UV-I 0 W/m 12,9 C 15,8 C 0,0 km/h 96,30 %
25.08.2019 05:45 15,8 C 83 % 1018,0 hPa 0,0 l/m 0,0 km/h N 360 0 min 0,000 mm 0,0 UV-I 0 W/m 12,9 C 15,8 C 0,0 km/h 100,00 %
25.08.2019 05:44 15,8 C 83 % 1018,0 hPa 0,0 l/m 0,0 km/h N 360 0 min 0,000 mm 0,0 UV-I 0 W/m 12,9 C 15,8 C 0,0 km/h 95,83 %
25.08.2019 05:43 15,8 C 83 % 1018,0 hPa 0,0 l/m 0,0 km/h N 360 0 min 0,000 mm 0,0 UV-I 0 W/m 12,9 C 15,8 C 0,0 km/h 100,00 %
25.08.2019 05:42 15,8 C 83 % 1017,9 hPa 0,0 l/m 0,0 km/h N 360 0 min 0,000 mm 0,0 UV-I 0 W/m 12,9 C 15,8 C 0,0 km/h 95,83 %
25.08.2019 05:41 15,8 C 83 % 1017,9 hPa 0,0 l/m 0,0 km/h N 360 0 min 0,000 mm 0,0 UV-I 0 W/m 12,9 C 15,8 C 0,0 km/h 100,00 %
25.08.2019 05:40 15,8 C 83 % 1017,9 hPa 0,0 l/m 0,0 km/h N 360 0 min 0,000 mm 0,0 UV-I 0 W/m 12,9 C 15,8 C 0,0 km/h 95,83 %
25.08.2019 05:39 15,8 C 83 % 1018,0 hPa 0,0 l/m 0,0 km/h N 360 0 min 0,000 mm 0,0 UV-I 0 W/m 12,9 C 15,8 C 0,0 km/h 95,65 %
25.08.2019 05:38 15,9 C 83 % 1018,0 hPa 0,0 l/m 0,0 km/h N 360 0 min 0,000 mm 0,0 UV-I 0 W/m 13,0 C 15,9 C 0,0 km/h 95,83 %
25.08.2019 05:37 15,9 C 83 % 1018,0 hPa 0,0 l/m 0,0 km/h N 360 0 min 0,000 mm 0,0 UV-I 0 W/m 13,0 C 15,9 C 0,0 km/h 95,65 %
25.08.2019 05:36 15,9 C 83 % 1018,0 hPa 0,0 l/m 0,0 km/h N 360 0 min 0,000 mm 0,0 UV-I 0 W/m 13,0 C 15,9 C 0,0 km/h 100,00 %
25.08.2019 05:35 15,9 C 83 % 1018,0 hPa 0,0 l/m 0,0 km/h N 360 0 min 0,000 mm 0,0 UV-I 0 W/m 13,0 C 15,9 C 0,0 km/h 96,15 %
25.08.2019 05:34 15,9 C 82 % 1018,0 hPa 0,0 l/m 0,0 km/h N 360 0 min 0,000 mm 0,0 UV-I 0 W/m 12,8 C 15,9 C 0,0 km/h 100,00 %
25.08.2019 05:33 15,9 C 82 % 1018,0 hPa 0,0 l/m 0,0 km/h N 360 0 min 0,000 mm 0,0 UV-I 0 W/m 12,8 C 15,9 C 0,0 km/h 91,30 %
25.08.2019 05:32 15,9 C 82 % 1018,0 hPa 0,0 l/m 0,0 km/h N 360 0 min 0,000 mm 0,0 UV-I 0 W/m 12,8 C 15,9 C 0,0 km/h 95,83 %
25.08.2019 05:31 15,9 C 82 % 1018,0 hPa 0,0 l/m 0,0 km/h N 360 0 min 0,000 mm 0,0 UV-I 0 W/m 12,8 C 15,9 C 0,0 km/h 100,00 %
25.08.2019 05:30 15,9 C 82 % 1018,0 hPa 0,0 l/m 0,0 km/h N 360 0 min 0,000 mm 0,0 UV-I 0 W/m 12,8 C 15,9 C 0,0 km/h 93,33 %
25.08.2019 05:29 15,9 C 82 % 1018,0 hPa 0,0 l/m 0,0 km/h N 360 0 min 0,000 mm 0,0 UV-I 0 W/m 12,8 C 15,9 C 0,0 km/h 100,00 %
25.08.2019 05:28 16,0 C 82 % 1018,0 hPa 0,0 l/m 0,0 km/h N 360 0 min 0,000 mm 0,0 UV-I 0 W/m 12,9 C 16,0 C 0,0 km/h 96,15 %
25.08.2019 05:27 16,0 C 82 % 1018,0 hPa 0,0 l/m 0,0 km/h N 360 0 min 0,000 mm 0,0 UV-I 0 W/m 12,9 C 16,0 C 0,0 km/h 95,83 %
25.08.2019 05:26 16,1 C 82 % 1018,0 hPa 0,0 l/m 0,0 km/h N 360 0 min 0,000 mm 0,0 UV-I 0 W/m 13,0 C 16,1 C 0,0 km/h 91,30 %
25.08.2019 05:25 16,1 C 82 % 1018,0 hPa 0,0 l/m 0,0 km/h N 360 0 min 0,000 mm 0,0 UV-I 0 W/m 13,0 C 16,1 C 0,0 km/h 95,83 %
25.08.2019 05:24 16,1 C 82 % 1018,0 hPa 0,0 l/m 0,0 km/h N 360 0 min 0,000 mm 0,0 UV-I 0 W/m 13,0 C 16,1 C 0,0 km/h 96,15 %
25.08.2019 05:23 16,1 C 82 % 1018,0 hPa 0,0 l/m 0,0 km/h N 360 0 min 0,000 mm 0,0 UV-I 0 W/m 13,0 C 16,1 C 0,0 km/h 95,83 %
25.08.2019 05:22 16,1 C 82 % 1018,0 hPa 0,0 l/m 0,0 km/h N 360 0 min 0,000 mm 0,0 UV-I 0 W/m 13,0 C 16,1 C 0,0 km/h 100,00 %
25.08.2019 05:21 16,1 C 82 % 1017,9 hPa 0,0 l/m 0,0 km/h N 360 0 min 0,000 mm 0,0 UV-I 0 W/m 13,0 C 16,1 C 0,0 km/h 95,83 %
25.08.2019 05:20 16,1 C 82 % 1018,0 hPa 0,0 l/m 0,0 km/h N 360 0 min 0,000 mm 0,0 UV-I 0 W/m 13,0 C 16,1 C 0,0 km/h 100,00 %
25.08.2019 05:19 16,1 C 82 % 1018,0 hPa 0,0 l/m 0,0 km/h N 360 0 min 0,000 mm 0,0 UV-I 0 W/m 13,0 C 16,1 C 0,0 km/h 83,33 %
25.08.2019 05:18 16,1 C 82 % 1018,0 hPa 0,0 l/m 0,0 km/h N 360 0 min 0,000 mm 0,0 UV-I 0 W/m 13,0 C 16,1 C 0,0 km/h 100,00 %
25.08.2019 05:17 16,2 C 82 % 1018,0 hPa 0,0 l/m 0,0 km/h N 360 0 min 0,000 mm 0,0 UV-I 0 W/m 13,1 C 16,2 C 0,0 km/h 96,30 %
25.08.2019 05:16 16,2 C 81 % 1018,0 hPa 0,0 l/m 0,0 km/h N 360 0 min 0,000 mm 0,0 UV-I 0 W/m 12,9 C 16,2 C 0,0 km/h 96,55 %
25.08.2019 05:15 16,2 C 81 % 1018,1 hPa 0,0 l/m 0,0 km/h N 360 0 min 0,000 mm 0,0 UV-I 0 W/m 12,9 C 16,2 C 0,0 km/h 100,00 %
25.08.2019 05:14 16,2 C 81 % 1018,1 hPa 0,0 l/m 0,0 km/h N 360 0 min 0,000 mm 0,0 UV-I 0 W/m 12,9 C 16,2 C 0,0 km/h 100,00 %
25.08.2019 05:13 16,3 C 81 % 1018,1 hPa 0,0 l/m 0,0 km/h N 360 0 min 0,000 mm 0,0 UV-I 0 W/m 13,0 C 16,3 C 0,0 km/h 95,65 %
25.08.2019 05:12 16,3 C 81 % 1018,1 hPa 0,0 l/m 0,0 km/h N 360 0 min 0,000 mm 0,0 UV-I 0 W/m 13,0 C 16,3 C 0,0 km/h 96,30 %
25.08.2019 05:11 16,3 C 81 % 1018,1 hPa 0,0 l/m 0,0 km/h N 360 0 min 0,000 mm 0,0 UV-I 0 W/m 13,0 C 16,3 C 0,0 km/h 100,00 %
25.08.2019 05:10 16,4 C 81 % 1018,1 hPa 0,0 l/m 0,0 km/h N 360 0 min 0,000 mm 0,0 UV-I 0 W/m 13,1 C 16,4 C 0,0 km/h 91,67 %
25.08.2019 05:09 16,4 C 81 % 1018,1 hPa 0,0 l/m 0,0 km/h N 360 0 min 0,000 mm 0,0 UV-I 0 W/m 13,1 C 16,4 C 0,0 km/h 96,15 %
25.08.2019 05:08 16,4 C 81 % 1018,1 hPa 0,0 l/m 0,0 km/h N 360 0 min 0,000 mm 0,0 UV-I 0 W/m 13,1 C 16,4 C 0,0 km/h 95,83 %
25.08.2019 05:07 16,4 C 81 % 1018,1 hPa 0,0 l/m 0,0 km/h N 360 0 min 0,000 mm 0,0 UV-I 0 W/m 13,1 C 16,4 C 0,0 km/h 100,00 %
25.08.2019 05:06 16,4 C 81 % 1018,1 hPa 0,0 l/m 0,0 km/h N 360 0 min 0,000 mm 0,0 UV-I 0 W/m 13,1 C 16,4 C 0,0 km/h 95,83 %
25.08.2019 05:05 16,5 C 81 % 1018,1 hPa 0,0 l/m 0,0 km/h N 360 0 min 0,000 mm 0,0 UV-I 0 W/m 13,2 C 16,5 C 0,0 km/h 95,65 %
25.08.2019 05:04 16,6 C 81 % 1018,1 hPa 0,0 l/m 0,0 km/h N 360 0 min 0,000 mm 0,0 UV-I 0 W/m 13,3 C 16,6 C 0,0 km/h 100,00 %
25.08.2019 05:03 16,6 C 81 % 1018,1 hPa 0,0 l/m 0,0 km/h N 360 0 min 0,000 mm 0,0 UV-I 0 W/m 13,3 C 16,6 C 0,0 km/h 95,65 %
25.08.2019 05:02 16,6 C 82 % 1018,1 hPa 0,0 l/m 0,0 km/h N 360 0 min 0,000 mm 0,0 UV-I 0 W/m 13,5 C 16,6 C 0,0 km/h 95,83 %
25.08.2019 05:01 16,6 C 82 % 1018,1 hPa 0,0 l/m 0,0 km/h N 360 0 min 0,000 mm 0,0 UV-I 0 W/m 13,5 C 16,6 C 0,0 km/h 95,65 %
25.08.2019 05:00 16,6 C 82 % 1018,2 hPa 0,0 l/m 0,0 km/h N 360 0 min 0,025 mm 0,0 UV-I 0 W/m 13,5 C 16,6 C 0,0 km/h 100,00 %
25.08.2019 04:59 16,6 C 82 % 1018,2 hPa 0,0 l/m 0,0 km/h N 360 0 min 0,000 mm 0,0 UV-I 0 W/m 13,5 C 16,6 C 0,0 km/h 96,15 %
25.08.2019 04:58 16,5 C 82 % 1018,1 hPa 0,0 l/m 0,0 km/h N 360 0 min 0,000 mm 0,0 UV-I 0 W/m 13,4 C 16,5 C 0,0 km/h 95,83 %
25.08.2019 04:57 16,5 C 82 % 1018,1 hPa 0,0 l/m 0,0 km/h N 360 0 min 0,000 mm 0,0 UV-I 0 W/m 13,4 C 16,5 C 0,0 km/h 100,00 %
25.08.2019 04:56 16,5 C 82 % 1018,1 hPa 0,0 l/m 0,0 km/h N 360 0 min 0,000 mm 0,0 UV-I 0 W/m 13,4 C 16,5 C 0,0 km/h 95,83 %
25.08.2019 04:55 16,5 C 81 % 1018,1 hPa 0,0 l/m 0,0 km/h N 360 0 min 0,000 mm 0,0 UV-I 0 W/m 13,2 C 16,5 C 0,0 km/h 100,00 %
25.08.2019 04:54 16,5 C 82 % 1018,1 hPa 0,0 l/m 0,0 km/h N 360 0 min 0,000 mm 0,0 UV-I 0 W/m 13,4 C 16,5 C 0,0 km/h 96,15 %
25.08.2019 04:53 16,5 C 82 % 1018,1 hPa 0,0 l/m 0,0 km/h N 360 0 min 0,000 mm 0,0 UV-I 0 W/m 13,4 C 16,5 C 0,0 km/h 100,00 %
25.08.2019 04:52 16,5 C 82 % 1018,1 hPa 0,0 l/m 0,0 km/h N 360 0 min 0,000 mm 0,0 UV-I 0 W/m 13,4 C 16,5 C 0,0 km/h 100,00 %
25.08.2019 04:51 16,5 C 82 % 1018,0 hPa 0,0 l/m 0,0 km/h N 360 0 min 0,000 mm 0,0 UV-I 0 W/m 13,4 C 16,5 C 0,0 km/h 100,00 %
25.08.2019 04:50 16,5 C 82 % 1018,1 hPa 0,0 l/m 0,0 km/h N 360 0 min 0,000 mm 0,0 UV-I 0 W/m 13,4 C 16,5 C 0,0 km/h 100,00 %
25.08.2019 04:49 16,5 C 81 % 1018,1 hPa 0,0 l/m 0,0 km/h N 360 0 min 0,000 mm 0,0 UV-I 0 W/m 13,2 C 16,5 C 0,0 km/h 100,00 %
25.08.2019 04:48 16,5 C 81 % 1018,0 hPa 0,0 l/m 0,0 km/h N 360 0 min 0,000 mm 0,0 UV-I 0 W/m 13,2 C 16,5 C 0,0 km/h 100,00 %
25.08.2019 04:47 16,5 C 81 % 1018,1 hPa 0,0 l/m 0,0 km/h N 360 0 min 0,000 mm 0,0 UV-I 0 W/m 13,2 C 16,5 C 0,0 km/h 100,00 %
25.08.2019 04:46 16,5 C 81 % 1018,1 hPa 0,0 l/m 0,0 km/h N 360 0 min 0,000 mm 0,0 UV-I 0 W/m 13,2 C 16,5 C 0,0 km/h 100,00 %
25.08.2019 04:45 16,5 C 81 % 1018,1 hPa 0,0 l/m 0,0 km/h N 360 0 min 0,000 mm 0,0 UV-I 0 W/m 13,2 C 16,5 C 0,0 km/h 95,83 %
25.08.2019 04:44 16,5 C 81 % 1018,1 hPa 0,0 l/m 0,0 km/h N 360 0 min 0,000 mm 0,0 UV-I 0 W/m 13,2 C 16,5 C 0,0 km/h 100,00 %
25.08.2019 04:43 16,5 C 81 % 1018,2 hPa 0,0 l/m 0,0 km/h N 360 0 min 0,000 mm 0,0 UV-I 0 W/m 13,2 C 16,5 C 0,0 km/h 100,00 %
25.08.2019 04:42 16,5 C 81 % 1018,2 hPa 0,0 l/m 0,0 km/h N 360 0 min 0,000 mm 0,0 UV-I 0 W/m 13,2 C 16,5 C 0,0 km/h 100,00 %
25.08.2019 04:41 16,5 C 81 % 1018,1 hPa 0,0 l/m 0,0 km/h N 360 0 min 0,000 mm 0,0 UV-I 0 W/m 13,2 C 16,5 C 0,0 km/h 100,00 %
25.08.2019 04:40 16,5 C 81 % 1018,1 hPa 0,0 l/m 0,0 km/h N 360 0 min 0,000 mm 0,0 UV-I 0 W/m 13,2 C 16,5 C 0,0 km/h 100,00 %
25.08.2019 04:39 16,5 C 81 % 1018,2 hPa 0,0 l/m 0,0 km/h N 360 0 min 0,000 mm 0,0 UV-I 0 W/m 13,2 C 16,5 C 0,0 km/h 100,00 %
25.08.2019 04:38 16,6 C 81 % 1018,2 hPa 0,0 l/m 0,0 km/h N 360 0 min 0,000 mm 0,0 UV-I 0 W/m 13,3 C 16,6 C 0,0 km/h 100,00 %
25.08.2019 04:37 16,6 C 81 % 1018,2 hPa 0,0 l/m 0,0 km/h N 360 0 min 0,000 mm 0,0 UV-I 0 W/m 13,3 C 16,6 C 0,0 km/h 100,00 %
25.08.2019 04:36 16,6 C 81 % 1018,2 hPa 0,0 l/m 0,0 km/h N 360 0 min 0,000 mm 0,0 UV-I 0 W/m 13,3 C 16,6 C 0,0 km/h 96,15 %
25.08.2019 04:35 16,7 C 81 % 1018,2 hPa 0,0 l/m 0,0 km/h N 360 0 min 0,000 mm 0,0 UV-I 0 W/m 13,4 C 16,7 C 0,0 km/h 100,00 %
25.08.2019 04:34 16,7 C 81 % 1018,2 hPa 0,0 l/m 0,0 km/h N 360 0 min 0,000 mm 0,0 UV-I 0 W/m 13,4 C 16,7 C 0,0 km/h 100,00 %
25.08.2019 04:33 16,6 C 81 % 1018,2 hPa 0,0 l/m 0,0 km/h N 360 0 min 0,000 mm 0,0 UV-I 0 W/m 13,3 C 16,6 C 0,0 km/h 100,00 %
25.08.2019 04:32 16,7 C 81 % 1018,2 hPa 0,0 l/m 0,0 km/h N 360 0 min 0,000 mm 0,0 UV-I 0 W/m 13,4 C 16,7 C 0,0 km/h 100,00 %
25.08.2019 04:31 16,7 C 81 % 1018,2 hPa 0,0 l/m 0,0 km/h N 360 0 min 0,000 mm 0,0 UV-I 0 W/m 13,4 C 16,7 C 0,0 km/h 95,65 %
25.08.2019 04:30 16,7 C 81 % 1018,3 hPa 0,0 l/m 0,0 km/h N 360 0 min 0,000 mm 0,0 UV-I 0 W/m 13,4 C 16,7 C 0,0 km/h 100,00 %
25.08.2019 04:29 16,7 C 81 % 1018,2 hPa 0,0 l/m 0,0 km/h N 360 0 min 0,000 mm 0,0 UV-I 0 W/m 13,4 C 16,7 C 0,0 km/h 95,65 %
25.08.2019 04:28 16,7 C 81 % 1018,2 hPa 0,0 l/m 0,0 km/h N 360 0 min 0,000 mm 0,0 UV-I 0 W/m 13,4 C 16,7 C 0,0 km/h 100,00 %
25.08.2019 04:27 16,7 C 81 % 1018,2 hPa 0,0 l/m 0,0 km/h N 360 0 min 0,000 mm 0,0 UV-I 0 W/m 13,4 C 16,7 C 0,0 km/h 100,00 %
25.08.2019 04:26 16,7 C 82 % 1018,2 hPa 0,0 l/m 0,0 km/h N 360 0 min 0,000 mm 0,0 UV-I 0 W/m 13,6 C 16,7 C 0,0 km/h 100,00 %
25.08.2019 04:25 16,6 C 81 % 1018,2 hPa 0,0 l/m 0,0 km/h N 360 0 min 0,000 mm 0,0 UV-I 0 W/m 13,3 C 16,6 C 0,0 km/h 100,00 %
25.08.2019 04:24 16,6 C 81 % 1018,2 hPa 0,0 l/m 0,0 km/h N 360 0 min 0,000 mm 0,0 UV-I 0 W/m 13,3 C 16,6 C 0,0 km/h 100,00 %
25.08.2019 04:23 16,6 C 81 % 1018,2 hPa 0,0 l/m 0,0 km/h N 360 0 min 0,000 mm 0,0 UV-I 0 W/m 13,3 C 16,6 C 0,0 km/h 100,00 %
25.08.2019 04:22 16,6 C 81 % 1018,2 hPa 0,0 l/m 0,0 km/h N 360 0 min 0,000 mm 0,0 UV-I 0 W/m 13,3 C 16,6 C 0,0 km/h 100,00 %
25.08.2019 04:21 16,7 C 81 % 1018,3 hPa 0,0 l/m 0,0 km/h N 360 0 min 0,000 mm 0,0 UV-I 0 W/m 13,4 C 16,7 C 0,0 km/h 100,00 %
25.08.2019 04:20 16,7 C 81 % 1018,2 hPa 0,0 l/m 0,0 km/h N 360 0 min 0,000 mm 0,0 UV-I 0 W/m 13,4 C 16,7 C 0,0 km/h 100,00 %
25.08.2019 04:19 16,7 C 81 % 1018,2 hPa 0,0 l/m 0,0 km/h N 360 0 min 0,000 mm 0,0 UV-I 0 W/m 13,4 C 16,7 C 0,0 km/h 100,00 %
25.08.2019 04:18 16,7 C 81 % 1018,2 hPa 0,0 l/m 0,0 km/h N 360 0 min 0,000 mm 0,0 UV-I 0 W/m 13,4 C 16,7 C 0,0 km/h 100,00 %
25.08.2019 04:17 16,7 C 81 % 1018,2 hPa 0,0 l/m 0,0 km/h N 360 0 min 0,000 mm 0,0 UV-I 0 W/m 13,4 C 16,7 C 0,0 km/h 100,00 %
25.08.2019 04:16 16,8 C 81 % 1018,2 hPa 0,0 l/m 0,0 km/h N 360 0 min 0,000 mm 0,0 UV-I 0 W/m 13,5 C 16,8 C 0,0 km/h 100,00 %
25.08.2019 04:15 16,8 C 81 % 1018,2 hPa 0,0 l/m 0,0 km/h N 360 0 min 0,000 mm 0,0 UV-I 0 W/m 13,5 C 16,8 C 0,0 km/h 100,00 %
25.08.2019 04:14 16,8 C 81 % 1018,2 hPa 0,0 l/m 0,0 km/h N 360 0 min 0,000 mm 0,0 UV-I 0 W/m 13,5 C 16,8 C 0,0 km/h 95,83 %
25.08.2019 04:13 16,8 C 81 % 1018,2 hPa 0,0 l/m 0,0 km/h N 360 0 min 0,000 mm 0,0 UV-I 0 W/m 13,5 C 16,8 C 0,0 km/h 100,00 %
25.08.2019 04:12 16,8 C 81 % 1018,1 hPa 0,0 l/m 0,0 km/h N 360 0 min 0,000 mm 0,0 UV-I 0 W/m 13,5 C 16,8 C 0,0 km/h 100,00 %
25.08.2019 04:11 16,8 C 81 % 1018,1 hPa 0,0 l/m 0,0 km/h N 360 0 min 0,000 mm 0,0 UV-I 0 W/m 13,5 C 16,8 C 0,0 km/h 100,00 %
25.08.2019 04:10 16,7 C 81 % 1018,1 hPa 0,0 l/m 0,0 km/h N 360 0 min 0,000 mm 0,0 UV-I 0 W/m 13,4 C 16,7 C 0,0 km/h 100,00 %
25.08.2019 04:09 16,7 C 81 % 1018,1 hPa 0,0 l/m 0,0 km/h N 360 0 min 0,000 mm 0,0 UV-I 0 W/m 13,4 C 16,7 C 0,0 km/h 100,00 %
25.08.2019 04:08 16,7 C 81 % 1018,1 hPa 0,0 l/m 0,0 km/h N 360 0 min 0,000 mm 0,0 UV-I 0 W/m 13,4 C 16,7 C 0,0 km/h 100,00 %
25.08.2019 04:07 16,7 C 81 % 1018,1 hPa 0,0 l/m 0,0 km/h N 360 0 min 0,000 mm 0,0 UV-I 0 W/m 13,4 C 16,7 C 0,0 km/h 100,00 %
25.08.2019 04:06 16,7 C 81 % 1018,1 hPa 0,0 l/m 0,0 km/h N 360 0 min 0,000 mm 0,0 UV-I 0 W/m 13,4 C 16,7 C 0,0 km/h 100,00 %
25.08.2019 04:05 16,7 C 81 % 1018,1 hPa 0,0 l/m 0,0 km/h N 360 0 min 0,000 mm 0,0 UV-I 0 W/m 13,4 C 16,7 C 0,0 km/h 100,00 %
25.08.2019 04:04 16,6 C 81 % 1018,1 hPa 0,0 l/m 0,0 km/h N 360 0 min 0,000 mm 0,0 UV-I 0 W/m 13,3 C 16,6 C 0,0 km/h 100,00 %
25.08.2019 04:03 16,6 C 81 % 1018,1 hPa 0,0 l/m 0,0 km/h N 360 0 min 0,000 mm 0,0 UV-I 0 W/m 13,3 C 16,6 C 0,0 km/h 100,00 %
25.08.2019 04:02 16,7 C 81 % 1018,1 hPa 0,0 l/m 0,0 km/h N 360 0 min 0,000 mm 0,0 UV-I 0 W/m 13,4 C 16,7 C 0,0 km/h 100,00 %
25.08.2019 04:01 16,7 C 80 % 1018,1 hPa 0,0 l/m 0,0 km/h N 360 0 min 0,000 mm 0,0 UV-I 0 W/m 13,2 C 16,7 C 0,0 km/h 100,00 %
25.08.2019 04:00 16,7 C 80 % 1018,1 hPa 0,0 l/m 0,0 km/h N 360 0 min 0,026 mm 0,0 UV-I 0 W/m 13,2 C 16,7 C 0,0 km/h 95,65 %
25.08.2019 03:59 16,7 C 81 % 1018,1 hPa 0,0 l/m 0,0 km/h N 360 0 min 0,000 mm 0,0 UV-I 0 W/m 13,4 C 16,7 C 0,0 km/h 100,00 %
25.08.2019 03:58 16,7 C 81 % 1018,1 hPa 0,0 l/m 0,0 km/h N 360 0 min 0,000 mm 0,0 UV-I 0 W/m 13,4 C 16,7 C 0,0 km/h 100,00 %
25.08.2019 03:57 16,8 C 81 % 1018,1 hPa 0,0 l/m 0,0 km/h N 360 0 min 0,000 mm 0,0 UV-I 0 W/m 13,5 C 16,8 C 0,0 km/h 100,00 %
25.08.2019 03:56 16,8 C 81 % 1018,1 hPa 0,0 l/m 0,0 km/h N 360 0 min 0,000 mm 0,0 UV-I 0 W/m 13,5 C 16,8 C 0,0 km/h 95,83 %
25.08.2019 03:55 16,8 C 81 % 1018,1 hPa 0,0 l/m 0,0 km/h N 360 0 min 0,000 mm 0,0 UV-I 0 W/m 13,5 C 16,8 C 0,0 km/h 95,65 %
25.08.2019 03:54 16,8 C 81 % 1018,1 hPa 0,0 l/m 0,0 km/h N 360 0 min 0,000 mm 0,0 UV-I 0 W/m 13,5 C 16,8 C 0,0 km/h 100,00 %
25.08.2019 03:53 16,8 C 81 % 1018,0 hPa 0,0 l/m 0,0 km/h N 360 0 min 0,000 mm 0,0 UV-I 0 W/m 13,5 C 16,8 C 0,0 km/h 100,00 %
25.08.2019 03:52 16,8 C 81 % 1018,0 hPa 0,0 l/m 0,0 km/h N 360 0 min 0,000 mm 0,0 UV-I 0 W/m 13,5 C 16,8 C 0,0 km/h 100,00 %
25.08.2019 03:51 16,8 C 80 % 1018,0 hPa 0,0 l/m 0,0 km/h N 360 0 min 0,000 mm 0,0 UV-I 0 W/m 13,3 C 16,8 C 0,0 km/h 100,00 %
25.08.2019 03:50 16,8 C 80 % 1018,0 hPa 0,0 l/m 0,0 km/h N 360 0 min 0,000 mm 0,0 UV-I 0 W/m 13,3 C 16,8 C 0,0 km/h 100,00 %
25.08.2019 03:49 16,8 C 80 % 1018,0 hPa 0,0 l/m 0,0 km/h N 360 0 min 0,000 mm 0,0 UV-I 0 W/m 13,3 C 16,8 C 0,0 km/h 95,65 %
25.08.2019 03:48 16,8 C 80 % 1018,0 hPa 0,0 l/m 0,0 km/h N 360 0 min 0,000 mm 0,0 UV-I 0 W/m 13,3 C 16,8 C 0,0 km/h 100,00 %
25.08.2019 03:47 16,8 C 80 % 1018,0 hPa 0,0 l/m 0,0 km/h N 360 0 min 0,000 mm 0,0 UV-I 0 W/m 13,3 C 16,8 C 0,0 km/h 100,00 %
25.08.2019 03:46 16,8 C 80 % 1018,0 hPa 0,0 l/m 0,0 km/h N 360 0 min 0,000 mm 0,0 UV-I 0 W/m 13,3 C 16,8 C 0,0 km/h 100,00 %
25.08.2019 03:45 16,8 C 80 % 1018,0 hPa 0,0 l/m 0,0 km/h N 360 0 min 0,000 mm 0,0 UV-I 0 W/m 13,3 C 16,8 C 0,0 km/h 100,00 %
25.08.2019 03:44 16,9 C 79 % 1018,0 hPa 0,0 l/m 0,0 km/h N 360 0 min 0,000 mm 0,0 UV-I 0 W/m 13,2 C 16,9 C 0,0 km/h 100,00 %
25.08.2019 03:43 16,9 C 79 % 1018,0 hPa 0,0 l/m 0,0 km/h N 360 0 min 0,000 mm 0,0 UV-I 0 W/m 13,2 C 16,9 C 0,0 km/h 95,65 %
25.08.2019 03:42 17,0 C 79 % 1018,0 hPa 0,0 l/m 0,0 km/h N 360 0 min 0,000 mm 0,0 UV-I 0 W/m 13,3 C 17,0 C 0,0 km/h 100,00 %
25.08.2019 03:41 17,0 C 79 % 1018,0 hPa 0,0 l/m 0,0 km/h N 360 0 min 0,000 mm 0,0 UV-I 0 W/m 13,3 C 17,0 C 0,0 km/h 100,00 %
25.08.2019 03:40 17,0 C 79 % 1018,0 hPa 0,0 l/m 0,0 km/h N 360 0 min 0,000 mm 0,0 UV-I 0 W/m 13,3 C 17,0 C 0,0 km/h 100,00 %
25.08.2019 03:39 17,1 C 79 % 1018,0 hPa 0,0 l/m 0,0 km/h N 360 0 min 0,000 mm 0,0 UV-I 0 W/m 13,4 C 17,1 C 0,0 km/h 100,00 %
25.08.2019 03:38 17,1 C 79 % 1018,0 hPa 0,0 l/m 0,0 km/h N 360 0 min 0,000 mm 0,0 UV-I 0 W/m 13,4 C 17,1 C 0,0 km/h 100,00 %
25.08.2019 03:37 17,1 C 79 % 1018,0 hPa 0,0 l/m 0,0 km/h N 360 0 min 0,000 mm 0,0 UV-I 0 W/m 13,4 C 17,1 C 0,0 km/h 95,65 %
25.08.2019 03:36 17,1 C 79 % 1018,0 hPa 0,0 l/m 0,0 km/h N 360 0 min 0,000 mm 0,0 UV-I 0 W/m 13,4 C 17,1 C 0,0 km/h 100,00 %
25.08.2019 03:35 17,2 C 79 % 1018,0 hPa 0,0 l/m 0,0 km/h N 360 0 min 0,000 mm 0,0 UV-I 0 W/m 13,5 C 17,2 C 0,0 km/h 100,00 %
25.08.2019 03:34 17,2 C 79 % 1018,0 hPa 0,0 l/m 0,0 km/h N 360 0 min 0,000 mm 0,0 UV-I 0 W/m 13,5 C 17,2 C 0,0 km/h 100,00 %
25.08.2019 03:33 17,2 C 79 % 1018,0 hPa 0,0 l/m 0,0 km/h N 360 0 min 0,000 mm 0,0 UV-I 0 W/m 13,5 C 17,2 C 0,0 km/h 100,00 %
25.08.2019 03:32 17,2 C 79 % 1018,0 hPa 0,0 l/m 0,0 km/h N 360 0 min 0,000 mm 0,0 UV-I 0 W/m 13,5 C 17,2 C 0,0 km/h 100,00 %
25.08.2019 03:31 17,2 C 79 % 1018,1 hPa 0,0 l/m 0,0 km/h N 360 0 min 0,000 mm 0,0 UV-I 0 W/m 13,5 C 17,2 C 0,0 km/h 100,00 %
25.08.2019 03:30 17,2 C 80 % 1018,0 hPa 0,0 l/m 0,0 km/h N 360 0 min 0,000 mm 0,0 UV-I 0 W/m 13,7 C 17,2 C 0,0 km/h 100,00 %
25.08.2019 03:29 17,2 C 80 % 1018,0 hPa 0,0 l/m 0,0 km/h N 360 0 min 0,000 mm 0,0 UV-I 0 W/m 13,7 C 17,2 C 0,0 km/h 100,00 %
25.08.2019 03:28 17,2 C 79 % 1018,0 hPa 0,0 l/m 0,0 km/h N 360 0 min 0,000 mm 0,0 UV-I 0 W/m 13,5 C 17,2 C 0,0 km/h 100,00 %
25.08.2019 03:27 17,2 C 80 % 1018,0 hPa 0,0 l/m 0,0 km/h N 360 0 min 0,000 mm 0,0 UV-I 0 W/m 13,7 C 17,2 C 0,0 km/h 100,00 %
25.08.2019 03:26 17,2 C 80 % 1018,0 hPa 0,0 l/m 0,0 km/h N 360 0 min 0,000 mm 0,0 UV-I 0 W/m 13,7 C 17,2 C 0,0 km/h 100,00 %
25.08.2019 03:25 17,2 C 80 % 1018,0 hPa 0,0 l/m 0,0 km/h N 360 0 min 0,000 mm 0,0 UV-I 0 W/m 13,7 C 17,2 C 0,0 km/h 100,00 %
25.08.2019 03:24 17,2 C 80 % 1018,0 hPa 0,0 l/m 0,0 km/h N 360 0 min 0,000 mm 0,0 UV-I 0 W/m 13,7 C 17,2 C 0,0 km/h 100,00 %
25.08.2019 03:23 17,2 C 80 % 1018,0 hPa 0,0 l/m 0,0 km/h N 360 0 min 0,000 mm 0,0 UV-I 0 W/m 13,7 C 17,2 C 0,0 km/h 100,00 %
25.08.2019 03:22 17,2 C 80 % 1018,0 hPa 0,0 l/m 0,0 km/h N 360 0 min 0,000 mm 0,0 UV-I 0 W/m 13,7 C 17,2 C 0,0 km/h 100,00 %
25.08.2019 03:21 17,1 C 80 % 1018,0 hPa 0,0 l/m 0,0 km/h N 360 0 min 0,000 mm 0,0 UV-I 0 W/m 13,6 C 17,1 C 0,0 km/h 100,00 %
25.08.2019 03:20 17,1 C 79 % 1018,0 hPa 0,0 l/m 0,0 km/h N 360 0 min 0,000 mm 0,0 UV-I 0 W/m 13,4 C 17,1 C 0,0 km/h 95,65 %
25.08.2019 03:19 17,1 C 80 % 1018,0 hPa 0,0 l/m 0,0 km/h N 360 0 min 0,000 mm 0,0 UV-I 0 W/m 13,6 C 17,1 C 0,0 km/h 100,00 %
25.08.2019 03:18 17,1 C 79 % 1018,0 hPa 0,0 l/m 0,0 km/h N 360 0 min 0,000 mm 0,0 UV-I 0 W/m 13,4 C 17,1 C 0,0 km/h 100,00 %
25.08.2019 03:17 17,1 C 79 % 1018,0 hPa 0,0 l/m 0,0 km/h N 360 0 min 0,000 mm 0,0 UV-I 0 W/m 13,4 C 17,1 C 0,0 km/h 100,00 %
25.08.2019 03:16 17,1 C 79 % 1018,0 hPa 0,0 l/m 0,0 km/h N 360 0 min 0,000 mm 0,0 UV-I 0 W/m 13,4 C 17,1 C 0,0 km/h 100,00 %
25.08.2019 03:15 17,1 C 80 % 1018,0 hPa 0,0 l/m 0,0 km/h N 360 0 min 0,000 mm 0,0 UV-I 0 W/m 13,6 C 17,1 C 0,0 km/h 100,00 %
25.08.2019 03:14 17,2 C 80 % 1018,0 hPa 0,0 l/m 0,0 km/h N 360 0 min 0,000 mm 0,0 UV-I 0 W/m 13,7 C 17,2 C 0,0 km/h 100,00 %
25.08.2019 03:13 17,2 C 80 % 1018,0 hPa 0,0 l/m 0,0 km/h N 360 0 min 0,000 mm 0,0 UV-I 0 W/m 13,7 C 17,2 C 0,0 km/h 100,00 %
25.08.2019 03:12 17,1 C 80 % 1018,0 hPa 0,0 l/m 0,0 km/h N 360 0 min 0,000 mm 0,0 UV-I 0 W/m 13,6 C 17,1 C 0,0 km/h 100,00 %
25.08.2019 03:11 17,1 C 80 % 1018,0 hPa 0,0 l/m 0,0 km/h N 360 0 min 0,000 mm 0,0 UV-I 0 W/m 13,6 C 17,1 C 0,0 km/h 100,00 %
25.08.2019 03:10 17,1 C 80 % 1018,0 hPa 0,0 l/m 0,0 km/h N 360 0 min 0,000 mm 0,0 UV-I 0 W/m 13,6 C 17,1 C 0,0 km/h 100,00 %
25.08.2019 03:09 17,1 C 79 % 1018,1 hPa 0,0 l/m 0,0 km/h N 360 0 min 0,000 mm 0,0 UV-I 0 W/m 13,4 C 17,1 C 0,0 km/h 95,65 %
25.08.2019 03:08 17,1 C 79 % 1018,0 hPa 0,0 l/m 0,0 km/h N 360 0 min 0,000 mm 0,0 UV-I 0 W/m 13,4 C 17,1 C 0,0 km/h 100,00 %
25.08.2019 03:07 17,1 C 79 % 1018,0 hPa 0,0 l/m 0,0 km/h N 360 0 min 0,000 mm 0,0 UV-I 0 W/m 13,4 C 17,1 C 0,0 km/h 100,00 %
25.08.2019 03:06 17,1 C 80 % 1018,0 hPa 0,0 l/m 0,0 km/h N 360 0 min 0,000 mm 0,0 UV-I 0 W/m 13,6 C 17,1 C 0,0 km/h 100,00 %
25.08.2019 03:05 17,1 C 80 % 1018,0 hPa 0,0 l/m 0,0 km/h N 360 0 min 0,000 mm 0,0 UV-I 0 W/m 13,6 C 17,1 C 0,0 km/h 100,00 %
25.08.2019 03:04 17,1 C 80 % 1018,0 hPa 0,0 l/m 0,0 km/h N 360 0 min 0,000 mm 0,0 UV-I 0 W/m 13,6 C 17,1 C 0,0 km/h 95,83 %
25.08.2019 03:03 17,1 C 79 % 1017,9 hPa 0,0 l/m 0,0 km/h N 360 0 min 0,000 mm 0,0 UV-I 0 W/m 13,4 C 17,1 C 0,0 km/h 100,00 %
25.08.2019 03:02 17,1 C 79 % 1018,0 hPa 0,0 l/m 0,0 km/h N 360 0 min 0,000 mm 0,0 UV-I 0 W/m 13,4 C 17,1 C 0,0 km/h 100,00 %
25.08.2019 03:01 17,1 C 79 % 1018,0 hPa 0,0 l/m 0,0 km/h N 360 0 min 0,000 mm 0,0 UV-I 0 W/m 13,4 C 17,1 C 0,0 km/h 100,00 %
25.08.2019 03:00 17,1 C 79 % 1018,0 hPa 0,0 l/m 0,0 km/h N 360 0 min 0,025 mm 0,0 UV-I 0 W/m 13,4 C 17,1 C 0,0 km/h 100,00 %
25.08.2019 02:59 17,1 C 79 % 1017,9 hPa 0,0 l/m 0,0 km/h N 360 0 min 0,000 mm 0,0 UV-I 0 W/m 13,4 C 17,1 C 0,0 km/h 100,00 %
25.08.2019 02:58 17,2 C 79 % 1017,9 hPa 0,0 l/m 0,0 km/h N 360 0 min 0,000 mm 0,0 UV-I 0 W/m 13,5 C 17,2 C 0,0 km/h 100,00 %
25.08.2019 02:57 17,2 C 79 % 1017,9 hPa 0,0 l/m 0,0 km/h N 360 0 min 0,000 mm 0,0 UV-I 0 W/m 13,5 C 17,2 C 0,0 km/h 100,00 %
25.08.2019 02:56 17,2 C 79 % 1017,9 hPa 0,0 l/m 0,0 km/h N 360 0 min 0,000 mm 0,0 UV-I 0 W/m 13,5 C 17,2 C 0,0 km/h 100,00 %
25.08.2019 02:55 17,2 C 79 % 1018,0 hPa 0,0 l/m 0,0 km/h N 360 0 min 0,000 mm 0,0 UV-I 0 W/m 13,5 C 17,2 C 0,0 km/h 100,00 %
25.08.2019 02:54 17,2 C 79 % 1018,0 hPa 0,0 l/m 0,0 km/h N 360 0 min 0,000 mm 0,0 UV-I 0 W/m 13,5 C 17,2 C 0,0 km/h 100,00 %
25.08.2019 02:53 17,2 C 79 % 1018,0 hPa 0,0 l/m 0,0 km/h N 360 0 min 0,000 mm 0,0 UV-I 0 W/m 13,5 C 17,2 C 0,0 km/h 100,00 %
25.08.2019 02:52 17,2 C 79 % 1018,0 hPa 0,0 l/m 0,0 km/h N 360 0 min 0,000 mm 0,0 UV-I 0 W/m 13,5 C 17,2 C 0,0 km/h 100,00 %
25.08.2019 02:51 17,2 C 79 % 1018,0 hPa 0,0 l/m 0,0 km/h N 360 0 min 0,000 mm 0,0 UV-I 0 W/m 13,5 C 17,2 C 0,0 km/h 100,00 %
25.08.2019 02:50 17,2 C 79 % 1017,9 hPa 0,0 l/m 0,0 km/h N 360 0 min 0,000 mm 0,0 UV-I 0 W/m 13,5 C 17,2 C 0,0 km/h 100,00 %
25.08.2019 02:49 17,2 C 79 % 1018,0 hPa 0,0 l/m 0,0 km/h N 360 0 min 0,000 mm 0,0 UV-I 0 W/m 13,5 C 17,2 C 0,0 km/h 100,00 %
25.08.2019 02:48 17,3 C 79 % 1018,0 hPa 0,0 l/m 0,0 km/h N 360 0 min 0,000 mm 0,0 UV-I 0 W/m 13,6 C 17,3 C 0,0 km/h 100,00 %
25.08.2019 02:47 17,3 C 79 % 1018,0 hPa 0,0 l/m 0,0 km/h N 360 0 min 0,000 mm 0,0 UV-I 0 W/m 13,6 C 17,3 C 0,0 km/h 100,00 %
25.08.2019 02:46 17,3 C 79 % 1018,0 hPa 0,0 l/m 0,0 km/h N 360 0 min 0,000 mm 0,0 UV-I 0 W/m 13,6 C 17,3 C 0,0 km/h 95,65 %
25.08.2019 02:45 17,3 C 79 % 1018,0 hPa 0,0 l/m 0,0 km/h N 360 0 min 0,000 mm 0,0 UV-I 0 W/m 13,6 C 17,3 C 0,0 km/h 100,00 %
25.08.2019 02:44 17,3 C 79 % 1018,0 hPa 0,0 l/m 0,0 km/h N 360 0 min 0,000 mm 0,0 UV-I 0 W/m 13,6 C 17,3 C 0,0 km/h 100,00 %
25.08.2019 02:43 17,3 C 79 % 1018,0 hPa 0,0 l/m 0,0 km/h N 360 0 min 0,000 mm 0,0 UV-I 0 W/m 13,6 C 17,3 C 0,0 km/h 100,00 %
25.08.2019 02:42 17,3 C 79 % 1018,0 hPa 0,0 l/m 0,0 km/h N 360 0 min 0,000 mm 0,0 UV-I 0 W/m 13,6 C 17,3 C 0,0 km/h 100,00 %
25.08.2019 02:41 17,3 C 79 % 1018,0 hPa 0,0 l/m 0,0 km/h N 360 0 min 0,000 mm 0,0 UV-I 0 W/m 13,6 C 17,3 C 0,0 km/h 91,67 %
25.08.2019 02:40 17,3 C 79 % 1018,0 hPa 0,0 l/m 0,0 km/h N 360 0 min 0,000 mm 0,0 UV-I 0 W/m 13,6 C 17,3 C 0,0 km/h 97,37 %
25.08.2019 02:39 17,3 C 78 % 1018,0 hPa 0,0 l/m 0,0 km/h N 360 0 min 0,000 mm 0,0 UV-I 0 W/m 13,4 C 17,3 C 0,0 km/h 100,00 %
25.08.2019 02:38 17,3 C 78 % 1018,0 hPa 0,0 l/m 0,0 km/h N 360 0 min 0,000 mm 0,0 UV-I 0 W/m 13,4 C 17,3 C 0,0 km/h 100,00 %
25.08.2019 02:37 17,3 C 78 % 1018,0 hPa 0,0 l/m 0,0 km/h N 360 0 min 0,000 mm 0,0 UV-I 0 W/m 13,4 C 17,3 C 0,0 km/h 95,65 %
25.08.2019 02:36 17,4 C 78 % 1018,0 hPa 0,0 l/m 0,0 km/h N 360 0 min 0,000 mm 0,0 UV-I 0 W/m 13,5 C 17,4 C 0,0 km/h 95,83 %
25.08.2019 02:35 17,4 C 78 % 1018,0 hPa 0,0 l/m 0,0 km/h N 360 0 min 0,000 mm 0,0 UV-I 0 W/m 13,5 C 17,4 C 0,0 km/h 100,00 %
25.08.2019 02:34 17,4 C 78 % 1018,0 hPa 0,0 l/m 0,0 km/h N 360 0 min 0,000 mm 0,0 UV-I 0 W/m 13,5 C 17,4 C 0,0 km/h 97,37 %
25.08.2019 02:33 17,4 C 78 % 1018,0 hPa 0,0 l/m 0,0 km/h N 360 0 min 0,000 mm 0,0 UV-I 0 W/m 13,5 C 17,4 C 0,0 km/h 100,00 %
25.08.2019 02:32 17,4 C 78 % 1018,0 hPa 0,0 l/m 0,0 km/h N 360 0 min 0,000 mm 0,0 UV-I 0 W/m 13,5 C 17,4 C 0,0 km/h 91,67 %
25.08.2019 02:31 17,4 C 78 % 1018,0 hPa 0,0 l/m 0,0 km/h N 360 0 min 0,000 mm 0,0 UV-I 0 W/m 13,5 C 17,4 C 0,0 km/h 100,00 %
25.08.2019 02:30 17,5 C 79 % 1018,0 hPa 0,0 l/m 0,0 km/h N 360 0 min 0,000 mm 0,0 UV-I 0 W/m 13,8 C 17,5 C 0,0 km/h 95,65 %
25.08.2019 02:29 17,4 C 79 % 1018,0 hPa 0,0 l/m 0,0 km/h N 360 0 min 0,000 mm 0,0 UV-I 0 W/m 13,7 C 17,4 C 0,0 km/h 100,00 %
25.08.2019 02:28 17,4 C 79 % 1018,0 hPa 0,0 l/m 0,0 km/h N 360 0 min 0,000 mm 0,0 UV-I 0 W/m 13,7 C 17,4 C 0,0 km/h 95,65 %
25.08.2019 02:27 17,4 C 78 % 1018,0 hPa 0,0 l/m 0,0 km/h N 360 0 min 0,000 mm 0,0 UV-I 0 W/m 13,5 C 17,4 C 0,0 km/h 95,83 %
25.08.2019 02:26 17,4 C 78 % 1018,0 hPa 0,0 l/m 0,0 km/h N 360 0 min 0,000 mm 0,0 UV-I 0 W/m 13,5 C 17,4 C 0,0 km/h 100,00 %
25.08.2019 02:25 17,4 C 78 % 1018,0 hPa 0,0 l/m 0,0 km/h N 360 0 min 0,000 mm 0,0 UV-I 0 W/m 13,5 C 17,4 C 0,0 km/h 95,83 %
25.08.2019 02:24 17,4 C 78 % 1018,0 hPa 0,0 l/m 0,0 km/h N 360 0 min 0,000 mm 0,0 UV-I 0 W/m 13,5 C 17,4 C 0,0 km/h 100,00 %
25.08.2019 02:23 17,4 C 78 % 1018,0 hPa 0,0 l/m 0,0 km/h N 360 0 min 0,000 mm 0,0 UV-I 0 W/m 13,5 C 17,4 C 0,0 km/h 95,83 %
25.08.2019 02:22 17,4 C 78 % 1018,0 hPa 0,0 l/m 0,0 km/h N 360 0 min 0,000 mm 0,0 UV-I 0 W/m 13,5 C 17,4 C 0,0 km/h 100,00 %
25.08.2019 02:21 17,5 C 78 % 1018,0 hPa 0,0 l/m 0,0 km/h N 360 0 min 0,000 mm 0,0 UV-I 0 W/m 13,6 C 17,5 C 0,0 km/h 95,83 %
25.08.2019 02:20 17,5 C 78 % 1018,0 hPa 0,0 l/m 0,0 km/h N 360 0 min 0,000 mm 0,0 UV-I 0 W/m 13,6 C 17,5 C 0,0 km/h 95,65 %
25.08.2019 02:19 17,5 C 78 % 1018,0 hPa 0,0 l/m 0,0 km/h N 360 0 min 0,000 mm 0,0 UV-I 0 W/m 13,6 C 17,5 C 0,0 km/h 100,00 %
25.08.2019 02:18 17,5 C 78 % 1018,0 hPa 0,0 l/m 0,0 km/h N 360 0 min 0,000 mm 0,0 UV-I 0 W/m 13,6 C 17,5 C 0,0 km/h 96,15 %
25.08.2019 02:17 17,5 C 78 % 1018,0 hPa 0,0 l/m 0,0 km/h N 360 0 min 0,000 mm 0,0 UV-I 0 W/m 13,6 C 17,5 C 0,0 km/h 100,00 %
25.08.2019 02:16 17,5 C 78 % 1018,1 hPa 0,0 l/m 0,0 km/h N 360 0 min 0,000 mm 0,0 UV-I 0 W/m 13,6 C 17,5 C 0,0 km/h 92,86 %
25.08.2019 02:15 17,6 C 77 % 1018,0 hPa 0,0 l/m 0,0 km/h N 360 0 min 0,000 mm 0,0 UV-I 0 W/m 13,5 C 17,6 C 0,0 km/h 100,00 %
25.08.2019 02:14 17,6 C 78 % 1018,0 hPa 0,0 l/m 0,0 km/h N 360 0 min 0,000 mm 0,0 UV-I 0 W/m 13,7 C 17,6 C 0,0 km/h 96,15 %
25.08.2019 02:13 17,6 C 78 % 1018,1 hPa 0,0 l/m 0,0 km/h N 360 0 min 0,000 mm 0,0 UV-I 0 W/m 13,7 C 17,6 C 0,0 km/h 100,00 %
25.08.2019 02:12 17,6 C 78 % 1018,1 hPa 0,0 l/m 0,0 km/h N 360 0 min 0,000 mm 0,0 UV-I 0 W/m 13,7 C 17,6 C 0,0 km/h 95,65 %
25.08.2019 02:11 17,6 C 77 % 1018,1 hPa 0,0 l/m 0,0 km/h N 360 0 min 0,000 mm 0,0 UV-I 0 W/m 13,5 C 17,6 C 0,0 km/h 100,00 %
25.08.2019 02:10 17,7 C 78 % 1018,1 hPa 0,0 l/m 0,0 km/h N 360 0 min 0,000 mm 0,0 UV-I 0 W/m 13,8 C 17,7 C 0,0 km/h 95,12 %
25.08.2019 02:09 17,7 C 78 % 1018,1 hPa 0,0 l/m 0,0 km/h N 360 0 min 0,000 mm 0,0 UV-I 0 W/m 13,8 C 17,7 C 0,0 km/h 92,31 %
25.08.2019 02:08 17,7 C 78 % 1018,2 hPa 0,0 l/m 0,0 km/h N 360 0 min 0,000 mm 0,0 UV-I 0 W/m 13,8 C 17,7 C 0,0 km/h 100,00 %
25.08.2019 02:07 17,7 C 78 % 1018,1 hPa 0,0 l/m 0,0 km/h N 360 0 min 0,000 mm 0,0 UV-I 0 W/m 13,8 C 17,7 C 0,0 km/h 95,83 %
25.08.2019 02:06 17,7 C 78 % 1018,2 hPa 0,0 l/m 0,0 km/h N 360 0 min 0,000 mm 0,0 UV-I 0 W/m 13,8 C 17,7 C 0,0 km/h 100,00 %
25.08.2019 02:05 17,7 C 78 % 1018,2 hPa 0,0 l/m 0,0 km/h N 360 0 min 0,000 mm 0,0 UV-I 0 W/m 13,8 C 17,7 C 0,0 km/h 95,65 %
25.08.2019 02:04 17,7 C 78 % 1018,2 hPa 0,0 l/m 0,0 km/h N 360 0 min 0,000 mm 0,0 UV-I 0 W/m 13,8 C 17,7 C 0,0 km/h 100,00 %
25.08.2019 02:03 17,7 C 78 % 1018,2 hPa 0,0 l/m 0,0 km/h N 360 0 min 0,000 mm 0,0 UV-I 0 W/m 13,8 C 17,7 C 0,0 km/h 91,30 %
25.08.2019 02:02 17,7 C 78 % 1018,2 hPa 0,0 l/m 0,0 km/h N 360 0 min 0,000 mm 0,0 UV-I 0 W/m 13,8 C 17,7 C 0,0 km/h 96,30 %
25.08.2019 02:01 17,7 C 78 % 1018,2 hPa 0,0 l/m 0,0 km/h N 360 0 min 0,000 mm 0,0 UV-I 0 W/m 13,8 C 17,7 C 0,0 km/h 100,00 %
25.08.2019 02:00 17,7 C 78 % 1018,2 hPa 0,0 l/m 0,0 km/h N 360 0 min 0,026 mm 0,0 UV-I 0 W/m 13,8 C 17,7 C 0,0 km/h 95,83 %
25.08.2019 01:59 17,7 C 78 % 1018,2 hPa 0,0 l/m 0,0 km/h N 360 0 min 0,000 mm 0,0 UV-I 0 W/m 13,8 C 17,7 C 0,0 km/h 100,00 %
25.08.2019 01:58 17,6 C 78 % 1018,2 hPa 0,0 l/m 0,0 km/h N 360 0 min 0,000 mm 0,0 UV-I 0 W/m 13,7 C 17,6 C 0,0 km/h 95,83 %
25.08.2019 01:57 17,6 C 78 % 1018,2 hPa 0,0 l/m 0,0 km/h N 360 0 min 0,000 mm 0,0 UV-I 0 W/m 13,7 C 17,6 C 0,0 km/h 100,00 %
25.08.2019 01:56 17,6 C 77 % 1018,2 hPa 0,0 l/m 0,0 km/h N 360 0 min 0,000 mm 0,0 UV-I 0 W/m 13,5 C 17,6 C 0,0 km/h 95,83 %
25.08.2019 01:55 17,6 C 77 % 1018,2 hPa 0,0 l/m 0,0 km/h N 360 0 min 0,000 mm 0,0 UV-I 0 W/m 13,5 C 17,6 C 0,0 km/h 100,00 %
25.08.2019 01:54 17,6 C 77 % 1018,2 hPa 0,0 l/m 0,0 km/h N 360 0 min 0,000 mm 0,0 UV-I 0 W/m 13,5 C 17,6 C 0,0 km/h 91,30 %
25.08.2019 01:53 17,6 C 77 % 1018,2 hPa 0,0 l/m 0,0 km/h N 360 0 min 0,000 mm 0,0 UV-I 0 W/m 13,5 C 17,6 C 0,0 km/h 100,00 %
25.08.2019 01:52 17,7 C 77 % 1018,3 hPa 0,0 l/m 0,0 km/h N 360 0 min 0,000 mm 0,0 UV-I 0 W/m 13,6 C 17,7 C 0,0 km/h 100,00 %
25.08.2019 01:51 17,7 C 77 % 1018,3 hPa 0,0 l/m 0,0 km/h N 360 0 min 0,000 mm 0,0 UV-I 0 W/m 13,6 C 17,7 C 0,0 km/h 100,00 %
25.08.2019 01:50 17,7 C 77 % 1018,2 hPa 0,0 l/m 0,0 km/h N 360 0 min 0,000 mm 0,0 UV-I 0 W/m 13,6 C 17,7 C 0,0 km/h 100,00 %
25.08.2019 01:49 17,7 C 76 % 1018,3 hPa 0,0 l/m 0,0 km/h N 360 0 min 0,000 mm 0,0 UV-I 0 W/m 13,4 C 17,7 C 0,0 km/h 100,00 %
25.08.2019 01:48 17,7 C 76 % 1018,3 hPa 0,0 l/m 0,0 km/h N 360 0 min 0,000 mm 0,0 UV-I 0 W/m 13,4 C 17,7 C 0,0 km/h 100,00 %
25.08.2019 01:47 17,7 C 76 % 1018,3 hPa 0,0 l/m 0,0 km/h N 360 0 min 0,000 mm 0,0 UV-I 0 W/m 13,4 C 17,7 C 0,0 km/h 100,00 %
25.08.2019 01:46 17,7 C 76 % 1018,3 hPa 0,0 l/m 0,0 km/h N 360 0 min 0,000 mm 0,0 UV-I 0 W/m 13,4 C 17,7 C 0,0 km/h 95,65 %
25.08.2019 01:45 17,8 C 76 % 1018,2 hPa 0,0 l/m 0,0 km/h N 360 0 min 0,000 mm 0,0 UV-I 0 W/m 13,5 C 17,8 C 0,0 km/h 95,83 %
25.08.2019 01:44 17,8 C 76 % 1018,2 hPa 0,0 l/m 0,0 km/h N 360 0 min 0,000 mm 0,0 UV-I 0 W/m 13,5 C 17,8 C 0,0 km/h 100,00 %
25.08.2019 01:43 17,8 C 76 % 1018,2 hPa 0,0 l/m 0,0 km/h N 360 0 min 0,000 mm 0,0 UV-I 0 W/m 13,5 C 17,8 C 0,0 km/h 100,00 %
25.08.2019 01:42 17,9 C 76 % 1018,2 hPa 0,0 l/m 0,0 km/h N 360 0 min 0,000 mm 0,0 UV-I 0 W/m 13,6 C 17,9 C 0,0 km/h 100,00 %
25.08.2019 01:41 17,9 C 76 % 1018,2 hPa 0,0 l/m 0,0 km/h N 360 0 min 0,000 mm 0,0 UV-I 0 W/m 13,6 C 17,9 C 0,0 km/h 100,00 %
25.08.2019 01:40 17,9 C 76 % 1018,2 hPa 0,0 l/m 0,0 km/h N 360 0 min 0,000 mm 0,0 UV-I 0 W/m 13,6 C 17,9 C 0,0 km/h 100,00 %
25.08.2019 01:39 17,9 C 76 % 1018,2 hPa 0,0 l/m 0,0 km/h N 360 0 min 0,000 mm 0,0 UV-I 0 W/m 13,6 C 17,9 C 0,0 km/h 100,00 %
25.08.2019 01:38 17,9 C 75 % 1018,2 hPa 0,0 l/m 0,0 km/h N 360 0 min 0,000 mm 0,0 UV-I 0 W/m 13,4 C 17,9 C 0,0 km/h 100,00 %
25.08.2019 01:37 18,0 C 75 % 1018,3 hPa 0,0 l/m 0,0 km/h N 360 0 min 0,000 mm 0,0 UV-I 0 W/m 13,5 C 18,0 C 0,0 km/h 95,83 %
25.08.2019 01:36 18,0 C 75 % 1018,3 hPa 0,0 l/m 0,0 km/h N 360 0 min 0,000 mm 0,0 UV-I 0 W/m 13,5 C 18,0 C 0,0 km/h 100,00 %
25.08.2019 01:35 18,0 C 75 % 1018,3 hPa 0,0 l/m 0,0 km/h N 360 0 min 0,000 mm 0,0 UV-I 0 W/m 13,5 C 18,0 C 0,0 km/h 100,00 %
25.08.2019 01:34 18,1 C 75 % 1018,3 hPa 0,0 l/m 0,0 km/h N 360 0 min 0,000 mm 0,0 UV-I 0 W/m 13,6 C 18,1 C 0,0 km/h 100,00 %
25.08.2019 01:33 18,1 C 75 % 1018,3 hPa 0,0 l/m 0,0 km/h N 360 0 min 0,000 mm 0,0 UV-I 0 W/m 13,6 C 18,1 C 0,0 km/h 100,00 %
25.08.2019 01:32 18,1 C 75 % 1018,2 hPa 0,0 l/m 0,0 km/h N 360 0 min 0,000 mm 0,0 UV-I 0 W/m 13,6 C 18,1 C 0,0 km/h 100,00 %
25.08.2019 01:31 18,1 C 76 % 1018,3 hPa 0,0 l/m 0,0 km/h N 360 0 min 0,000 mm 0,0 UV-I 0 W/m 13,8 C 18,1 C 0,0 km/h 100,00 %
25.08.2019 01:30 18,1 C 76 % 1018,3 hPa 0,0 l/m 0,0 km/h N 360 0 min 0,000 mm 0,0 UV-I 0 W/m 13,8 C 18,1 C 0,0 km/h 100,00 %
25.08.2019 01:29 18,1 C 76 % 1018,2 hPa 0,0 l/m 0,0 km/h N 360 0 min 0,000 mm 0,0 UV-I 0 W/m 13,8 C 18,1 C 0,0 km/h 100,00 %
25.08.2019 01:28 18,1 C 76 % 1018,2 hPa 0,0 l/m 0,0 km/h N 360 0 min 0,000 mm 0,0 UV-I 0 W/m 13,8 C 18,1 C 0,0 km/h 100,00 %
25.08.2019 01:27 18,1 C 76 % 1018,3 hPa 0,0 l/m 0,0 km/h N 360 0 min 0,000 mm 0,0 UV-I 0 W/m 13,8 C 18,1 C 0,0 km/h 100,00 %
25.08.2019 01:26 18,1 C 76 % 1018,2 hPa 0,0 l/m 0,0 km/h N 360 0 min 0,000 mm 0,0 UV-I 0 W/m 13,8 C 18,1 C 0,0 km/h 100,00 %
25.08.2019 01:25 18,1 C 75 % 1018,3 hPa 0,0 l/m 0,0 km/h N 360 0 min 0,000 mm 0,0 UV-I 0 W/m 13,6 C 18,1 C 0,0 km/h 100,00 %
25.08.2019 01:24 18,1 C 75 % 1018,3 hPa 0,0 l/m 0,0 km/h N 360 0 min 0,000 mm 0,0 UV-I 0 W/m 13,6 C 18,1 C 0,0 km/h 100,00 %
25.08.2019 01:23 18,1 C 75 % 1018,3 hPa 0,0 l/m 0,0 km/h N 360 0 min 0,000 mm 0,0 UV-I 0 W/m 13,6 C 18,1 C 0,0 km/h 100,00 %
25.08.2019 01:22 18,1 C 75 % 1018,3 hPa 0,0 l/m 0,0 km/h N 360 0 min 0,000 mm 0,0 UV-I 0 W/m 13,6 C 18,1 C 0,0 km/h 100,00 %
25.08.2019 01:21 18,1 C 76 % 1018,3 hPa 0,0 l/m 0,0 km/h N 360 0 min 0,000 mm 0,0 UV-I 0 W/m 13,8 C 18,1 C 0,0 km/h 100,00 %
25.08.2019 01:20 18,1 C 76 % 1018,3 hPa 0,0 l/m 0,0 km/h N 360 0 min 0,000 mm 0,0 UV-I 0 W/m 13,8 C 18,1 C 0,0 km/h 100,00 %
25.08.2019 01:19 18,1 C 76 % 1018,3 hPa 0,0 l/m 0,0 km/h N 360 0 min 0,000 mm 0,0 UV-I 0 W/m 13,8 C 18,1 C 0,0 km/h 100,00 %
25.08.2019 01:18 18,0 C 76 % 1018,3 hPa 0,0 l/m 0,0 km/h N 360 0 min 0,000 mm 0,0 UV-I 0 W/m 13,7 C 18,0 C 0,0 km/h 100,00 %
25.08.2019 01:17 18,0 C 76 % 1018,3 hPa 0,0 l/m 0,0 km/h N 360 0 min 0,000 mm 0,0 UV-I 0 W/m 13,7 C 18,0 C 0,0 km/h 100,00 %
25.08.2019 01:16 18,0 C 76 % 1018,3 hPa 0,0 l/m 0,0 km/h N 360 0 min 0,000 mm 0,0 UV-I 0 W/m 13,7 C 18,0 C 0,0 km/h 100,00 %
25.08.2019 01:15 18,0 C 76 % 1018,3 hPa 0,0 l/m 0,0 km/h N 360 0 min 0,000 mm 0,0 UV-I 0 W/m 13,7 C 18,0 C 0,0 km/h 100,00 %
25.08.2019 01:14 17,9 C 76 % 1018,3 hPa 0,0 l/m 0,0 km/h N 360 0 min 0,000 mm 0,0 UV-I 0 W/m 13,6 C 17,9 C 0,0 km/h 100,00 %
25.08.2019 01:13 17,9 C 76 % 1018,3 hPa 0,0 l/m 0,0 km/h N 360 0 min 0,000 mm 0,0 UV-I 0 W/m 13,6 C 17,9 C 0,0 km/h 100,00 %
25.08.2019 01:12 17,9 C 76 % 1018,3 hPa 0,0 l/m 0,0 km/h N 360 0 min 0,000 mm 0,0 UV-I 0 W/m 13,6 C 17,9 C 0,0 km/h 100,00 %
25.08.2019 01:11 17,9 C 76 % 1018,4 hPa 0,0 l/m 0,0 km/h N 360 0 min 0,000 mm 0,0 UV-I 0 W/m 13,6 C 17,9 C 0,0 km/h 100,00 %
25.08.2019 01:10 17,9 C 75 % 1018,4 hPa 0,0 l/m 0,0 km/h N 360 0 min 0,000 mm 0,0 UV-I 0 W/m 13,4 C 17,9 C 0,0 km/h 95,65 %
25.08.2019 01:09 17,9 C 75 % 1018,4 hPa 0,0 l/m 0,0 km/h N 360 0 min 0,000 mm 0,0 UV-I 0 W/m 13,4 C 17,9 C 0,0 km/h 100,00 %
25.08.2019 01:08 17,9 C 75 % 1018,3 hPa 0,0 l/m 0,0 km/h N 360 0 min 0,000 mm 0,0 UV-I 0 W/m 13,4 C 17,9 C 0,0 km/h 100,00 %
25.08.2019 01:07 17,9 C 75 % 1018,3 hPa 0,0 l/m 0,0 km/h N 360 0 min 0,000 mm 0,0 UV-I 0 W/m 13,4 C 17,9 C 0,0 km/h 100,00 %
25.08.2019 01:06 17,9 C 75 % 1018,3 hPa 0,0 l/m 0,0 km/h N 360 0 min 0,000 mm 0,0 UV-I 0 W/m 13,4 C 17,9 C 0,0 km/h 100,00 %
25.08.2019 01:05 18,0 C 75 % 1018,3 hPa 0,0 l/m 0,0 km/h N 360 0 min 0,000 mm 0,0 UV-I 0 W/m 13,5 C 18,0 C 0,0 km/h 100,00 %
25.08.2019 01:04 18,0 C 75 % 1018,3 hPa 0,0 l/m 0,0 km/h N 360 0 min 0,000 mm 0,0 UV-I 0 W/m 13,5 C 18,0 C 0,0 km/h 100,00 %
25.08.2019 01:03 18,0 C 75 % 1018,4 hPa 0,0 l/m 0,0 km/h N 360 0 min 0,000 mm 0,0 UV-I 0 W/m 13,5 C 18,0 C 0,0 km/h 100,00 %
25.08.2019 01:02 18,0 C 75 % 1018,3 hPa 0,0 l/m 0,0 km/h N 360 0 min 0,000 mm 0,0 UV-I 0 W/m 13,5 C 18,0 C 0,0 km/h 100,00 %
25.08.2019 01:01 18,1 C 75 % 1018,3 hPa 0,0 l/m 0,0 km/h N 360 0 min 0,000 mm 0,0 UV-I 0 W/m 13,6 C 18,1 C 0,0 km/h 100,00 %
25.08.2019 01:00 18,1 C 75 % 1018,3 hPa 0,0 l/m 0,0 km/h N 360 0 min 0,025 mm 0,0 UV-I 0 W/m 13,6 C 18,1 C 0,0 km/h 95,83 %
25.08.2019 00:59 18,1 C 75 % 1018,4 hPa 0,0 l/m 0,0 km/h N 360 0 min 0,000 mm 0,0 UV-I 0 W/m 13,6 C 18,1 C 0,0 km/h 100,00 %
25.08.2019 00:58 18,1 C 75 % 1018,3 hPa 0,0 l/m 0,0 km/h N 360 0 min 0,000 mm 0,0 UV-I 0 W/m 13,6 C 18,1 C 0,0 km/h 100,00 %
25.08.2019 00:57 18,2 C 75 % 1018,3 hPa 0,0 l/m 0,0 km/h N 360 0 min 0,000 mm 0,0 UV-I 0 W/m 13,7 C 18,2 C 0,0 km/h 100,00 %
25.08.2019 00:56 18,2 C 74 % 1018,3 hPa 0,0 l/m 0,0 km/h N 360 0 min 0,000 mm 0,0 UV-I 0 W/m 13,5 C 18,2 C 0,0 km/h 100,00 %
25.08.2019 00:55 18,2 C 74 % 1018,3 hPa 0,0 l/m 0,0 km/h N 360 0 min 0,000 mm 0,0 UV-I 0 W/m 13,5 C 18,2 C 0,0 km/h 100,00 %
25.08.2019 00:54 18,3 C 74 % 1018,3 hPa 0,0 l/m 0,0 km/h N 360 0 min 0,000 mm 0,0 UV-I 0 W/m 13,6 C 18,3 C 0,0 km/h 100,00 %
25.08.2019 00:53 18,3 C 74 % 1018,3 hPa 0,0 l/m 0,0 km/h N 360 0 min 0,000 mm 0,0 UV-I 0 W/m 13,6 C 18,3 C 0,0 km/h 100,00 %
25.08.2019 00:52 18,3 C 74 % 1018,3 hPa 0,0 l/m 0,0 km/h N 360 0 min 0,000 mm 0,0 UV-I 0 W/m 13,6 C 18,3 C 0,0 km/h 100,00 %
25.08.2019 00:51 18,3 C 74 % 1018,3 hPa 0,0 l/m 0,0 km/h N 360 0 min 0,000 mm 0,0 UV-I 0 W/m 13,6 C 18,3 C 0,0 km/h 100,00 %
25.08.2019 00:50 18,3 C 74 % 1018,3 hPa 0,0 l/m 0,0 km/h N 360 0 min 0,000 mm 0,0 UV-I 0 W/m 13,6 C 18,3 C 0,0 km/h 100,00 %
25.08.2019 00:49 18,4 C 73 % 1018,3 hPa 0,0 l/m 0,0 km/h N 360 0 min 0,000 mm 0,0 UV-I 0 W/m 13,5 C 18,4 C 0,0 km/h 100,00 %
25.08.2019 00:48 18,4 C 73 % 1018,3 hPa 0,0 l/m 0,0 km/h N 360 0 min 0,000 mm 0,0 UV-I 0 W/m 13,5 C 18,4 C 0,0 km/h 100,00 %
25.08.2019 00:47 18,4 C 73 % 1018,3 hPa 0,0 l/m 0,0 km/h N 360 0 min 0,000 mm 0,0 UV-I 0 W/m 13,5 C 18,4 C 0,0 km/h 100,00 %
25.08.2019 00:46 18,4 C 73 % 1018,3 hPa 0,0 l/m 0,0 km/h N 360 0 min 0,000 mm 0,0 UV-I 0 W/m 13,5 C 18,4 C 0,0 km/h 91,67 %
25.08.2019 00:45 18,4 C 73 % 1018,3 hPa 0,0 l/m 0,0 km/h N 360 0 min 0,000 mm 0,0 UV-I 0 W/m 13,5 C 18,4 C 0,0 km/h 100,00 %
25.08.2019 00:44 18,4 C 72 % 1018,3 hPa 0,0 l/m 0,0 km/h N 360 0 min 0,000 mm 0,0 UV-I 0 W/m 13,3 C 18,4 C 0,0 km/h 100,00 %
25.08.2019 00:43 18,5 C 72 % 1018,3 hPa 0,0 l/m 0,0 km/h N 360 0 min 0,000 mm 0,0 UV-I 0 W/m 13,4 C 18,5 C 0,0 km/h 100,00 %
25.08.2019 00:42 18,5 C 72 % 1018,3 hPa 0,0 l/m 0,0 km/h N 360 0 min 0,000 mm 0,0 UV-I 0 W/m 13,4 C 18,5 C 0,0 km/h 100,00 %
25.08.2019 00:41 18,6 C 72 % 1018,3 hPa 0,0 l/m 0,0 km/h N 360 0 min 0,000 mm 0,0 UV-I 0 W/m 13,4 C 18,6 C 0,0 km/h 100,00 %
25.08.2019 00:40 18,6 C 72 % 1018,3 hPa 0,0 l/m 0,0 km/h N 360 0 min 0,000 mm 0,0 UV-I 0 W/m 13,4 C 18,6 C 0,0 km/h 100,00 %
25.08.2019 00:39 18,6 C 72 % 1018,3 hPa 0,0 l/m 0,0 km/h N 360 0 min 0,000 mm 0,0 UV-I 0 W/m 13,4 C 18,6 C 0,0 km/h 100,00 %
25.08.2019 00:38 18,6 C 72 % 1018,3 hPa 0,0 l/m 0,0 km/h N 360 0 min 0,000 mm 0,0 UV-I 0 W/m 13,4 C 18,6 C 0,0 km/h 100,00 %
25.08.2019 00:37 18,7 C 72 % 1018,3 hPa 0,0 l/m 0,0 km/h N 360 0 min 0,000 mm 0,0 UV-I 0 W/m 13,5 C 18,7 C 0,0 km/h 100,00 %
25.08.2019 00:36 18,7 C 72 % 1018,3 hPa 0,0 l/m 0,0 km/h N 360 0 min 0,000 mm 0,0 UV-I 0 W/m 13,5 C 18,7 C 0,0 km/h 95,65 %
25.08.2019 00:35 18,7 C 72 % 1018,3 hPa 0,0 l/m 0,0 km/h N 360 0 min 0,000 mm 0,0 UV-I 0 W/m 13,5 C 18,7 C 0,0 km/h 100,00 %
25.08.2019 00:34 18,7 C 72 % 1018,3 hPa 0,0 l/m 0,0 km/h N 360 0 min 0,000 mm 0,0 UV-I 0 W/m 13,5 C 18,7 C 0,0 km/h 100,00 %
25.08.2019 00:33 18,8 C 72 % 1018,3 hPa 0,0 l/m 0,0 km/h N 360 0 min 0,000 mm 0,0 UV-I 0 W/m 13,6 C 18,8 C 0,0 km/h 100,00 %
25.08.2019 00:32 18,8 C 72 % 1018,3 hPa 0,0 l/m 0,0 km/h N 360 0 min 0,000 mm 0,0 UV-I 0 W/m 13,6 C 18,8 C 0,0 km/h 100,00 %
25.08.2019 00:31 18,8 C 72 % 1018,3 hPa 0,0 l/m 0,0 km/h N 360 0 min 0,000 mm 0,0 UV-I 0 W/m 13,6 C 18,8 C 0,0 km/h 100,00 %
25.08.2019 00:30 18,8 C 72 % 1018,3 hPa 0,0 l/m 0,0 km/h N 360 0 min 0,000 mm 0,0 UV-I 0 W/m 13,6 C 18,8 C 0,0 km/h 100,00 %
25.08.2019 00:29 18,8 C 72 % 1018,3 hPa 0,0 l/m 0,0 km/h N 360 0 min 0,000 mm 0,0 UV-I 0 W/m 13,6 C 18,8 C 0,0 km/h 100,00 %
25.08.2019 00:28 18,8 C 72 % 1018,3 hPa 0,0 l/m 0,0 km/h N 360 0 min 0,000 mm 0,0 UV-I 0 W/m 13,6 C 18,8 C 0,0 km/h 100,00 %
25.08.2019 00:27 18,9 C 72 % 1018,3 hPa 0,0 l/m 0,0 km/h N 360 0 min 0,000 mm 0,0 UV-I 0 W/m 13,7 C 18,9 C 0,0 km/h 100,00 %
25.08.2019 00:26 18,9 C 72 % 1018,2 hPa 0,0 l/m 0,0 km/h N 360 0 min 0,000 mm 0,0 UV-I 0 W/m 13,7 C 18,9 C 0,0 km/h 100,00 %
25.08.2019 00:25 18,9 C 71 % 1018,3 hPa 0,0 l/m 0,0 km/h N 360 0 min 0,000 mm 0,0 UV-I 0 W/m 13,5 C 18,9 C 0,0 km/h 100,00 %
25.08.2019 00:24 18,9 C 71 % 1018,3 hPa 0,0 l/m 0,0 km/h N 360 0 min 0,000 mm 0,0 UV-I 0 W/m 13,5 C 18,9 C 0,0 km/h 95,83 %
25.08.2019 00:23 18,9 C 71 % 1018,3 hPa 0,0 l/m 0,0 km/h N 360 0 min 0,000 mm 0,0 UV-I 0 W/m 13,5 C 18,9 C 0,0 km/h 100,00 %
25.08.2019 00:22 18,9 C 71 % 1018,3 hPa 0,0 l/m 0,0 km/h N 360 0 min 0,000 mm 0,0 UV-I 0 W/m 13,5 C 18,9 C 0,0 km/h 100,00 %
25.08.2019 00:21 18,9 C 71 % 1018,3 hPa 0,0 l/m 0,0 km/h N 360 0 min 0,000 mm 0,0 UV-I 0 W/m 13,5 C 18,9 C 0,0 km/h 100,00 %
25.08.2019 00:20 18,9 C 70 % 1018,3 hPa 0,0 l/m 0,0 km/h N 360 0 min 0,000 mm 0,0 UV-I 0 W/m 13,3 C 18,9 C 0,0 km/h 100,00 %
25.08.2019 00:19 18,9 C 70 % 1018,3 hPa 0,0 l/m 0,0 km/h N 360 0 min 0,000 mm 0,0 UV-I 0 W/m 13,3 C 18,9 C 0,0 km/h 100,00 %
25.08.2019 00:18 19,0 C 70 % 1018,3 hPa 0,0 l/m 0,0 km/h N 360 0 min 0,000 mm 0,0 UV-I 0 W/m 13,4 C 19,0 C 0,0 km/h 100,00 %
25.08.2019 00:17 19,0 C 70 % 1018,3 hPa 0,0 l/m 0,0 km/h N 360 0 min 0,000 mm 0,0 UV-I 0 W/m 13,4 C 19,0 C 0,0 km/h 96,15 %
25.08.2019 00:16 19,0 C 70 % 1018,3 hPa 0,0 l/m 0,0 km/h N 360 0 min 0,000 mm 0,0 UV-I 0 W/m 13,4 C 19,0 C 0,0 km/h 100,00 %
25.08.2019 00:15 19,0 C 70 % 1018,3 hPa 0,0 l/m 0,0 km/h N 360 0 min 0,000 mm 0,0 UV-I 0 W/m 13,4 C 19,0 C 0,0 km/h 100,00 %
25.08.2019 00:14 19,0 C 70 % 1018,3 hPa 0,0 l/m 0,0 km/h N 360 0 min 0,000 mm 0,0 UV-I 0 W/m 13,4 C 19,0 C 0,0 km/h 100,00 %
25.08.2019 00:13 19,0 C 70 % 1018,3 hPa 0,0 l/m 0,0 km/h N 360 0 min 0,000 mm 0,0 UV-I 0 W/m 13,4 C 19,0 C 0,0 km/h 100,00 %
25.08.2019 00:12 19,1 C 70 % 1018,3 hPa 0,0 l/m 0,0 km/h N 360 0 min 0,000 mm 0,0 UV-I 0 W/m 13,5 C 19,1 C 0,0 km/h 100,00 %
25.08.2019 00:11 19,1 C 70 % 1018,3 hPa 0,0 l/m 0,0 km/h N 360 0 min 0,000 mm 0,0 UV-I 0 W/m 13,5 C 19,1 C 0,0 km/h 100,00 %
25.08.2019 00:10 19,1 C 70 % 1018,3 hPa 0,0 l/m 0,0 km/h N 360 0 min 0,000 mm 0,0 UV-I 0 W/m 13,5 C 19,1 C 0,0 km/h 95,83 %
25.08.2019 00:09 19,1 C 70 % 1018,3 hPa 0,0 l/m 0,0 km/h N 360 0 min 0,000 mm 0,0 UV-I 0 W/m 13,5 C 19,1 C 0,0 km/h 100,00 %
25.08.2019 00:08 19,1 C 69 % 1018,3 hPa 0,0 l/m 0,0 km/h N 360 0 min 0,000 mm 0,0 UV-I 0 W/m 13,3 C 19,1 C 0,0 km/h 100,00 %
25.08.2019 00:07 19,2 C 69 % 1018,3 hPa 0,0 l/m 0,0 km/h N 360 0 min 0,000 mm 0,0 UV-I 0 W/m 13,4 C 19,2 C 0,0 km/h 100,00 %
25.08.2019 00:06 19,2 C 69 % 1018,3 hPa 0,0 l/m 0,0 km/h N 360 0 min 0,000 mm 0,0 UV-I 0 W/m 13,4 C 19,2 C 0,0 km/h 100,00 %
25.08.2019 00:05 19,2 C 69 % 1018,3 hPa 0,0 l/m 0,0 km/h N 360 0 min 0,000 mm 0,0 UV-I 0 W/m 13,4 C 19,2 C 0,0 km/h 100,00 %
25.08.2019 00:04 19,3 C 69 % 1018,3 hPa 0,0 l/m 0,0 km/h N 360 0 min 0,000 mm 0,0 UV-I 0 W/m 13,5 C 19,3 C 0,0 km/h 95,65 %
25.08.2019 00:03 19,3 C 69 % 1018,3 hPa 0,0 l/m 0,0 km/h N 360 0 min 0,000 mm 0,0 UV-I 0 W/m 13,5 C 19,3 C 0,0 km/h 100,00 %
25.08.2019 00:02 19,3 C 69 % 1018,2 hPa 0,0 l/m 0,0 km/h N 360 0 min 0,000 mm 0,0 UV-I 0 W/m 13,5 C 19,3 C 0,0 km/h 100,00 %
25.08.2019 00:01 19,4 C 69 % 1018,2 hPa 0,0 l/m 0,0 km/h N 360 0 min 0,000 mm 0,0 UV-I 0 W/m 13,6 C 19,4 C 0,0 km/h 100,00 %
25.08.2019 00:00 19,4 C 69 % 1018,3 hPa 0,0 l/m 0,0 km/h N 360 0 min 0,000 mm 0,0 UV-I 0 W/m 13,6 C 19,4 C 0,0 km/h 95,65 %
24.08.2019 23:59 19,4 C 69 % 1018,2 hPa 0,0 l/m 0,0 km/h N 360 0 min 0,000 mm 0,0 UV-I 0 W/m 13,6 C 19,4 C 0,0 km/h 100,00 %
24.08.2019 23:58 19,5 C 69 % 1018,2 hPa 0,0 l/m 0,0 km/h N 360 0 min 0,000 mm 0,0 UV-I 0 W/m 13,7 C 19,5 C 0,0 km/h 100,00 %
24.08.2019 23:57 19,6 C 69 % 1018,3 hPa 0,0 l/m 0,0 km/h N 360 0 min 0,000 mm 0,0 UV-I 0 W/m 13,8 C 19,6 C 0,0 km/h 100,00 %
24.08.2019 23:56 19,6 C 69 % 1018,3 hPa 0,0 l/m 0,0 km/h N 360 0 min 0,000 mm 0,0 UV-I 0 W/m 13,8 C 19,6 C 0,0 km/h 100,00 %
24.08.2019 23:55 19,6 C 69 % 1018,3 hPa 0,0 l/m 0,0 km/h N 360 0 min 0,000 mm 0,0 UV-I 0 W/m 13,8 C 19,6 C 0,0 km/h 100,00 %
24.08.2019 23:54 19,7 C 69 % 1018,3 hPa 0,0 l/m 0,0 km/h N 360 0 min 0,000 mm 0,0 UV-I 0 W/m 13,8 C 19,7 C 0,0 km/h 96,15 %
24.08.2019 23:53 19,7 C 69 % 1018,3 hPa 0,0 l/m 0,0 km/h N 360 0 min 0,000 mm 0,0 UV-I 0 W/m 13,8 C 19,7 C 0,0 km/h 100,00 %
24.08.2019 23:52 19,7 C 69 % 1018,3 hPa 0,0 l/m 0,0 km/h N 360 0 min 0,000 mm 0,0 UV-I 0 W/m 13,8 C 19,7 C 0,0 km/h 100,00 %
24.08.2019 23:51 19,7 C 69 % 1018,3 hPa 0,0 l/m 0,0 km/h N 360 0 min 0,000 mm 0,0 UV-I 0 W/m 13,8 C 19,7 C 0,0 km/h 95,83 %
24.08.2019 23:50 19,7 C 69 % 1018,3 hPa 0,0 l/m 0,0 km/h N 360 0 min 0,000 mm 0,0 UV-I 0 W/m 13,8 C 19,7 C 0,0 km/h 100,00 %
24.08.2019 23:49 19,7 C 70 % 1018,3 hPa 0,0 l/m 0,0 km/h N 360 0 min 0,000 mm 0,0 UV-I 0 W/m 14,1 C 19,7 C 0,0 km/h 100,00 %
24.08.2019 23:48 19,7 C 70 % 1018,3 hPa 0,0 l/m 0,0 km/h N 360 0 min 0,000 mm 0,0 UV-I 0 W/m 14,1 C 19,7 C 0,0 km/h 100,00 %
24.08.2019 23:47 19,7 C 70 % 1018,3 hPa 0,0 l/m 0,0 km/h N 360 0 min 0,000 mm 0,0 UV-I 0 W/m 14,1 C 19,7 C 0,0 km/h 100,00 %
24.08.2019 23:46 19,7 C 70 % 1018,3 hPa 0,0 l/m 0,0 km/h N 360 0 min 0,000 mm 0,0 UV-I 0 W/m 14,1 C 19,7 C 0,0 km/h 100,00 %
24.08.2019 23:45 19,7 C 70 % 1018,2 hPa 0,0 l/m 0,0 km/h N 360 0 min 0,000 mm 0,0 UV-I 0 W/m 14,1 C 19,7 C 0,0 km/h 100,00 %
24.08.2019 23:44 19,6 C 70 % 1018,3 hPa 0,0 l/m 0,0 km/h N 360 0 min 0,000 mm 0,0 UV-I 0 W/m 14,0 C 19,6 C 0,0 km/h 100,00 %
24.08.2019 23:43 19,6 C 70 % 1018,3 hPa 0,0 l/m 0,0 km/h N 360 0 min 0,000 mm 0,0 UV-I 0 W/m 14,0 C 19,6 C 0,0 km/h 100,00 %
24.08.2019 23:42 19,6 C 70 % 1018,3 hPa 0,0 l/m 0,0 km/h N 360 0 min 0,000 mm 0,0 UV-I 0 W/m 14,0 C 19,6 C 0,0 km/h 100,00 %
24.08.2019 23:41 19,6 C 69 % 1018,3 hPa 0,0 l/m 0,0 km/h N 360 0 min 0,000 mm 0,0 UV-I 0 W/m 13,8 C 19,6 C 0,0 km/h 100,00 %
24.08.2019 23:40 19,5 C 69 % 1018,3 hPa 0,0 l/m 0,0 km/h N 360 0 min 0,000 mm 0,0 UV-I 0 W/m 13,7 C 19,5 C 0,0 km/h 100,00 %
24.08.2019 23:39 19,5 C 69 % 1018,3 hPa 0,0 l/m 0,0 km/h N 360 0 min 0,000 mm 0,0 UV-I 0 W/m 13,7 C 19,5 C 0,0 km/h 100,00 %
24.08.2019 23:38 19,5 C 69 % 1018,3 hPa 0,0 l/m 0,0 km/h N 360 0 min 0,000 mm 0,0 UV-I 0 W/m 13,7 C 19,5 C 0,0 km/h 95,83 %
24.08.2019 23:37 19,5 C 68 % 1018,4 hPa 0,0 l/m 0,0 km/h N 360 0 min 0,000 mm 0,0 UV-I 0 W/m 13,4 C 19,5 C 0,0 km/h 100,00 %
24.08.2019 23:36 19,5 C 67 % 1018,4 hPa 0,0 l/m 0,0 km/h N 360 0 min 0,000 mm 0,0 UV-I 0 W/m 13,2 C 19,5 C 0,0 km/h 96,30 %
24.08.2019 23:35 19,6 C 67 % 1018,3 hPa 0,0 l/m 0,0 km/h N 360 0 min 0,000 mm 0,0 UV-I 0 W/m 13,3 C 19,6 C 0,0 km/h 96,15 %
24.08.2019 23:34 19,6 C 67 % 1018,3 hPa 0,0 l/m 0,0 km/h N 360 0 min 0,000 mm 0,0 UV-I 0 W/m 13,3 C 19,6 C 0,0 km/h 100,00 %
24.08.2019 23:33 19,6 C 67 % 1018,3 hPa 0,0 l/m 0,0 km/h N 360 0 min 0,000 mm 0,0 UV-I 0 W/m 13,3 C 19,6 C 0,0 km/h 95,65 %
24.08.2019 23:32 19,7 C 67 % 1018,3 hPa 0,0 l/m 0,0 km/h N 360 0 min 0,000 mm 0,0 UV-I 0 W/m 13,4 C 19,7 C 0,0 km/h 100,00 %
24.08.2019 23:31 19,7 C 67 % 1018,3 hPa 0,0 l/m 0,0 km/h N 360 0 min 0,000 mm 0,0 UV-I 0 W/m 13,4 C 19,7 C 0,0 km/h 95,65 %
24.08.2019 23:30 19,7 C 67 % 1018,3 hPa 0,0 l/m 0,0 km/h N 360 0 min 0,000 mm 0,0 UV-I 0 W/m 13,4 C 19,7 C 0,0 km/h 100,00 %
24.08.2019 23:29 19,7 C 67 % 1018,3 hPa 0,0 l/m 0,0 km/h N 360 0 min 0,000 mm 0,0 UV-I 0 W/m 13,4 C 19,7 C 0,0 km/h 96,15 %
24.08.2019 23:28 19,8 C 67 % 1018,3 hPa 0,0 l/m 0,0 km/h N 360 0 min 0,000 mm 0,0 UV-I 0 W/m 13,5 C 19,8 C 0,0 km/h 100,00 %
24.08.2019 23:27 19,8 C 67 % 1018,3 hPa 0,0 l/m 0,0 km/h N 360 0 min 0,000 mm 0,0 UV-I 0 W/m 13,5 C 19,8 C 0,0 km/h 95,83 %
24.08.2019 23:26 19,8 C 67 % 1018,3 hPa 0,0 l/m 0,0 km/h N 360 0 min 0,000 mm 0,0 UV-I 0 W/m 13,5 C 19,8 C 0,0 km/h 100,00 %
24.08.2019 23:25 19,9 C 67 % 1018,3 hPa 0,0 l/m 0,0 km/h N 360 0 min 0,000 mm 0,0 UV-I 0 W/m 13,6 C 19,9 C 0,0 km/h 95,83 %
24.08.2019 23:24 19,9 C 67 % 1018,3 hPa 0,0 l/m 0,0 km/h N 360 0 min 0,000 mm 0,0 UV-I 0 W/m 13,6 C 19,9 C 0,0 km/h 95,65 %
24.08.2019 23:23 19,9 C 66 % 1018,3 hPa 0,0 l/m 0,0 km/h N 360 0 min 0,000 mm 0,0 UV-I 0 W/m 13,4 C 19,9 C 0,0 km/h 100,00 %
24.08.2019 23:22 20,0 C 66 % 1018,3 hPa 0,0 l/m 0,0 km/h N 360 0 min 0,000 mm 0,0 UV-I 0 W/m 13,4 C 20,0 C 0,0 km/h 92,86 %
24.08.2019 23:21 20,1 C 66 % 1018,3 hPa 0,0 l/m 0,0 km/h N 360 0 min 0,000 mm 0,0 UV-I 0 W/m 13,5 C 20,1 C 0,0 km/h 100,00 %
24.08.2019 23:20 20,1 C 66 % 1018,3 hPa 0,0 l/m 0,0 km/h N 360 0 min 0,000 mm 0,0 UV-I 0 W/m 13,5 C 20,1 C 0,0 km/h 96,15 %
24.08.2019 23:19 20,1 C 66 % 1018,3 hPa 0,0 l/m 0,0 km/h N 360 0 min 0,000 mm 0,0 UV-I 0 W/m 13,5 C 20,1 C 0,0 km/h 95,83 %
24.08.2019 23:18 20,2 C 66 % 1018,3 hPa 0,0 l/m 0,0 km/h N 360 0 min 0,000 mm 0,0 UV-I 0 W/m 13,6 C 20,2 C 0,0 km/h 96,15 %
24.08.2019 23:17 20,2 C 66 % 1018,3 hPa 0,0 l/m 0,0 km/h N 360 0 min 0,000 mm 0,0 UV-I 0 W/m 13,6 C 20,2 C 0,0 km/h 96,00 %
24.08.2019 23:16 20,2 C 66 % 1018,3 hPa 0,0 l/m 0,0 km/h N 360 0 min 0,000 mm 0,0 UV-I 0 W/m 13,6 C 20,2 C 0,0 km/h 100,00 %
24.08.2019 23:15 20,3 C 66 % 1018,3 hPa 0,0 l/m 0,0 km/h N 360 0 min 0,000 mm 0,0 UV-I 0 W/m 13,7 C 20,3 C 0,0 km/h 95,83 %
24.08.2019 23:14 20,3 C 66 % 1018,2 hPa 0,0 l/m 0,0 km/h N 360 0 min 0,000 mm 0,0 UV-I 0 W/m 13,7 C 20,3 C 0,0 km/h 95,65 %
24.08.2019 23:13 20,3 C 66 % 1018,3 hPa 0,0 l/m 0,0 km/h N 360 0 min 0,000 mm 0,0 UV-I 0 W/m 13,7 C 20,3 C 0,0 km/h 95,83 %
24.08.2019 23:12 20,4 C 66 % 1018,2 hPa 0,0 l/m 0,0 km/h N 360 0 min 0,000 mm 0,0 UV-I 0 W/m 13,8 C 20,4 C 0,0 km/h 100,00 %
24.08.2019 23:11 20,4 C 66 % 1018,3 hPa 0,0 l/m 0,0 km/h N 360 0 min 0,000 mm 0,0 UV-I 0 W/m 13,8 C 20,4 C 0,0 km/h 95,83 %
24.08.2019 23:10 20,4 C 65 % 1018,3 hPa 0,0 l/m 0,0 km/h N 360 0 min 0,000 mm 0,0 UV-I 0 W/m 13,6 C 20,4 C 0,0 km/h 95,65 %
24.08.2019 23:09 20,4 C 65 % 1018,3 hPa 0,0 l/m 0,0 km/h N 360 0 min 0,000 mm 0,0 UV-I 0 W/m 13,6 C 20,4 C 0,0 km/h 100,00 %
24.08.2019 23:08 20,5 C 65 % 1018,3 hPa 0,0 l/m 0,0 km/h N 360 0 min 0,000 mm 0,0 UV-I 0 W/m 13,7 C 20,5 C 0,0 km/h 98,79 %
24.08.2019 23:07 20,6 C 65 % 1018,3 hPa 0,0 l/m 0,0 km/h N 360 0 min 0,000 mm 0,0 UV-I 0 W/m 13,8 C 20,6 C 0,0 km/h 95,65 %
24.08.2019 23:06 20,6 C 64 % 1018,3 hPa 0,0 l/m 0,0 km/h N 360 0 min 0,000 mm 0,0 UV-I 0 W/m 13,5 C 20,6 C 0,0 km/h 95,83 %
24.08.2019 23:05 20,7 C 64 % 1018,3 hPa 0,0 l/m 0,0 km/h N 360 0 min 0,000 mm 0,0 UV-I 0 W/m 13,6 C 20,7 C 0,0 km/h 100,00 %
24.08.2019 23:04 20,7 C 64 % 1018,3 hPa 0,0 l/m 0,0 km/h N 360 0 min 0,000 mm 0,0 UV-I 0 W/m 13,6 C 20,7 C 0,0 km/h 91,67 %
24.08.2019 23:03 20,7 C 64 % 1018,3 hPa 0,0 l/m 0,0 km/h N 360 0 min 0,000 mm 0,0 UV-I 0 W/m 13,6 C 20,7 C 0,0 km/h 95,65 %
24.08.2019 23:02 20,8 C 64 % 1018,3 hPa 0,0 l/m 0,0 km/h N 360 0 min 0,000 mm 0,0 UV-I 0 W/m 13,7 C 20,8 C 0,0 km/h 95,83 %
24.08.2019 23:01 20,8 C 64 % 1018,3 hPa 0,0 l/m 0,0 km/h N 360 0 min 0,025 mm 0,0 UV-I 0 W/m 13,7 C 20,8 C 0,0 km/h 100,00 %
24.08.2019 23:00 20,9 C 64 % 1018,3 hPa 0,0 l/m 0,0 km/h N 360 0 min 0,000 mm 0,0 UV-I 0 W/m 13,8 C 20,9 C 0,0 km/h 95,83 %
24.08.2019 22:59 20,9 C 64 % 1018,4 hPa 0,0 l/m 0,0 km/h N 360 0 min 0,000 mm 0,0 UV-I 0 W/m 13,8 C 20,9 C 0,0 km/h 95,65 %
24.08.2019 22:58 20,9 C 63 % 1018,3 hPa 0,0 l/m 0,0 km/h N 360 0 min 0,000 mm 0,0 UV-I 0 W/m 13,6 C 20,9 C 0,0 km/h 100,00 %
24.08.2019 22:57 21,0 C 63 % 1018,3 hPa 0,0 l/m 0,0 km/h N 360 0 min 0,000 mm 0,0 UV-I 0 W/m 13,7 C 21,0 C 0,0 km/h 95,65 %
24.08.2019 22:56 21,1 C 63 % 1018,3 hPa 0,0 l/m 0,0 km/h N 360 0 min 0,000 mm 0,0 UV-I 0 W/m 13,8 C 21,1 C 0,0 km/h 100,00 %
24.08.2019 22:55 21,1 C 63 % 1018,2 hPa 0,0 l/m 0,0 km/h N 360 0 min 0,000 mm 0,0 UV-I 0 W/m 13,8 C 21,1 C 0,0 km/h 96,15 %
24.08.2019 22:54 21,2 C 63 % 1018,3 hPa 0,0 l/m 0,0 km/h N 360 0 min 0,000 mm 0,0 UV-I 0 W/m 13,9 C 21,2 C 0,0 km/h 100,00 %
24.08.2019 22:53 21,2 C 63 % 1018,2 hPa 0,0 l/m 0,0 km/h N 360 0 min 0,000 mm 0,0 UV-I 0 W/m 13,9 C 21,2 C 0,0 km/h 96,30 %
24.08.2019 22:52 21,3 C 63 % 1018,2 hPa 0,0 l/m 0,0 km/h N 360 0 min 0,000 mm 0,0 UV-I 0 W/m 14,0 C 21,3 C 0,0 km/h 100,00 %
24.08.2019 22:51 21,3 C 63 % 1018,2 hPa 0,0 l/m 0,0 km/h N 360 0 min 0,000 mm 0,0 UV-I 0 W/m 14,0 C 21,3 C 0,0 km/h 95,65 %
24.08.2019 22:50 21,3 C 64 % 1018,2 hPa 0,0 l/m 0,0 km/h N 360 0 min 0,000 mm 0,0 UV-I 0 W/m 14,2 C 21,3 C 0,0 km/h 96,30 %
24.08.2019 22:49 21,4 C 63 % 1018,2 hPa 0,0 l/m 0,0 km/h N 360 0 min 0,000 mm 0,0 UV-I 0 W/m 14,1 C 21,4 C 0,0 km/h 96,15 %
24.08.2019 22:48 21,4 C 63 % 1018,2 hPa 0,0 l/m 0,0 km/h N 360 0 min 0,000 mm 0,0 UV-I 0 W/m 14,1 C 21,4 C 0,0 km/h 95,83 %
24.08.2019 22:47 21,4 C 63 % 1018,3 hPa 0,0 l/m 0,0 km/h N 360 0 min 0,000 mm 0,0 UV-I 0 W/m 14,1 C 21,4 C 0,0 km/h 100,00 %
24.08.2019 22:46 21,4 C 63 % 1018,2 hPa 0,0 l/m 0,0 km/h N 360 0 min 0,000 mm 0,0 UV-I 0 W/m 14,1 C 21,4 C 0,0 km/h 96,15 %
24.08.2019 22:45 21,4 C 63 % 1018,2 hPa 0,0 l/m 0,0 km/h N 360 0 min 0,000 mm 0,0 UV-I 0 W/m 14,1 C 21,4 C 0,0 km/h 100,00 %
24.08.2019 22:44 21,4 C 63 % 1018,2 hPa 0,0 l/m 0,0 km/h N 360 0 min 0,000 mm 0,0 UV-I 0 W/m 14,1 C 21,4 C 0,0 km/h 95,65 %
24.08.2019 22:43 21,5 C 63 % 1018,3 hPa 0,0 l/m 0,0 km/h N 360 0 min 0,000 mm 0,0 UV-I 0 W/m 14,2 C 21,5 C 0,0 km/h 100,00 %
24.08.2019 22:42 21,5 C 63 % 1018,2 hPa 0,0 l/m 0,0 km/h N 360 0 min 0,000 mm 0,0 UV-I 0 W/m 14,2 C 21,5 C 0,0 km/h 96,15 %
24.08.2019 22:41 21,5 C 63 % 1018,3 hPa 0,0 l/m 0,0 km/h N 360 0 min 0,000 mm 0,0 UV-I 0 W/m 14,2 C 21,5 C 0,0 km/h 100,00 %
24.08.2019 22:40 21,5 C 63 % 1018,2 hPa 0,0 l/m 0,0 km/h N 360 0 min 0,000 mm 0,0 UV-I 0 W/m 14,2 C 21,5 C 0,0 km/h 100,00 %
24.08.2019 22:39 21,6 C 62 % 1018,2 hPa 0,0 l/m 0,0 km/h N 360 0 min 0,000 mm 0,0 UV-I 0 W/m 14,0 C 21,6 C 0,0 km/h 100,00 %
24.08.2019 22:38 21,6 C 62 % 1018,2 hPa 0,0 l/m 0,0 km/h N 360 0 min 0,000 mm 0,0 UV-I 0 W/m 14,0 C 21,6 C 0,0 km/h 100,00 %
24.08.2019 22:37 21,6 C 63 % 1018,2 hPa 0,0 l/m 0,0 km/h N 360 0 min 0,000 mm 0,0 UV-I 0 W/m 14,2 C 21,6 C 0,0 km/h 91,67 %
24.08.2019 22:36 21,6 C 63 % 1018,3 hPa 0,0 l/m 0,0 km/h N 360 0 min 0,000 mm 0,0 UV-I 0 W/m 14,2 C 21,6 C 0,0 km/h 100,00 %
24.08.2019 22:35 21,6 C 63 % 1018,3 hPa 0,0 l/m 0,0 km/h N 360 0 min 0,000 mm 0,0 UV-I 0 W/m 14,2 C 21,6 C 0,0 km/h 100,00 %
24.08.2019 22:34 21,6 C 62 % 1018,2 hPa 0,0 l/m 0,0 km/h N 360 0 min 0,000 mm 0,0 UV-I 0 W/m 14,0 C 21,6 C 0,0 km/h 100,00 %
24.08.2019 22:33 21,6 C 62 % 1018,3 hPa 0,0 l/m 0,0 km/h N 360 0 min 0,000 mm 0,0 UV-I 0 W/m 14,0 C 21,6 C 0,0 km/h 100,00 %
24.08.2019 22:32 21,7 C 62 % 1018,3 hPa 0,0 l/m 0,0 km/h N 360 0 min 0,000 mm 0,0 UV-I 0 W/m 14,1 C 21,7 C 0,0 km/h 100,00 %
24.08.2019 22:31 21,7 C 62 % 1018,3 hPa 0,0 l/m 0,0 km/h N 360 0 min 0,000 mm 0,0 UV-I 0 W/m 14,1 C 21,7 C 0,0 km/h 100,00 %
24.08.2019 22:30 21,7 C 61 % 1018,3 hPa 0,0 l/m 0,0 km/h N 360 0 min 0,000 mm 0,0 UV-I 0 W/m 13,8 C 21,7 C 0,0 km/h 100,00 %
24.08.2019 22:29 21,7 C 62 % 1018,3 hPa 0,0 l/m 0,0 km/h N 360 0 min 0,000 mm 0,0 UV-I 0 W/m 14,1 C 21,7 C 0,0 km/h 100,00 %
24.08.2019 22:28 21,8 C 61 % 1018,3 hPa 0,0 l/m 0,0 km/h N 360 0 min 0,000 mm 0,0 UV-I 0 W/m 13,9 C 21,8 C 0,0 km/h 95,65 %
24.08.2019 22:27 21,8 C 61 % 1018,3 hPa 0,0 l/m 0,0 km/h N 360 0 min 0,000 mm 0,0 UV-I 0 W/m 13,9 C 21,8 C 0,0 km/h 100,00 %
24.08.2019 22:26 21,8 C 61 % 1018,3 hPa 0,0 l/m 0,0 km/h N 360 0 min 0,000 mm 0,0 UV-I 0 W/m 13,9 C 21,8 C 0,0 km/h 100,00 %
24.08.2019 22:25 21,8 C 62 % 1018,2 hPa 0,0 l/m 0,0 km/h N 360 0 min 0,000 mm 0,0 UV-I 0 W/m 14,2 C 21,8 C 0,0 km/h 98,82 %
24.08.2019 22:24 21,9 C 62 % 1018,2 hPa 0,0 l/m 0,0 km/h N 360 0 min 0,000 mm 0,0 UV-I 0 W/m 14,3 C 21,9 C 0,0 km/h 100,00 %
24.08.2019 22:23 21,9 C 62 % 1018,3 hPa 0,0 l/m 0,0 km/h N 360 0 min 0,000 mm 0,0 UV-I 0 W/m 14,3 C 21,9 C 0,0 km/h 100,00 %
24.08.2019 22:22 21,9 C 62 % 1018,2 hPa 0,0 l/m 0,0 km/h N 360 0 min 0,000 mm 0,0 UV-I 0 W/m 14,3 C 21,9 C 0,0 km/h 100,00 %
24.08.2019 22:21 21,9 C 61 % 1018,3 hPa 0,0 l/m 0,0 km/h N 360 0 min 0,000 mm 0,0 UV-I 0 W/m 14,0 C 21,9 C 0,0 km/h 96,15 %
24.08.2019 22:20 21,9 C 61 % 1018,2 hPa 0,0 l/m 0,0 km/h N 360 0 min 0,000 mm 0,0 UV-I 0 W/m 14,0 C 21,9 C 0,0 km/h 100,00 %
24.08.2019 22:19 21,9 C 61 % 1018,2 hPa 0,0 l/m 0,0 km/h N 360 0 min 0,000 mm 0,0 UV-I 0 W/m 14,0 C 21,9 C 0,0 km/h 100,00 %
24.08.2019 22:18 21,9 C 61 % 1018,3 hPa 0,0 l/m 0,0 km/h N 360 0 min 0,000 mm 0,0 UV-I 0 W/m 14,0 C 21,9 C 0,0 km/h 100,00 %
24.08.2019 22:17 21,9 C 61 % 1018,2 hPa 0,0 l/m 0,0 km/h N 360 0 min 0,000 mm 0,0 UV-I 0 W/m 14,0 C 21,9 C 0,0 km/h 100,00 %
24.08.2019 22:16 22,0 C 61 % 1018,3 hPa 0,0 l/m 0,0 km/h N 360 0 min 0,000 mm 0,0 UV-I 0 W/m 14,1 C 22,0 C 0,0 km/h 100,00 %
24.08.2019 22:15 22,0 C 61 % 1018,2 hPa 0,0 l/m 0,0 km/h N 360 0 min 0,000 mm 0,0 UV-I 0 W/m 14,1 C 22,0 C 0,0 km/h 100,00 %
24.08.2019 22:14 22,0 C 61 % 1018,2 hPa 0,0 l/m 0,0 km/h N 360 0 min 0,000 mm 0,0 UV-I 0 W/m 14,1 C 22,0 C 0,0 km/h 100,00 %
24.08.2019 22:13 22,1 C 61 % 1018,2 hPa 0,0 l/m 0,0 km/h N 360 0 min 0,000 mm 0,0 UV-I 0 W/m 14,2 C 22,1 C 0,0 km/h 100,00 %
24.08.2019 22:12 22,1 C 61 % 1018,2 hPa 0,0 l/m 0,0 km/h N 360 0 min 0,000 mm 0,0 UV-I 0 W/m 14,2 C 22,1 C 0,0 km/h 100,00 %
24.08.2019 22:11 22,1 C 61 % 1018,2 hPa 0,0 l/m 0,0 km/h N 360 0 min 0,000 mm 0,0 UV-I 0 W/m 14,2 C 22,1 C 0,0 km/h 100,00 %
24.08.2019 22:10 22,1 C 61 % 1018,2 hPa 0,0 l/m 0,0 km/h N 360 0 min 0,000 mm 0,0 UV-I 0 W/m 14,2 C 22,1 C 0,0 km/h 100,00 %
24.08.2019 22:09 22,2 C 61 % 1018,3 hPa 0,0 l/m 0,0 km/h N 360 0 min 0,000 mm 0,0 UV-I 0 W/m 14,3 C 22,2 C 0,0 km/h 100,00 %
24.08.2019 22:08 22,2 C 61 % 1018,3 hPa 0,0 l/m 0,0 km/h N 360 0 min 0,000 mm 0,0 UV-I 0 W/m 14,3 C 22,2 C 0,0 km/h 100,00 %
24.08.2019 22:07 22,2 C 61 % 1018,2 hPa 0,0 l/m 0,0 km/h N 360 0 min 0,000 mm 0,0 UV-I 0 W/m 14,3 C 22,2 C 0,0 km/h 100,00 %
24.08.2019 22:06 22,2 C 61 % 1018,3 hPa 0,0 l/m 0,0 km/h N 360 0 min 0,000 mm 0,0 UV-I 0 W/m 14,3 C 22,2 C 0,0 km/h 100,00 %
24.08.2019 22:05 22,2 C 61 % 1018,3 hPa 0,0 l/m 0,0 km/h N 360 0 min 0,000 mm 0,0 UV-I 0 W/m 14,3 C 22,2 C 0,0 km/h 100,00 %
24.08.2019 22:04 22,3 C 60 % 1018,2 hPa 0,0 l/m 0,0 km/h N 360 0 min 0,000 mm 0,0 UV-I 0 W/m 14,2 C 22,3 C 0,0 km/h 100,00 %
24.08.2019 22:03 22,3 C 59 % 1018,3 hPa 0,0 l/m 0,0 km/h N 360 0 min 0,000 mm 0,0 UV-I 0 W/m 13,9 C 22,3 C 0,0 km/h 100,00 %
24.08.2019 22:02 22,3 C 59 % 1018,3 hPa 0,0 l/m 0,0 km/h N 360 0 min 0,000 mm 0,0 UV-I 0 W/m 13,9 C 22,3 C 0,0 km/h 100,00 %
24.08.2019 22:01 22,4 C 60 % 1018,3 hPa 0,0 l/m 0,0 km/h N 360 0 min 0,051 mm 0,0 UV-I 0 W/m 14,2 C 22,4 C 0,0 km/h 100,00 %
24.08.2019 22:00 22,4 C 59 % 1018,3 hPa 0,0 l/m 0,0 km/h N 360 0 min 0,000 mm 0,0 UV-I 0 W/m 14,0 C 22,4 C 0,0 km/h 100,00 %
24.08.2019 21:59 22,4 C 59 % 1018,3 hPa 0,0 l/m 0,0 km/h N 360 0 min 0,000 mm 0,0 UV-I 0 W/m 14,0 C 22,4 C 0,0 km/h 100,00 %
24.08.2019 21:58 22,5 C 59 % 1018,3 hPa 0,0 l/m 0,0 km/h N 360 0 min 0,000 mm 0,0 UV-I 0 W/m 14,1 C 22,5 C 0,0 km/h 100,00 %
24.08.2019 21:57 22,6 C 60 % 1018,3 hPa 0,0 l/m 0,0 km/h N 360 0 min 0,000 mm 0,0 UV-I 0 W/m 14,4 C 22,6 C 0,0 km/h 100,00 %
24.08.2019 21:56 22,6 C 60 % 1018,3 hPa 0,0 l/m 0,0 km/h N 360 0 min 0,000 mm 0,0 UV-I 0 W/m 14,4 C 22,6 C 0,0 km/h 100,00 %
24.08.2019 21:55 22,6 C 60 % 1018,3 hPa 0,0 l/m 0,0 km/h N 360 0 min 0,000 mm 0,0 UV-I 0 W/m 14,4 C 22,6 C 0,0 km/h 100,00 %
24.08.2019 21:54 22,6 C 59 % 1018,3 hPa 0,0 l/m 0,0 km/h N 360 0 min 0,000 mm 0,0 UV-I 0 W/m 14,2 C 22,6 C 0,0 km/h 100,00 %
24.08.2019 21:53 22,7 C 59 % 1018,3 hPa 0,0 l/m 0,0 km/h N 360 0 min 0,000 mm 0,0 UV-I 0 W/m 14,3 C 22,7 C 0,0 km/h 100,00 %
24.08.2019 21:52 22,7 C 59 % 1018,3 hPa 0,0 l/m 0,0 km/h N 360 0 min 0,000 mm 0,0 UV-I 0 W/m 14,3 C 22,7 C 0,0 km/h 95,83 %
24.08.2019 21:51 22,7 C 58 % 1018,3 hPa 0,0 l/m 0,0 km/h N 360 0 min 0,000 mm 0,0 UV-I 0 W/m 14,0 C 22,7 C 0,0 km/h 100,00 %
24.08.2019 21:50 22,7 C 58 % 1018,3 hPa 0,0 l/m 0,0 km/h N 360 0 min 0,000 mm 0,0 UV-I 0 W/m 14,0 C 22,7 C 0,0 km/h 100,00 %
24.08.2019 21:49 22,8 C 58 % 1018,3 hPa 0,0 l/m 0,0 km/h N 360 0 min 0,000 mm 0,0 UV-I 0 W/m 14,1 C 22,8 C 0,0 km/h 100,00 %
24.08.2019 21:48 22,8 C 57 % 1018,3 hPa 0,0 l/m 0,0 km/h N 360 0 min 0,000 mm 0,0 UV-I 0 W/m 13,8 C 22,8 C 0,0 km/h 100,00 %
24.08.2019 21:47 22,9 C 57 % 1018,3 hPa 0,0 l/m 0,0 km/h N 360 0 min 0,000 mm 0,0 UV-I 0 W/m 13,9 C 22,9 C 0,0 km/h 100,00 %
24.08.2019 21:46 22,9 C 57 % 1018,3 hPa 0,0 l/m 0,0 km/h N 360 0 min 0,000 mm 0,0 UV-I 0 W/m 13,9 C 22,9 C 0,0 km/h 100,00 %
24.08.2019 21:45 23,0 C 57 % 1018,2 hPa 0,0 l/m 0,0 km/h N 360 0 min 0,000 mm 0,0 UV-I 0 W/m 14,0 C 23,0 C 0,0 km/h 100,00 %
24.08.2019 21:44 23,1 C 57 % 1018,3 hPa 0,0 l/m 0,0 km/h N 360 0 min 0,000 mm 0,0 UV-I 0 W/m 14,1 C 23,1 C 0,0 km/h 100,00 %
24.08.2019 21:43 23,1 C 56 % 1018,2 hPa 0,0 l/m 0,0 km/h N 360 0 min 0,000 mm 0,0 UV-I 0 W/m 13,8 C 23,1 C 0,0 km/h 100,00 %
24.08.2019 21:42 23,2 C 56 % 1018,3 hPa 0,0 l/m 0,0 km/h N 360 0 min 0,000 mm 0,0 UV-I 0 W/m 13,9 C 23,2 C 0,0 km/h 100,00 %
24.08.2019 21:41 23,3 C 56 % 1018,2 hPa 0,0 l/m 0,0 km/h N 360 0 min 0,000 mm 0,0 UV-I 0 W/m 14,0 C 23,3 C 0,0 km/h 100,00 %
24.08.2019 21:40 23,4 C 56 % 1018,2 hPa 0,0 l/m 0,0 km/h N 360 0 min 0,000 mm 0,0 UV-I 0 W/m 14,1 C 23,4 C 0,0 km/h 100,00 %
24.08.2019 21:39 23,4 C 55 % 1018,2 hPa 0,0 l/m 0,0 km/h N 360 0 min 0,000 mm 0,0 UV-I 0 W/m 13,8 C 23,4 C 0,0 km/h 100,00 %
24.08.2019 21:38 23,6 C 55 % 1018,2 hPa 0,0 l/m 0,0 km/h N 360 0 min 0,000 mm 0,0 UV-I 0 W/m 14,0 C 23,6 C 0,0 km/h 93,33 %
24.08.2019 21:37 23,7 C 55 % 1018,2 hPa 0,0 l/m 0,0 km/h N 360 0 min 0,000 mm 0,0 UV-I 0 W/m 14,1 C 23,7 C 0,0 km/h 100,00 %
24.08.2019 21:36 23,7 C 55 % 1018,2 hPa 0,0 l/m 0,0 km/h N 360 0 min 0,000 mm 0,0 UV-I 0 W/m 14,1 C 23,7 C 0,0 km/h 100,00 %
24.08.2019 21:35 23,8 C 55 % 1018,2 hPa 0,0 l/m 0,0 km/h N 360 0 min 0,000 mm 0,0 UV-I 0 W/m 14,2 C 23,8 C 0,0 km/h 100,00 %
24.08.2019 21:34 23,9 C 54 % 1018,2 hPa 0,0 l/m 0,0 km/h N 360 0 min 0,000 mm 0,0 UV-I 0 W/m 14,0 C 23,9 C 0,0 km/h 100,00 %
24.08.2019 21:33 24,0 C 54 % 1018,2 hPa 0,0 l/m 0,0 km/h N 360 0 min 0,000 mm 0,0 UV-I 0 W/m 14,1 C 24,0 C 0,0 km/h 100,00 %
24.08.2019 21:32 24,1 C 54 % 1018,2 hPa 0,0 l/m 0,0 km/h N 360 0 min 0,000 mm 0,0 UV-I 0 W/m 14,2 C 24,1 C 0,0 km/h 100,00 %
24.08.2019 21:31 24,2 C 53 % 1018,2 hPa 0,0 l/m 0,0 km/h N 360 0 min 0,000 mm 0,0 UV-I 0 W/m 14,0 C 24,2 C 0,0 km/h 95,83 %
24.08.2019 21:30 24,2 C 54 % 1018,2 hPa 0,0 l/m 0,0 km/h N 360 0 min 0,000 mm 0,0 UV-I 0 W/m 14,3 C 24,2 C 0,0 km/h 100,00 %
24.08.2019 21:29 24,3 C 53 % 1018,2 hPa 0,0 l/m 0,0 km/h N 360 0 min 0,000 mm 0,0 UV-I 0 W/m 14,1 C 24,3 C 0,0 km/h 100,00 %
24.08.2019 21:28 24,4 C 53 % 1018,2 hPa 0,0 l/m 0,0 km/h N 360 0 min 0,000 mm 0,0 UV-I 0 W/m 14,2 C 24,4 C 0,0 km/h 100,00 %
24.08.2019 21:27 24,6 C 52 % 1018,3 hPa 0,0 l/m 0,0 km/h N 360 0 min 0,000 mm 0,0 UV-I 0 W/m 14,1 C 24,6 C 0,0 km/h 100,00 %
24.08.2019 21:26 24,7 C 52 % 1018,3 hPa 0,0 l/m 0,0 km/h N 360 0 min 0,000 mm 0,0 UV-I 0 W/m 14,2 C 24,7 C 0,0 km/h 100,00 %
24.08.2019 21:25 24,8 C 52 % 1018,2 hPa 0,0 l/m 0,0 km/h N 360 0 min 0,000 mm 0,0 UV-I 0 W/m 14,3 C 24,8 C 0,0 km/h 100,00 %
24.08.2019 21:24 24,9 C 52 % 1018,2 hPa 0,0 l/m 0,0 km/h N 360 0 min 0,000 mm 0,0 UV-I 0 W/m 14,4 C 24,9 C 0,0 km/h 96,15 %
24.08.2019 21:23 24,9 C 52 % 1018,2 hPa 0,0 l/m 0,0 km/h N 360 0 min 0,000 mm 0,0 UV-I 0 W/m 14,4 C 24,9 C 0,0 km/h 100,00 %
24.08.2019 21:22 25,0 C 51 % 1018,3 hPa 0,0 l/m 0,0 km/h N 360 0 min 0,000 mm 0,0 UV-I 0 W/m 14,1 C 25,0 C 0,0 km/h 100,00 %
24.08.2019 21:21 25,1 C 51 % 1018,3 hPa 0,0 l/m 0,0 km/h N 360 0 min 0,000 mm 0,0 UV-I 0 W/m 14,2 C 25,1 C 0,0 km/h 100,00 %
24.08.2019 21:20 25,2 C 51 % 1018,2 hPa 0,0 l/m 0,0 km/h N 360 0 min 0,000 mm 0,0 UV-I 0 W/m 14,3 C 25,2 C 0,0 km/h 100,00 %
24.08.2019 21:19 25,3 C 50 % 1018,3 hPa 0,0 l/m 0,0 km/h N 360 0 min 0,000 mm 0,0 UV-I 0 W/m 14,1 C 25,3 C 0,0 km/h 100,00 %
24.08.2019 21:18 25,4 C 50 % 1018,2 hPa 0,0 l/m 0,0 km/h N 360 0 min 0,000 mm 0,0 UV-I 0 W/m 14,2 C 25,4 C 0,0 km/h 100,00 %
24.08.2019 21:17 25,4 C 50 % 1018,2 hPa 0,0 l/m 0,0 km/h N 360 0 min 0,000 mm 0,0 UV-I 0 W/m 14,2 C 25,4 C 0,0 km/h 100,00 %
24.08.2019 21:16 25,6 C 49 % 1018,2 hPa 0,0 l/m 0,0 km/h N 360 0 min 0,000 mm 0,0 UV-I 0 W/m 14,1 C 25,6 C 0,0 km/h 100,00 %
24.08.2019 21:15 25,6 C 49 % 1018,2 hPa 0,0 l/m 0,0 km/h N 360 0 min 0,000 mm 0,0 UV-I 0 W/m 14,1 C 25,6 C 0,0 km/h 100,00 %
24.08.2019 21:14 25,7 C 49 % 1018,3 hPa 0,0 l/m 0,0 km/h N 360 0 min 0,000 mm 0,0 UV-I 0 W/m 14,2 C 25,7 C 0,0 km/h 100,00 %
24.08.2019 21:13 25,8 C 49 % 1018,2 hPa 0,0 l/m 0,0 km/h N 360 0 min 0,000 mm 0,0 UV-I 0 W/m 14,3 C 25,8 C 0,0 km/h 100,00 %
24.08.2019 21:12 25,9 C 48 % 1018,2 hPa 0,0 l/m 0,0 km/h N 360 0 min 0,000 mm 0,0 UV-I 0 W/m 14,0 C 25,9 C 0,0 km/h 100,00 %
24.08.2019 21:11 25,9 C 48 % 1018,2 hPa 0,0 l/m 0,0 km/h N 360 0 min 0,000 mm 0,0 UV-I 0 W/m 14,0 C 25,9 C 0,0 km/h 100,00 %
24.08.2019 21:10 26,0 C 48 % 1018,2 hPa 0,0 l/m 0,0 km/h N 360 0 min 0,000 mm 0,0 UV-I 0 W/m 14,1 C 26,0 C 0,0 km/h 100,00 %
24.08.2019 21:09 26,1 C 48 % 1018,2 hPa 0,0 l/m 0,0 km/h N 360 0 min 0,000 mm 0,0 UV-I 0 W/m 14,2 C 26,1 C 0,0 km/h 100,00 %
24.08.2019 21:08 26,1 C 48 % 1018,2 hPa 0,0 l/m 0,0 km/h N 360 0 min 0,000 mm 0,0 UV-I 0 W/m 14,2 C 26,1 C 0,0 km/h 100,00 %
24.08.2019 21:07 26,2 C 47 % 1018,2 hPa 0,0 l/m 0,0 km/h N 360 0 min 0,000 mm 0,0 UV-I 0 W/m 14,0 C 26,2 C 0,0 km/h 100,00 %
24.08.2019 21:06 26,2 C 47 % 1018,2 hPa 0,0 l/m 0,0 km/h N 360 0 min 0,000 mm 0,0 UV-I 0 W/m 14,0 C 26,2 C 0,0 km/h 100,00 %
24.08.2019 21:05 26,3 C 46 % 1018,2 hPa 0,0 l/m 0,0 km/h N 360 0 min 0,000 mm 0,0 UV-I 0 W/m 13,7 C 26,3 C 0,0 km/h 100,00 %
24.08.2019 21:04 26,3 C 45 % 1018,2 hPa 0,0 l/m 0,0 km/h N 360 0 min 0,000 mm 0,0 UV-I 0 W/m 13,4 C 26,3 C 0,0 km/h 100,00 %
24.08.2019 21:03 26,3 C 45 % 1018,2 hPa 0,0 l/m 0,0 km/h N 360 0 min 0,000 mm 0,0 UV-I 0 W/m 13,4 C 26,3 C 0,0 km/h 100,00 %
24.08.2019 21:02 26,3 C 45 % 1018,2 hPa 0,0 l/m 0,0 km/h N 360 0 min 0,000 mm 0,0 UV-I 0 W/m 13,4 C 26,3 C 0,0 km/h 100,00 %
24.08.2019 21:01 26,4 C 45 % 1018,2 hPa 0,0 l/m 0,0 km/h N 360 0 min 0,025 mm 0,0 UV-I 0 W/m 13,5 C 26,4 C 0,0 km/h 100,00 %
24.08.2019 21:00 26,4 C 45 % 1018,1 hPa 0,0 l/m 0,0 km/h N 360 0 min 0,000 mm 0,0 UV-I 0 W/m 13,5 C 26,4 C 0,0 km/h 100,00 %
24.08.2019 20:59 26,4 C 44 % 1018,1 hPa 0,0 l/m 0,0 km/h N 360 0 min 0,000 mm 0,0 UV-I 0 W/m 13,1 C 26,4 C 0,0 km/h 95,65 %
24.08.2019 20:58 26,5 C 43 % 1018,1 hPa 0,0 l/m 0,0 km/h N 360 0 min 0,000 mm 0,0 UV-I 0 W/m 12,9 C 26,5 C 0,0 km/h 100,00 %
24.08.2019 20:57 26,6 C 43 % 1018,2 hPa 0,0 l/m 0,0 km/h N 360 0 min 0,000 mm 0,0 UV-I 0 W/m 13,0 C 26,6 C 0,0 km/h 100,00 %
24.08.2019 20:56 26,6 C 43 % 1018,1 hPa 0,0 l/m 0,0 km/h N 360 0 min 0,000 mm 0,0 UV-I 0 W/m 13,0 C 26,6 C 0,0 km/h 100,00 %
24.08.2019 20:55 26,6 C 43 % 1018,1 hPa 0,0 l/m 0,0 km/h N 360 0 min 0,000 mm 0,0 UV-I 0 W/m 13,0 C 26,6 C 0,0 km/h 100,00 %
24.08.2019 20:54 26,7 C 43 % 1018,0 hPa 0,0 l/m 0,0 km/h N 360 0 min 0,000 mm 0,0 UV-I 0 W/m 13,1 C 26,7 C 0,0 km/h 100,00 %
24.08.2019 20:53 26,7 C 43 % 1018,0 hPa 0,0 l/m 0,0 km/h N 360 0 min 0,000 mm 0,0 UV-I 0 W/m 13,1 C 26,7 C 0,0 km/h 100,00 %
24.08.2019 20:52 26,8 C 42 % 1018,0 hPa 0,0 l/m 0,0 km/h N 360 0 min 0,000 mm 0,0 UV-I 0 W/m 12,8 C 26,8 C 0,0 km/h 100,00 %
24.08.2019 20:51 26,8 C 42 % 1018,1 hPa 0,0 l/m 0,0 km/h N 360 0 min 0,000 mm 0,0 UV-I 0 W/m 12,8 C 26,8 C 0,0 km/h 97,14 %
24.08.2019 20:50 26,8 C 42 % 1018,0 hPa 0,0 l/m 0,0 km/h N 360 0 min 0,000 mm 0,0 UV-I 0 W/m 12,8 C 26,8 C 0,0 km/h 100,00 %
24.08.2019 20:49 26,9 C 42 % 1018,0 hPa 0,0 l/m 0,0 km/h N 360 0 min 0,000 mm 0,0 UV-I 0 W/m 12,9 C 26,9 C 0,0 km/h 100,00 %
24.08.2019 20:48 26,9 C 41 % 1018,0 hPa 0,0 l/m 0,0 km/h N 360 0 min 0,000 mm 0,0 UV-I 0 W/m 12,5 C 26,9 C 0,0 km/h 100,00 %
24.08.2019 20:47 26,9 C 41 % 1018,0 hPa 0,0 l/m 0,0 km/h N 360 0 min 0,000 mm 0,0 UV-I 0 W/m 12,5 C 26,9 C 0,0 km/h 100,00 %
24.08.2019 20:46 27,0 C 41 % 1018,0 hPa 0,0 l/m 0,0 km/h N 360 0 min 0,000 mm 0,0 UV-I 0 W/m 12,6 C 27,0 C 0,0 km/h 100,00 %
24.08.2019 20:45 27,1 C 41 % 1018,0 hPa 0,0 l/m 0,0 km/h N 360 0 min 0,000 mm 0,0 UV-I 0 W/m 12,7 C 27,1 C 0,0 km/h 100,00 %
24.08.2019 20:44 27,1 C 41 % 1018,0 hPa 0,0 l/m 0,0 km/h N 360 0 min 0,000 mm 0,0 UV-I 0 W/m 12,7 C 27,1 C 0,0 km/h 100,00 %
24.08.2019 20:43 27,2 C 41 % 1017,9 hPa 0,0 l/m 0,0 km/h N 360 0 min 0,000 mm 0,0 UV-I 0 W/m 12,8 C 27,2 C 0,0 km/h 100,00 %
24.08.2019 20:42 27,2 C 41 % 1018,0 hPa 0,0 l/m 0,0 km/h N 360 0 min 0,000 mm 0,0 UV-I 0 W/m 12,8 C 27,2 C 0,0 km/h 100,00 %
24.08.2019 20:41 27,2 C 41 % 1017,9 hPa 0,0 l/m 0,0 km/h N 360 0 min 0,000 mm 0,0 UV-I 0 W/m 12,8 C 27,2 C 0,0 km/h 95,83 %
24.08.2019 20:40 27,3 C 41 % 1017,9 hPa 0,0 l/m 0,0 km/h N 360 0 min 0,000 mm 0,0 UV-I 0 W/m 12,9 C 27,3 C 0,0 km/h 100,00 %
24.08.2019 20:39 27,3 C 41 % 1017,9 hPa 0,0 l/m 0,0 km/h N 360 0 min 0,000 mm 0,0 UV-I 0 W/m 12,9 C 27,3 C 0,0 km/h 100,00 %
24.08.2019 20:38 27,4 C 41 % 1017,9 hPa 0,0 l/m 0,0 km/h N 360 0 min 0,000 mm 0,0 UV-I 0 W/m 13,0 C 27,4 C 0,0 km/h 100,00 %
24.08.2019 20:37 27,4 C 40 % 1017,9 hPa 0,0 l/m 0,0 km/h N 360 0 min 0,000 mm 0,0 UV-I 2 W/m 12,6 C 27,4 C 0,0 km/h 100,00 %
24.08.2019 20:36 27,5 C 40 % 1017,9 hPa 0,0 l/m 0,0 km/h N 360 0 min 0,000 mm 0,0 UV-I 5 W/m 12,7 C 27,5 C 0,0 km/h 100,00 %
24.08.2019 20:35 27,6 C 40 % 1017,9 hPa 0,0 l/m 0,0 km/h N 360 0 min 0,000 mm 0,0 UV-I 5 W/m 12,8 C 27,6 C 0,0 km/h 100,00 %
24.08.2019 20:34 27,6 C 40 % 1017,9 hPa 0,0 l/m 0,0 km/h N 360 0 min 0,000 mm 0,0 UV-I 5 W/m 12,8 C 27,6 C 0,0 km/h 100,00 %
24.08.2019 20:33 27,6 C 40 % 1017,9 hPa 0,0 l/m 0,0 km/h N 360 0 min 0,000 mm 0,0 UV-I 5 W/m 12,8 C 27,6 C 0,0 km/h 100,00 %
24.08.2019 20:32 27,7 C 39 % 1017,9 hPa 0,0 l/m 0,0 km/h N 360 0 min 0,000 mm 0,0 UV-I 7 W/m 12,5 C 27,7 C 0,0 km/h 100,00 %
24.08.2019 20:31 27,7 C 39 % 1017,9 hPa 0,0 l/m 0,0 km/h N 360 0 min 0,000 mm 0,0 UV-I 7 W/m 12,5 C 27,7 C 0,0 km/h 100,00 %
24.08.2019 20:30 27,8 C 39 % 1017,9 hPa 0,0 l/m 0,0 km/h N 360 0 min 0,000 mm 0,0 UV-I 8 W/m 12,6 C 27,8 C 0,0 km/h 100,00 %
24.08.2019 20:29 27,8 C 39 % 1017,9 hPa 0,0 l/m 0,1 km/h N 360 0 min 0,000 mm 0,0 UV-I 9 W/m 12,6 C 27,8 C 1,9 km/h 100,00 %
24.08.2019 20:28 27,8 C 39 % 1017,9 hPa 0,0 l/m 0,0 km/h N 360 0 min 0,000 mm 0,0 UV-I 9 W/m 12,6 C 27,8 C 0,0 km/h 100,00 %
24.08.2019 20:27 27,9 C 39 % 1017,9 hPa 0,0 l/m 0,1 km/h N 360 0 min 0,000 mm 0,0 UV-I 11 W/m 12,6 C 27,9 C 1,9 km/h 100,00 %
24.08.2019 20:26 27,9 C 39 % 1017,9 hPa 0,0 l/m 0,0 km/h N 360 0 min 0,000 mm 0,0 UV-I 11 W/m 12,6 C 27,9 C 0,0 km/h 100,00 %
24.08.2019 20:25 28,0 C 39 % 1017,8 hPa 0,0 l/m 0,0 km/h N 360 0 min 0,000 mm 0,0 UV-I 11 W/m 12,7 C 28,0 C 0,0 km/h 100,00 %
24.08.2019 20:24 28,1 C 38 % 1017,8 hPa 0,0 l/m 0,0 km/h N 360 0 min 0,000 mm 0,0 UV-I 12 W/m 12,4 C 28,1 C 0,0 km/h 100,00 %
24.08.2019 20:23 28,1 C 38 % 1017,8 hPa 0,0 l/m 0,0 km/h N 360 0 min 0,000 mm 0,0 UV-I 12 W/m 12,4 C 28,1 C 0,0 km/h 100,00 %
24.08.2019 20:22 28,1 C 38 % 1017,8 hPa 0,0 l/m 0,0 km/h N 360 0 min 0,000 mm 0,0 UV-I 12 W/m 12,4 C 28,1 C 0,0 km/h 100,00 %
24.08.2019 20:21 28,2 C 38 % 1017,8 hPa 0,0 l/m 0,1 km/h N 360 0 min 0,000 mm 0,0 UV-I 14 W/m 12,5 C 28,2 C 1,9 km/h 97,14 %
24.08.2019 20:20 28,2 C 38 % 1017,8 hPa 0,0 l/m 0,1 km/h N 360 0 min 0,000 mm 0,0 UV-I 14 W/m 12,5 C 28,2 C 1,9 km/h 100,00 %
24.08.2019 20:19 28,2 C 38 % 1017,8 hPa 0,0 l/m 0,2 km/h N 360 0 min 0,000 mm 0,0 UV-I 14 W/m 12,5 C 28,2 C 1,9 km/h 100,00 %
24.08.2019 20:18 28,3 C 38 % 1017,9 hPa 0,0 l/m 0,3 km/h N 360 0 min 0,000 mm 0,0 UV-I 15 W/m 12,6 C 28,3 C 1,9 km/h 100,00 %
24.08.2019 20:17 28,3 C 38 % 1017,8 hPa 0,0 l/m 0,0 km/h N 360 0 min 0,000 mm 0,0 UV-I 16 W/m 12,6 C 28,3 C 0,0 km/h 100,00 %
24.08.2019 20:16 28,3 C 38 % 1017,8 hPa 0,0 l/m 0,8 km/h N 360 0 min 0,000 mm 0,0 UV-I 16 W/m 12,6 C 28,3 C 1,9 km/h 100,00 %
24.08.2019 20:15 28,3 C 38 % 1017,8 hPa 0,0 l/m 0,7 km/h N 360 0 min 0,000 mm 0,0 UV-I 16 W/m 12,6 C 28,3 C 3,8 km/h 100,00 %
24.08.2019 20:14 28,4 C 38 % 1017,8 hPa 0,0 l/m 0,3 km/h N 360 0 min 0,000 mm 0,0 UV-I 18 W/m 12,7 C 28,4 C 1,9 km/h 95,83 %
24.08.2019 20:13 28,4 C 37 % 1017,8 hPa 0,0 l/m 1,3 km/h N 360 0 min 0,000 mm 0,0 UV-I 18 W/m 12,3 C 28,4 C 3,8 km/h 100,00 %
24.08.2019 20:12 28,4 C 37 % 1017,8 hPa 0,0 l/m 0,7 km/h N 360 0 min 0,000 mm 0,0 UV-I 18 W/m 12,3 C 28,4 C 1,9 km/h 100,00 %
24.08.2019 20:11 28,5 C 37 % 1017,8 hPa 0,0 l/m 0,7 km/h N 360 0 min 0,000 mm 0,0 UV-I 18 W/m 12,4 C 28,5 C 1,9 km/h 100,00 %
24.08.2019 20:10 28,5 C 37 % 1017,8 hPa 0,0 l/m 1,2 km/h N 360 0 min 0,000 mm 0,0 UV-I 18 W/m 12,4 C 28,5 C 3,8 km/h 100,00 %
24.08.2019 20:09 28,6 C 37 % 1017,9 hPa 0,0 l/m 0,2 km/h N 360 0 min 0,000 mm 0,0 UV-I 19 W/m 12,5 C 28,6 C 1,9 km/h 100,00 %
24.08.2019 20:08 28,6 C 37 % 1017,9 hPa 0,0 l/m 1,6 km/h N 360 0 min 0,000 mm 0,0 UV-I 19 W/m 12,5 C 28,6 C 3,8 km/h 95,65 %
24.08.2019 20:07 28,6 C 37 % 1017,9 hPa 0,0 l/m 0,7 km/h N 360 0 min 0,000 mm 0,0 UV-I 20 W/m 12,5 C 28,6 C 1,9 km/h 100,00 %
24.08.2019 20:06 28,6 C 37 % 1017,8 hPa 0,0 l/m 0,7 km/h N 360 0 min 0,000 mm 0,0 UV-I 21 W/m 12,5 C 28,6 C 1,9 km/h 92,31 %
24.08.2019 20:05 28,7 C 37 % 1017,8 hPa 0,0 l/m 2,9 km/h N 360 0 min 0,000 mm 0,0 UV-I 22 W/m 12,5 C 28,7 C 3,8 km/h 91,67 %
24.08.2019 20:04 28,7 C 37 % 1017,8 hPa 0,0 l/m 1,3 km/h N 360 0 min 0,000 mm 0,0 UV-I 23 W/m 12,5 C 28,7 C 3,8 km/h 100,00 %
24.08.2019 20:03 28,7 C 37 % 1017,8 hPa 0,0 l/m 2,2 km/h N 360 0 min 0,000 mm 0,0 UV-I 23 W/m 12,5 C 28,7 C 3,8 km/h 100,00 %
24.08.2019 20:02 28,7 C 37 % 1017,8 hPa 0,0 l/m 4,5 km/h N 360 0 min 0,000 mm 0,0 UV-I 24 W/m 12,5 C 28,7 C 5,7 km/h 96,00 %
24.08.2019 20:01 28,8 C 37 % 1017,8 hPa 0,0 l/m 2,0 km/h N 360 0 min 0,127 mm 0,0 UV-I 25 W/m 12,6 C 28,8 C 3,8 km/h 96,15 %
24.08.2019 20:00 28,8 C 37 % 1017,8 hPa 0,0 l/m 2,8 km/h N 360 0 min 0,000 mm 0,0 UV-I 25 W/m 12,6 C 28,8 C 3,8 km/h 100,00 %
24.08.2019 19:59 28,8 C 36 % 1017,8 hPa 0,0 l/m 3,1 km/h N 360 0 min 0,000 mm 0,0 UV-I 25 W/m 12,2 C 28,8 C 5,7 km/h 86,96 %
24.08.2019 19:58 28,9 C 36 % 1017,8 hPa 0,0 l/m 3,7 km/h N 360 0 min 0,000 mm 0,0 UV-I 26 W/m 12,3 C 28,9 C 5,7 km/h 97,37 %
24.08.2019 19:57 28,9 C 36 % 1017,8 hPa 0,0 l/m 3,1 km/h N 360 0 min 0,000 mm 0,0 UV-I 26 W/m 12,3 C 28,9 C 5,7 km/h 100,00 %
24.08.2019 19:56 28,9 C 36 % 1017,8 hPa 0,0 l/m 4,2 km/h N 360 0 min 0,000 mm 0,0 UV-I 26 W/m 12,3 C 28,9 C 5,7 km/h 95,83 %
24.08.2019 19:55 29,0 C 36 % 1017,8 hPa 0,0 l/m 2,6 km/h N 360 0 min 0,000 mm 0,0 UV-I 27 W/m 12,4 C 29,0 C 3,8 km/h 100,00 %
24.08.2019 19:54 29,0 C 36 % 1017,8 hPa 0,0 l/m 3,5 km/h N 360 0 min 0,000 mm 0,0 UV-I 28 W/m 12,4 C 29,0 C 5,7 km/h 95,83 %
24.08.2019 19:53 29,1 C 36 % 1017,8 hPa 0,0 l/m 2,0 km/h N 360 0 min 0,000 mm 0,0 UV-I 28 W/m 12,5 C 29,1 C 3,8 km/h 100,00 %
24.08.2019 19:52 29,1 C 36 % 1017,8 hPa 0,0 l/m 2,2 km/h N 360 0 min 0,000 mm 0,0 UV-I 30 W/m 12,5 C 29,1 C 5,7 km/h 95,83 %
24.08.2019 19:51 29,1 C 36 % 1017,8 hPa 0,0 l/m 2,5 km/h N 360 0 min 0,000 mm 0,0 UV-I 30 W/m 12,5 C 29,1 C 5,7 km/h 100,00 %
24.08.2019 19:50 29,1 C 36 % 1017,8 hPa 0,0 l/m 3,7 km/h N 360 0 min 0,000 mm 0,0 UV-I 30 W/m 12,5 C 29,1 C 5,7 km/h 91,67 %
24.08.2019 19:49 29,2 C 36 % 1017,8 hPa 0,0 l/m 1,9 km/h N 360 0 min 0,000 mm 0,0 UV-I 31 W/m 12,6 C 29,2 C 3,8 km/h 100,00 %
24.08.2019 19:48 29,2 C 36 % 1017,8 hPa 0,0 l/m 4,2 km/h N 360 0 min 0,000 mm 0,0 UV-I 32 W/m 12,6 C 29,2 C 5,7 km/h 96,30 %
24.08.2019 19:47 29,2 C 35 % 1017,9 hPa 0,0 l/m 5,0 km/h N 360 0 min 0,000 mm 0,0 UV-I 32 W/m 12,1 C 29,2 C 7,7 km/h 100,00 %
24.08.2019 19:46 29,2 C 35 % 1017,8 hPa 0,0 l/m 3,1 km/h N 5 0 min 0,000 mm 0,0 UV-I 32 W/m 12,1 C 29,2 C 5,7 km/h 96,30 %
24.08.2019 19:45 29,3 C 35 % 1017,8 hPa 0,0 l/m 5,0 km/h N 5 0 min 0,000 mm 0,0 UV-I 33 W/m 12,2 C 29,3 C 7,7 km/h 95,83 %
24.08.2019 19:44 29,3 C 35 % 1017,8 hPa 0,0 l/m 3,4 km/h N 5 0 min 0,000 mm 0,0 UV-I 33 W/m 12,2 C 29,3 C 7,7 km/h 100,00 %
24.08.2019 19:43 29,3 C 35 % 1017,8 hPa 0,0 l/m 4,1 km/h N 5 0 min 0,000 mm 0,0 UV-I 33 W/m 12,2 C 29,3 C 7,7 km/h 91,30 %
24.08.2019 19:42 29,3 C 35 % 1017,8 hPa 0,0 l/m 2,8 km/h N 5 0 min 0,000 mm 0,0 UV-I 34 W/m 12,2 C 29,3 C 3,8 km/h 100,00 %
24.08.2019 19:41 29,4 C 35 % 1017,8 hPa 0,0 l/m 3,1 km/h N 5 0 min 0,000 mm 0,0 UV-I 35 W/m 12,3 C 29,4 C 5,7 km/h 95,83 %
24.08.2019 19:40 29,4 C 35 % 1017,8 hPa 0,0 l/m 4,9 km/h N 360 0 min 0,000 mm 0,0 UV-I 35 W/m 12,3 C 29,4 C 7,7 km/h 95,65 %
24.08.2019 19:39 29,4 C 35 % 1017,8 hPa 0,0 l/m 2,1 km/h N 360 0 min 0,000 mm 0,0 UV-I 37 W/m 12,3 C 29,4 C 3,8 km/h 100,00 %
24.08.2019 19:38 29,5 C 35 % 1017,8 hPa 0,0 l/m 5,3 km/h N 360 0 min 0,000 mm 0,0 UV-I 40 W/m 12,4 C 29,5 C 7,7 km/h 95,65 %
24.08.2019 19:37 29,6 C 35 % 1017,9 hPa 0,0 l/m 3,4 km/h N 5 0 min 0,000 mm 0,0 UV-I 54 W/m 12,5 C 29,6 C 5,7 km/h 100,00 %
24.08.2019 19:36 29,6 C 34 % 1017,9 hPa 0,0 l/m 4,7 km/h N 5 0 min 0,000 mm 0,0 UV-I 76 W/m 12,1 C 29,6 C 7,7 km/h 95,65 %
24.08.2019 19:35 29,6 C 35 % 1017,8 hPa 0,0 l/m 4,9 km/h N 9 0 min 0,000 mm 0,0 UV-I 90 W/m 12,5 C 29,6 C 7,7 km/h 100,00 %
24.08.2019 19:34 29,6 C 35 % 1017,9 hPa 0,0 l/m 4,4 km/h N-NO 23 0 min 0,000 mm 0,0 UV-I 93 W/m 12,5 C 29,6 C 5,7 km/h 96,15 %
24.08.2019 19:33 29,6 C 34 % 1017,9 hPa 0,0 l/m 5,6 km/h N 9 0 min 0,000 mm 0,0 UV-I 96 W/m 12,1 C 29,6 C 9,6 km/h 100,00 %
24.08.2019 19:32 29,7 C 34 % 1017,9 hPa 0,0 l/m 9,0 km/h N 360 0 min 0,000 mm 0,0 UV-I 97 W/m 12,1 C 29,4 C 15,3 km/h 96,15 %
24.08.2019 19:31 29,7 C 34 % 1017,9 hPa 0,0 l/m 3,9 km/h N 5 0 min 0,000 mm 0,0 UV-I 100 W/m 12,1 C 29,7 C 7,7 km/h 96,30 %
24.08.2019 19:30 29,7 C 34 % 1017,9 hPa 0,0 l/m 6,9 km/h N 11 0 min 0,000 mm 0,0 UV-I 103 W/m 12,1 C 29,6 C 9,6 km/h 100,00 %
24.08.2019 19:29 29,7 C 34 % 1017,8 hPa 0,0 l/m 7,7 km/h N 5 0 min 0,000 mm 0,0 UV-I 104 W/m 12,1 C 29,6 C 9,6 km/h 100,00 %
24.08.2019 19:28 29,8 C 34 % 1017,8 hPa 0,0 l/m 6,1 km/h N 11 0 min 0,000 mm 0,0 UV-I 105 W/m 12,2 C 29,8 C 9,6 km/h 95,83 %
24.08.2019 19:27 29,8 C 34 % 1017,8 hPa 0,0 l/m 6,7 km/h N 5 0 min 0,000 mm 0,0 UV-I 107 W/m 12,2 C 29,8 C 11,5 km/h 95,83 %
24.08.2019 19:26 29,8 C 34 % 1017,8 hPa 0,0 l/m 3,7 km/h N 5 0 min 0,000 mm 0,0 UV-I 107 W/m 12,2 C 29,8 C 5,7 km/h 100,00 %
24.08.2019 19:25 29,8 C 34 % 1017,8 hPa 0,0 l/m 8,2 km/h N 5 0 min 0,000 mm 0,0 UV-I 113 W/m 12,2 C 29,6 C 9,6 km/h 91,30 %
24.08.2019 19:24 29,8 C 34 % 1017,8 hPa 0,0 l/m 7,9 km/h N 5 0 min 0,000 mm 0,0 UV-I 120 W/m 12,2 C 29,6 C 11,5 km/h 100,00 %
24.08.2019 19:23 29,9 C 34 % 1017,9 hPa 0,0 l/m 3,8 km/h N-NW 348 0 min 0,000 mm 0,0 UV-I 124 W/m 12,3 C 29,9 C 5,7 km/h 97,56 %
24.08.2019 19:22 29,9 C 34 % 1017,9 hPa 0,0 l/m 8,2 km/h N-NW 344 0 min 0,000 mm 0,0 UV-I 128 W/m 12,3 C 29,7 C 13,4 km/h 90,91 %
24.08.2019 19:21 29,9 C 34 % 1017,8 hPa 0,0 l/m 8,6 km/h N-NO 14 0 min 0,000 mm 0,0 UV-I 131 W/m 12,3 C 29,7 C 13,4 km/h 100,00 %
24.08.2019 19:20 29,9 C 34 % 1017,9 hPa 0,0 l/m 8,3 km/h N 360 0 min 0,000 mm 0,0 UV-I 134 W/m 12,3 C 29,7 C 13,4 km/h 94,74 %
24.08.2019 19:19 29,9 C 35 % 1017,9 hPa 0,0 l/m 5,9 km/h N 9 0 min 0,000 mm 0,0 UV-I 137 W/m 12,8 C 29,9 C 9,6 km/h 100,00 %
24.08.2019 19:18 29,9 C 35 % 1017,9 hPa 0,0 l/m 4,1 km/h N 355 0 min 0,000 mm 0,0 UV-I 140 W/m 12,8 C 29,9 C 7,7 km/h 96,55 %
24.08.2019 19:17 29,9 C 36 % 1017,9 hPa 0,0 l/m 4,0 km/h N 355 0 min 0,000 mm 0,0 UV-I 144 W/m 13,2 C 29,9 C 7,7 km/h 100,00 %
24.08.2019 19:16 29,9 C 35 % 1017,9 hPa 0,0 l/m 4,5 km/h N 355 0 min 0,000 mm 0,0 UV-I 147 W/m 12,8 C 29,9 C 5,7 km/h 100,00 %
24.08.2019 19:15 29,9 C 35 % 1017,9 hPa 0,0 l/m 5,5 km/h N 355 0 min 0,000 mm 0,0 UV-I 149 W/m 12,8 C 29,9 C 7,7 km/h 100,00 %
24.08.2019 19:14 29,9 C 35 % 1017,9 hPa 0,0 l/m 6,2 km/h N 355 0 min 0,000 mm 0,0 UV-I 153 W/m 12,8 C 29,9 C 7,7 km/h 100,00 %
24.08.2019 19:13 29,9 C 35 % 1017,9 hPa 0,0 l/m 6,7 km/h N 355 0 min 0,000 mm 0,0 UV-I 157 W/m 12,8 C 29,9 C 9,6 km/h 100,00 %
24.08.2019 19:12 30,0 C 35 % 1017,9 hPa 0,0 l/m 8,3 km/h N-NW 346 0 min 0,000 mm 0,0 UV-I 160 W/m 12,8 C 29,8 C 13,4 km/h 100,00 %
24.08.2019 19:11 30,1 C 35 % 1017,9 hPa 0,0 l/m 5,3 km/h N 5 0 min 0,000 mm 0,0 UV-I 162 W/m 12,9 C 30,1 C 7,7 km/h 95,65 %
24.08.2019 19:10 30,1 C 35 % 1017,9 hPa 0,0 l/m 6,0 km/h N-NO 12 0 min 0,000 mm 0,0 UV-I 165 W/m 12,9 C 30,1 C 7,7 km/h 100,00 %
24.08.2019 19:09 30,1 C 35 % 1017,9 hPa 0,0 l/m 7,6 km/h N 360 0 min 0,000 mm 0,0 UV-I 170 W/m 12,9 C 30,0 C 9,6 km/h 100,00 %
24.08.2019 19:08 30,1 C 35 % 1018,0 hPa 0,0 l/m 7,4 km/h N 9 0 min 0,000 mm 0,0 UV-I 171 W/m 12,9 C 30,0 C 9,6 km/h 100,00 %
24.08.2019 19:07 30,1 C 35 % 1018,0 hPa 0,0 l/m 5,7 km/h N 5 0 min 0,000 mm 0,0 UV-I 174 W/m 12,9 C 30,1 C 7,7 km/h 100,00 %
24.08.2019 19:06 30,1 C 35 % 1018,0 hPa 0,0 l/m 5,1 km/h N 5 0 min 0,000 mm 0,0 UV-I 177 W/m 12,9 C 30,1 C 7,7 km/h 100,00 %
24.08.2019 19:05 30,1 C 35 % 1018,0 hPa 0,0 l/m 7,3 km/h N 5 0 min 0,000 mm 0,0 UV-I 181 W/m 12,9 C 30,0 C 9,6 km/h 100,00 %
24.08.2019 19:04 30,1 C 35 % 1018,0 hPa 0,0 l/m 5,2 km/h N 5 0 min 0,000 mm 0,0 UV-I 186 W/m 12,9 C 30,1 C 7,7 km/h 100,00 %
24.08.2019 19:03 30,1 C 35 % 1018,0 hPa 0,0 l/m 5,8 km/h N 5 0 min 0,000 mm 0,0 UV-I 189 W/m 12,9 C 30,1 C 7,7 km/h 100,00 %
24.08.2019 19:02 30,1 C 35 % 1018,0 hPa 0,0 l/m 7,9 km/h N 11 0 min 0,001 mm 0,0 UV-I 192 W/m 12,9 C 30,0 C 9,6 km/h 96,15 %
24.08.2019 19:01 30,2 C 35 % 1018,0 hPa 0,0 l/m 8,8 km/h N 360 0 min 0,279 mm 0,4 UV-I 196 W/m 13,0 C 30,0 C 15,3 km/h 96,30 %
24.08.2019 19:00 30,2 C 35 % 1018,0 hPa 0,0 l/m 7,7 km/h N-NO 17 0 min 0,000 mm 0,5 UV-I 199 W/m 13,0 C 30,1 C 9,6 km/h 93,33 %
24.08.2019 18:59 30,2 C 35 % 1018,0 hPa 0,0 l/m 8,4 km/h N 5 0 min 0,000 mm 0,5 UV-I 202 W/m 13,0 C 30,0 C 11,5 km/h 100,00 %
24.08.2019 18:58 30,3 C 34 % 1018,0 hPa 0,0 l/m 7,5 km/h N 9 0 min 0,000 mm 0,5 UV-I 204 W/m 12,7 C 30,2 C 9,6 km/h 100,00 %
24.08.2019 18:57 30,3 C 34 % 1018,0 hPa 0,0 l/m 8,0 km/h N 355 0 min 0,000 mm 0,5 UV-I 207 W/m 12,7 C 30,2 C 9,6 km/h 100,00 %
24.08.2019 18:56 30,3 C 34 % 1018,1 hPa 0,0 l/m 6,5 km/h N 355 0 min 0,000 mm 0,5 UV-I 211 W/m 12,7 C 30,3 C 9,6 km/h 100,00 %
24.08.2019 18:55 30,4 C 33 % 1018,1 hPa 0,0 l/m 8,1 km/h N-NW 344 0 min 0,000 mm 0,5 UV-I 214 W/m 12,3 C 30,3 C 9,6 km/h 100,00 %
24.08.2019 18:54 30,4 C 33 % 1018,0 hPa 0,0 l/m 9,3 km/h N 355 0 min 0,000 mm 0,5 UV-I 217 W/m 12,3 C 30,2 C 13,4 km/h 100,00 %
24.08.2019 18:53 30,4 C 33 % 1018,1 hPa 0,0 l/m 6,5 km/h N 5 0 min 0,000 mm 0,5 UV-I 221 W/m 12,3 C 30,4 C 9,6 km/h 100,00 %
24.08.2019 18:52 30,5 C 33 % 1018,1 hPa 0,0 l/m 9,9 km/h N 360 0 min 0,000 mm 0,5 UV-I 225 W/m 12,4 C 30,2 C 15,3 km/h 100,00 %
24.08.2019 18:51 30,6 C 34 % 1018,1 hPa 0,0 l/m 7,1 km/h N 5 0 min 0,000 mm 0,6 UV-I 228 W/m 12,9 C 30,5 C 15,3 km/h 100,00 %
24.08.2019 18:50 30,6 C 34 % 1018,1 hPa 0,0 l/m 5,5 km/h N 5 0 min 0,000 mm 0,6 UV-I 231 W/m 12,9 C 30,6 C 7,7 km/h 100,00 %
24.08.2019 18:49 30,6 C 35 % 1018,1 hPa 0,0 l/m 2,9 km/h N 11 0 min 0,000 mm 0,6 UV-I 234 W/m 13,4 C 30,6 C 7,7 km/h 100,00 %
24.08.2019 18:48 30,6 C 35 % 1018,1 hPa 0,0 l/m 5,7 km/h O-NO 59 0 min 0,000 mm 0,6 UV-I 237 W/m 13,4 C 30,6 C 9,6 km/h 100,00 %
24.08.2019 18:47 30,6 C 35 % 1018,1 hPa 0,0 l/m 3,8 km/h N 5 0 min 0,000 mm 0,6 UV-I 244 W/m 13,4 C 30,6 C 5,7 km/h 96,30 %
24.08.2019 18:46 30,6 C 35 % 1018,1 hPa 0,0 l/m 3,4 km/h N 360 0 min 0,000 mm 0,6 UV-I 245 W/m 13,4 C 30,6 C 7,7 km/h 100,00 %
24.08.2019 18:45 30,5 C 35 % 1018,1 hPa 0,0 l/m 1,0 km/h N 9 0 min 0,000 mm 0,6 UV-I 248 W/m 13,3 C 30,5 C 3,8 km/h 100,00 %
24.08.2019 18:44 30,4 C 35 % 1018,1 hPa 0,0 l/m 2,9 km/h N 9 0 min 0,000 mm 0,6 UV-I 252 W/m 13,2 C 30,4 C 3,8 km/h 100,00 %
24.08.2019 18:43 30,4 C 35 % 1018,1 hPa 0,0 l/m 0,5 km/h N 9 0 min 0,000 mm 0,6 UV-I 254 W/m 13,2 C 30,4 C 1,9 km/h 100,00 %
24.08.2019 18:42 30,3 C 35 % 1018,2 hPa 0,0 l/m 5,9 km/h N 9 0 min 0,000 mm 0,6 UV-I 258 W/m 13,1 C 30,3 C 7,7 km/h 100,00 %
24.08.2019 18:41 30,4 C 34 % 1018,2 hPa 0,0 l/m 7,7 km/h N 355 0 min 0,000 mm 0,6 UV-I 260 W/m 12,7 C 30,3 C 9,6 km/h 100,00 %
24.08.2019 18:40 30,4 C 34 % 1018,2 hPa 0,0 l/m 9,3 km/h N-NO 13 0 min 0,000 mm 0,7 UV-I 264 W/m 12,7 C 30,2 C 15,3 km/h 100,00 %
24.08.2019 18:39 30,4 C 33 % 1018,2 hPa 0,0 l/m 9,2 km/h N 5 0 min 0,000 mm 0,7 UV-I 267 W/m 12,3 C 30,2 C 11,5 km/h 100,00 %
24.08.2019 18:38 30,5 C 34 % 1018,2 hPa 0,0 l/m 7,8 km/h N 360 0 min 0,000 mm 0,7 UV-I 270 W/m 12,8 C 30,4 C 9,6 km/h 100,00 %
24.08.2019 18:37 30,5 C 34 % 1018,2 hPa 0,0 l/m 5,9 km/h N 9 0 min 0,000 mm 0,7 UV-I 273 W/m 12,8 C 30,5 C 13,4 km/h 100,00 %
24.08.2019 18:36 30,5 C 34 % 1018,2 hPa 0,0 l/m 8,4 km/h N-NO 23 0 min 0,000 mm 0,7 UV-I 277 W/m 12,8 C 30,3 C 13,4 km/h 100,00 %
24.08.2019 18:35 30,5 C 34 % 1018,3 hPa 0,0 l/m 6,7 km/h N 360 0 min 0,000 mm 0,7 UV-I 275 W/m 12,8 C 30,5 C 9,6 km/h 100,00 %
24.08.2019 18:34 30,5 C 34 % 1018,2 hPa 0,0 l/m 5,4 km/h N 5 0 min 0,000 mm 0,7 UV-I 280 W/m 12,8 C 30,5 C 7,7 km/h 100,00 %
24.08.2019 18:33 30,4 C 34 % 1018,3 hPa 0,0 l/m 4,6 km/h N 5 0 min 0,000 mm 0,7 UV-I 284 W/m 12,7 C 30,4 C 9,6 km/h 97,37 %
24.08.2019 18:32 30,4 C 34 % 1018,2 hPa 0,0 l/m 2,6 km/h N 5 1 min 0,000 mm 0,8 UV-I 288 W/m 12,7 C 30,4 C 5,7 km/h 100,00 %
24.08.2019 18:31 30,4 C 34 % 1018,2 hPa 0,0 l/m 7,4 km/h N 5 1 min 0,000 mm 0,8 UV-I 291 W/m 12,7 C 30,3 C 9,6 km/h 100,00 %
24.08.2019 18:30 30,4 C 34 % 1018,3 hPa 0,0 l/m 9,6 km/h N 5 1 min 0,000 mm 0,8 UV-I 294 W/m 12,7 C 30,2 C 15,3 km/h 96,30 %
24.08.2019 18:29 30,4 C 34 % 1018,2 hPa 0,0 l/m 7,7 km/h N 360 1 min 0,000 mm 0,8 UV-I 298 W/m 12,7 C 30,3 C 9,6 km/h 100,00 %
24.08.2019 18:28 30,4 C 34 % 1018,2 hPa 0,0 l/m 7,4 km/h N 5 1 min 0,000 mm 0,8 UV-I 301 W/m 12,7 C 30,3 C 9,6 km/h 100,00 %
24.08.2019 18:27 30,4 C 34 % 1018,3 hPa 0,0 l/m 6,6 km/h N 355 1 min 0,000 mm 0,8 UV-I 303 W/m 12,7 C 30,4 C 9,6 km/h 95,65 %
24.08.2019 18:26 30,4 C 34 % 1018,3 hPa 0,0 l/m 5,8 km/h N 5 1 min 0,000 mm 0,8 UV-I 305 W/m 12,7 C 30,4 C 9,6 km/h 100,00 %
24.08.2019 18:25 30,4 C 34 % 1018,3 hPa 0,0 l/m 4,5 km/h N 355 1 min 0,000 mm 0,8 UV-I 307 W/m 12,7 C 30,4 C 7,7 km/h 100,00 %
24.08.2019 18:24 30,4 C 34 % 1018,3 hPa 0,0 l/m 8,8 km/h N 5 1 min 0,000 mm 0,9 UV-I 309 W/m 12,7 C 30,2 C 15,3 km/h 95,65 %
24.08.2019 18:23 30,5 C 34 % 1018,3 hPa 0,0 l/m 8,3 km/h N-NW 340 1 min 0,000 mm 0,9 UV-I 313 W/m 12,8 C 30,4 C 15,3 km/h 100,00 %
24.08.2019 18:22 30,5 C 33 % 1018,3 hPa 0,0 l/m 9,3 km/h N-NO 13 1 min 0,000 mm 0,9 UV-I 315 W/m 12,4 C 30,3 C 15,3 km/h 100,00 %
24.08.2019 18:21 30,6 C 34 % 1018,3 hPa 0,0 l/m 9,7 km/h N 355 1 min 0,000 mm 0,9 UV-I 316 W/m 12,9 C 30,4 C 15,3 km/h 100,00 %
24.08.2019 18:20 30,7 C 34 % 1018,3 hPa 0,0 l/m 7,1 km/h N 355 1 min 0,000 mm 0,9 UV-I 319 W/m 13,0 C 30,6 C 9,6 km/h 100,00 %
24.08.2019 18:19 30,7 C 33 % 1018,3 hPa 0,0 l/m 6,6 km/h N-NO 13 1 min 0,000 mm 0,9 UV-I 321 W/m 12,6 C 30,7 C 11,5 km/h 100,00 %
24.08.2019 18:18 30,7 C 34 % 1018,3 hPa 0,0 l/m 7,3 km/h N-NW 331 1 min 0,000 mm 0,9 UV-I 325 W/m 13,0 C 30,6 C 9,6 km/h 100,00 %
24.08.2019 18:17 30,7 C 34 % 1018,3 hPa 0,0 l/m 4,0 km/h N-NW 344 1 min 0,000 mm 0,9 UV-I 328 W/m 13,0 C 30,7 C 7,7 km/h 100,00 %
24.08.2019 18:16 30,7 C 34 % 1018,3 hPa 0,0 l/m 6,3 km/h N-NW 337 1 min 0,000 mm 1,0 UV-I 332 W/m 13,0 C 30,7 C 9,6 km/h 100,00 %
24.08.2019 18:15 30,7 C 35 % 1018,3 hPa 0,0 l/m 8,4 km/h N 360 1 min 0,000 mm 1,0 UV-I 335 W/m 13,5 C 30,6 C 11,5 km/h 100,00 %
24.08.2019 18:14 30,6 C 34 % 1018,3 hPa 0,0 l/m 2,9 km/h N 9 1 min 0,000 mm 1,0 UV-I 338 W/m 12,9 C 30,6 C 7,7 km/h 100,00 %
24.08.2019 18:13 30,6 C 34 % 1018,4 hPa 0,0 l/m 6,5 km/h N 11 1 min 0,000 mm 1,0 UV-I 341 W/m 12,9 C 30,6 C 9,6 km/h 100,00 %
24.08.2019 18:12 30,6 C 34 % 1018,3 hPa 0,0 l/m 6,6 km/h N 5 1 min 0,000 mm 1,0 UV-I 343 W/m 12,9 C 30,6 C 9,6 km/h 100,00 %
24.08.2019 18:11 30,6 C 34 % 1018,3 hPa 0,0 l/m 8,4 km/h NW 325 1 min 0,000 mm 1,0 UV-I 346 W/m 12,9 C 30,5 C 11,5 km/h 100,00 %
24.08.2019 18:10 30,6 C 33 % 1018,3 hPa 0,0 l/m 6,8 km/h N 5 1 min 0,000 mm 1,0 UV-I 350 W/m 12,5 C 30,6 C 11,5 km/h 100,00 %
24.08.2019 18:09 30,7 C 33 % 1018,3 hPa 0,0 l/m 5,8 km/h N-NW 333 1 min 0,000 mm 1,1 UV-I 353 W/m 12,6 C 30,7 C 9,6 km/h 100,00 %
24.08.2019 18:08 30,7 C 33 % 1018,3 hPa 0,0 l/m 8,2 km/h N 355 1 min 0,000 mm 1,1 UV-I 354 W/m 12,6 C 30,6 C 11,5 km/h 100,00 %
24.08.2019 18:07 30,8 C 33 % 1018,4 hPa 0,0 l/m 9,0 km/h NW 319 1 min 0,000 mm 1,1 UV-I 358 W/m 12,6 C 30,6 C 15,3 km/h 100,00 %
24.08.2019 18:06 30,8 C 33 % 1018,4 hPa 0,0 l/m 5,1 km/h N-NW 346 1 min 0,000 mm 1,1 UV-I 360 W/m 12,6 C 30,8 C 11,5 km/h 100,00 %
24.08.2019 18:05 30,8 C 33 % 1018,4 hPa 0,0 l/m 3,8 km/h N-NW 346 1 min 0,000 mm 1,1 UV-I 363 W/m 12,6 C 30,8 C 7,7 km/h 100,00 %
24.08.2019 18:04 30,8 C 33 % 1018,4 hPa 0,0 l/m 6,4 km/h N-NW 345 1 min 0,000 mm 1,1 UV-I 366 W/m 12,6 C 30,8 C 9,6 km/h 100,00 %
24.08.2019 18:03 30,8 C 33 % 1018,4 hPa 0,0 l/m 7,2 km/h N-NO 14 1 min 0,000 mm 1,1 UV-I 371 W/m 12,6 C 30,7 C 9,6 km/h 100,00 %
24.08.2019 18:02 30,8 C 33 % 1018,4 hPa 0,0 l/m 6,1 km/h N-NW 337 1 min 0,000 mm 1,2 UV-I 373 W/m 12,6 C 30,8 C 9,6 km/h 100,00 %
24.08.2019 18:01 30,8 C 32 % 1018,4 hPa 0,0 l/m 3,7 km/h N-NW 343 1 min 0,355 mm 1,2 UV-I 376 W/m 12,2 C 30,8 C 5,7 km/h 100,00 %
24.08.2019 18:00 30,9 C 32 % 1018,4 hPa 0,0 l/m 4,8 km/h NW 325 1 min 0,000 mm 1,2 UV-I 381 W/m 12,3 C 30,9 C 7,7 km/h 100,00 %
24.08.2019 17:59 30,9 C 32 % 1018,4 hPa 0,0 l/m 5,9 km/h N 355 1 min 0,000 mm 1,2 UV-I 383 W/m 12,3 C 30,9 C 9,6 km/h 100,00 %
24.08.2019 17:58 30,9 C 33 % 1018,4 hPa 0,0 l/m 8,1 km/h N-NW 344 1 min 0,000 mm 1,2 UV-I 385 W/m 12,7 C 30,8 C 15,3 km/h 96,30 %
24.08.2019 17:57 30,9 C 32 % 1018,4 hPa 0,0 l/m 4,7 km/h NW 304 1 min 0,000 mm 1,2 UV-I 387 W/m 12,3 C 30,9 C 5,7 km/h 100,00 %
24.08.2019 17:56 30,9 C 33 % 1018,4 hPa 0,0 l/m 4,0 km/h W-NW 303 1 min 0,000 mm 1,2 UV-I 389 W/m 12,7 C 30,9 C 5,7 km/h 100,00 %
24.08.2019 17:55 30,8 C 35 % 1018,4 hPa 0,0 l/m 2,7 km/h W 270 1 min 0,000 mm 1,2 UV-I 392 W/m 13,5 C 30,8 C 5,7 km/h 100,00 %
24.08.2019 17:54 30,8 C 34 % 1018,5 hPa 0,0 l/m 1,6 km/h W 272 1 min 0,000 mm 1,3 UV-I 394 W/m 13,1 C 30,8 C 5,7 km/h 100,00 %
24.08.2019 17:53 30,7 C 34 % 1018,5 hPa 0,0 l/m 2,0 km/h W-NW 286 1 min 0,000 mm 1,3 UV-I 397 W/m 13,0 C 30,7 C 3,8 km/h 100,00 %
24.08.2019 17:52 30,7 C 33 % 1018,5 hPa 0,0 l/m 2,7 km/h W-NW 286 1 min 0,000 mm 1,3 UV-I 399 W/m 12,6 C 30,7 C 5,7 km/h 100,00 %
24.08.2019 17:51 30,6 C 33 % 1018,5 hPa 0,0 l/m 3,3 km/h NW 315 1 min 0,000 mm 1,3 UV-I 403 W/m 12,5 C 30,6 C 5,7 km/h 100,00 %
24.08.2019 17:50 30,6 C 32 % 1018,5 hPa 0,0 l/m 3,9 km/h N 350 1 min 0,000 mm 1,3 UV-I 406 W/m 12,0 C 30,6 C 5,7 km/h 100,00 %
24.08.2019 17:49 30,6 C 32 % 1018,5 hPa 0,0 l/m 3,3 km/h N 350 1 min 0,000 mm 1,3 UV-I 408 W/m 12,0 C 30,6 C 5,7 km/h 100,00 %
24.08.2019 17:48 30,7 C 32 % 1018,5 hPa 0,0 l/m 5,3 km/h N 350 1 min 0,000 mm 1,3 UV-I 410 W/m 12,1 C 30,7 C 7,7 km/h 100,00 %
24.08.2019 17:47 30,7 C 32 % 1018,5 hPa 0,0 l/m 4,5 km/h N 351 1 min 0,000 mm 1,3 UV-I 414 W/m 12,1 C 30,7 C 5,7 km/h 96,55 %
24.08.2019 17:46 30,7 C 32 % 1018,5 hPa 0,0 l/m 4,9 km/h N 355 1 min 0,000 mm 1,4 UV-I 416 W/m 12,1 C 30,7 C 7,7 km/h 100,00 %
24.08.2019 17:45 30,8 C 32 % 1018,6 hPa 0,0 l/m 8,1 km/h N 355 1 min 0,000 mm 1,4 UV-I 421 W/m 12,2 C 30,7 C 9,6 km/h 100,00 %
24.08.2019 17:44 30,8 C 32 % 1018,6 hPa 0,0 l/m 8,0 km/h NW 315 1 min 0,000 mm 1,4 UV-I 424 W/m 12,2 C 30,7 C 11,5 km/h 100,00 %
24.08.2019 17:43 30,8 C 32 % 1018,6 hPa 0,0 l/m 7,3 km/h N 355 1 min 0,000 mm 1,4 UV-I 427 W/m 12,2 C 30,7 C 9,6 km/h 100,00 %
24.08.2019 17:42 30,9 C 32 % 1018,6 hPa 0,0 l/m 7,9 km/h N 355 1 min 0,000 mm 1,4 UV-I 428 W/m 12,3 C 30,8 C 9,6 km/h 100,00 %
24.08.2019 17:41 30,9 C 32 % 1018,6 hPa 0,0 l/m 4,3 km/h N-NW 327 1 min 0,000 mm 1,4 UV-I 431 W/m 12,3 C 30,9 C 5,7 km/h 100,00 %
24.08.2019 17:40 30,9 C 32 % 1018,6 hPa 0,0 l/m 2,6 km/h NW 323 1 min 0,000 mm 1,5 UV-I 432 W/m 12,3 C 30,9 C 3,8 km/h 96,15 %
24.08.2019 17:39 30,8 C 32 % 1018,6 hPa 0,0 l/m 2,1 km/h NW 323 1 min 0,000 mm 1,5 UV-I 433 W/m 12,2 C 30,8 C 5,7 km/h 100,00 %
24.08.2019 17:38 30,8 C 32 % 1018,6 hPa 0,0 l/m 2,7 km/h NW 323 1 min 0,000 mm 1,5 UV-I 437 W/m 12,2 C 30,8 C 3,8 km/h 100,00 %
24.08.2019 17:37 30,8 C 32 % 1018,6 hPa 0,0 l/m 5,0 km/h NW 317 1 min 0,000 mm 1,5 UV-I 439 W/m 12,2 C 30,8 C 9,6 km/h 100,00 %
24.08.2019 17:36 30,8 C 32 % 1018,6 hPa 0,0 l/m 6,2 km/h NW 319 1 min 0,000 mm 1,5 UV-I 441 W/m 12,2 C 30,8 C 7,7 km/h 100,00 %
24.08.2019 17:35 30,8 C 32 % 1018,6 hPa 0,0 l/m 4,7 km/h N 360 1 min 0,000 mm 1,5 UV-I 444 W/m 12,2 C 30,8 C 7,7 km/h 97,37 %
24.08.2019 17:34 30,8 C 32 % 1018,6 hPa 0,0 l/m 2,0 km/h N 355 1 min 0,000 mm 1,5 UV-I 447 W/m 12,2 C 30,8 C 3,8 km/h 98,71 %
24.08.2019 17:33 30,8 C 32 % 1018,7 hPa 0,0 l/m 4,0 km/h N 355 1 min 0,000 mm 1,6 UV-I 449 W/m 12,2 C 30,8 C 7,7 km/h 97,22 %
24.08.2019 17:32 30,8 C 32 % 1018,7 hPa 0,0 l/m 1,3 km/h N 355 1 min 0,000 mm 1,6 UV-I 452 W/m 12,2 C 30,8 C 3,8 km/h 92,86 %
24.08.2019 17:31 30,8 C 31 % 1018,7 hPa 0,0 l/m 3,1 km/h N 355 1 min 0,000 mm 1,6 UV-I 455 W/m 11,7 C 30,8 C 3,8 km/h 100,00 %
24.08.2019 17:30 30,8 C 32 % 1018,7 hPa 0,0 l/m 1,1 km/h N 355 1 min 0,000 mm 1,6 UV-I 458 W/m 12,2 C 30,8 C 1,9 km/h 91,30 %
24.08.2019 17:29 30,8 C 32 % 1018,7 hPa 0,0 l/m 3,4 km/h N 355 1 min 0,000 mm 1,6 UV-I 461 W/m 12,2 C 30,8 C 5,7 km/h 100,00 %
24.08.2019 17:28 30,8 C 32 % 1018,8 hPa 0,0 l/m 3,2 km/h N 355 1 min 0,000 mm 1,6 UV-I 463 W/m 12,2 C 30,8 C 5,7 km/h 95,65 %
24.08.2019 17:27 30,7 C 32 % 1018,7 hPa 0,0 l/m 6,5 km/h N 351 1 min 0,000 mm 1,6 UV-I 465 W/m 12,1 C 30,7 C 7,7 km/h 96,30 %
24.08.2019 17:26 30,7 C 32 % 1018,7 hPa 0,0 l/m 6,3 km/h N-NW 348 1 min 0,000 mm 1,6 UV-I 466 W/m 12,1 C 30,7 C 7,7 km/h 100,00 %
24.08.2019 17:25 30,7 C 32 % 1018,7 hPa 0,0 l/m 5,0 km/h N-NW 328 1 min 0,000 mm 1,7 UV-I 471 W/m 12,1 C 30,7 C 7,7 km/h 96,55 %
24.08.2019 17:24 30,7 C 32 % 1018,7 hPa 0,0 l/m 3,7 km/h NW 317 1 min 0,000 mm 1,7 UV-I 472 W/m 12,1 C 30,7 C 5,7 km/h 100,00 %
24.08.2019 17:23 30,7 C 31 % 1018,7 hPa 0,0 l/m 5,9 km/h NW 304 1 min 0,000 mm 1,7 UV-I 474 W/m 11,6 C 30,7 C 9,6 km/h 95,65 %
24.08.2019 17:22 30,8 C 32 % 1018,7 hPa 0,0 l/m 4,4 km/h NW 307 1 min 0,000 mm 1,7 UV-I 478 W/m 12,2 C 30,8 C 7,7 km/h 100,00 %
24.08.2019 17:21 30,8 C 32 % 1018,7 hPa 0,0 l/m 5,7 km/h NW 306 1 min 0,000 mm 1,7 UV-I 481 W/m 12,2 C 30,8 C 9,6 km/h 95,65 %
24.08.2019 17:20 30,8 C 32 % 1018,7 hPa 0,0 l/m 4,5 km/h N-NW 332 1 min 0,000 mm 1,7 UV-I 483 W/m 12,2 C 30,8 C 7,7 km/h 95,83 %
24.08.2019 17:19 30,8 C 32 % 1018,8 hPa 0,0 l/m 5,0 km/h N 355 1 min 0,000 mm 1,8 UV-I 487 W/m 12,2 C 30,8 C 7,7 km/h 100,00 %
24.08.2019 17:18 30,9 C 32 % 1018,8 hPa 0,0 l/m 7,7 km/h N 360 1 min 0,000 mm 1,8 UV-I 489 W/m 12,3 C 30,8 C 9,6 km/h 95,83 %
24.08.2019 17:17 30,9 C 33 % 1018,8 hPa 0,0 l/m 5,9 km/h NW 323 1 min 0,000 mm 1,8 UV-I 491 W/m 12,7 C 30,9 C 9,6 km/h 100,00 %
24.08.2019 17:16 30,8 C 33 % 1018,8 hPa 0,0 l/m 2,8 km/h N-NW 333 1 min 0,000 mm 1,8 UV-I 493 W/m 12,6 C 30,8 C 5,7 km/h 94,44 %
24.08.2019 17:15 30,9 C 32 % 1018,8 hPa 0,0 l/m 5,1 km/h N-NW 332 1 min 0,000 mm 1,8 UV-I 496 W/m 12,3 C 30,9 C 7,7 km/h 100,00 %
24.08.2019 17:14 30,9 C 32 % 1018,8 hPa 0,0 l/m 3,8 km/h W 261 1 min 0,000 mm 1,8 UV-I 497 W/m 12,3 C 30,9 C 7,7 km/h 96,30 %
24.08.2019 17:13 30,9 C 32 % 1018,8 hPa 0,0 l/m 4,6 km/h NW 323 1 min 0,000 mm 1,9 UV-I 499 W/m 12,3 C 30,9 C 7,7 km/h 96,30 %
24.08.2019 17:12 30,9 C 33 % 1018,8 hPa 0,0 l/m 5,2 km/h N-NW 331 1 min 0,000 mm 1,9 UV-I 500 W/m 12,7 C 30,9 C 7,7 km/h 100,00 %
24.08.2019 17:11 30,9 C 33 % 1018,8 hPa 0,0 l/m 4,6 km/h NW 316 1 min 0,000 mm 1,9 UV-I 502 W/m 12,7 C 30,9 C 7,7 km/h 100,00 %
24.08.2019 17:10 30,9 C 33 % 1018,9 hPa 0,0 l/m 6,1 km/h N-NW 340 1 min 0,000 mm 1,9 UV-I 506 W/m 12,7 C 30,9 C 9,6 km/h 97,37 %
24.08.2019 17:09 30,9 C 32 % 1018,8 hPa 0,0 l/m 9,0 km/h W-NW 296 1 min 0,000 mm 1,9 UV-I 508 W/m 12,3 C 30,7 C 15,3 km/h 91,67 %
24.08.2019 17:08 30,9 C 33 % 1018,9 hPa 0,0 l/m 2,5 km/h NW 314 1 min 0,000 mm 1,9 UV-I 510 W/m 12,7 C 30,9 C 9,6 km/h 100,00 %
24.08.2019 17:07 30,8 C 33 % 1018,9 hPa 0,0 l/m 1,5 km/h NW 307 1 min 0,000 mm 1,9 UV-I 520 W/m 12,6 C 30,8 C 3,8 km/h 96,15 %
24.08.2019 17:06 30,8 C 33 % 1018,9 hPa 0,0 l/m 4,0 km/h W-NW 295 1 min 0,000 mm 2,0 UV-I 521 W/m 12,6 C 30,8 C 5,7 km/h 100,00 %
24.08.2019 17:05 30,7 C 33 % 1018,9 hPa 0,0 l/m 5,2 km/h NW 319 1 min 0,000 mm 2,0 UV-I 523 W/m 12,6 C 30,7 C 7,7 km/h 95,83 %
24.08.2019 17:04 30,6 C 33 % 1018,9 hPa 0,0 l/m 1,8 km/h N 5 1 min 0,000 mm 2,0 UV-I 525 W/m 12,5 C 30,6 C 7,7 km/h 100,00 %
24.08.2019 17:03 30,6 C 32 % 1018,9 hPa 0,0 l/m 3,7 km/h O-NO 71 1 min 0,000 mm 2,0 UV-I 528 W/m 12,0 C 30,6 C 7,7 km/h 96,30 %
24.08.2019 17:02 30,6 C 32 % 1018,9 hPa 0,0 l/m 4,2 km/h O 84 1 min 0,000 mm 2,0 UV-I 531 W/m 12,0 C 30,6 C 7,7 km/h 100,00 %
24.08.2019 17:01 30,7 C 32 % 1018,9 hPa 0,0 l/m 6,7 km/h N 5 1 min 0,457 mm 2,1 UV-I 533 W/m 12,1 C 30,7 C 9,6 km/h 95,83 %
24.08.2019 17:00 30,8 C 31 % 1018,9 hPa 0,0 l/m 7,0 km/h N 9 1 min 0,000 mm 2,1 UV-I 534 W/m 11,7 C 30,8 C 9,6 km/h 91,30 %
24.08.2019 16:59 30,9 C 32 % 1018,9 hPa 0,0 l/m 6,5 km/h N 9 1 min 0,000 mm 2,1 UV-I 537 W/m 12,3 C 30,9 C 9,6 km/h 100,00 %
24.08.2019 16:58 30,9 C 32 % 1018,9 hPa 0,0 l/m 7,8 km/h N 5 1 min 0,000 mm 2,1 UV-I 538 W/m 12,3 C 30,8 C 9,6 km/h 95,65 %
24.08.2019 16:57 30,9 C 32 % 1018,9 hPa 0,0 l/m 2,0 km/h NO 42 1 min 0,000 mm 2,1 UV-I 540 W/m 12,3 C 30,9 C 5,7 km/h 100,00 %
24.08.2019 16:56 30,9 C 32 % 1019,0 hPa 0,0 l/m 2,1 km/h N-NO 21 1 min 0,000 mm 2,1 UV-I 543 W/m 12,3 C 30,9 C 5,7 km/h 92,86 %
24.08.2019 16:55 30,8 C 32 % 1018,9 hPa 0,0 l/m 7,4 km/h N-NO 24 1 min 0,000 mm 2,2 UV-I 547 W/m 12,2 C 30,7 C 15,3 km/h 100,00 %
24.08.2019 16:54 30,8 C 33 % 1018,9 hPa 0,0 l/m 1,3 km/h N-NO 22 1 min 0,000 mm 2,2 UV-I 547 W/m 12,6 C 30,8 C 3,8 km/h 100,00 %
24.08.2019 16:53 30,7 C 33 % 1018,9 hPa 0,0 l/m 2,7 km/h N-NO 22 1 min 0,000 mm 2,2 UV-I 549 W/m 12,6 C 30,7 C 5,7 km/h 100,00 %
24.08.2019 16:52 30,7 C 33 % 1018,9 hPa 0,0 l/m 8,2 km/h N-NO 28 1 min 0,000 mm 2,2 UV-I 552 W/m 12,6 C 30,6 C 15,3 km/h 98,77 %
24.08.2019 16:51 30,7 C 33 % 1018,9 hPa 0,0 l/m 9,7 km/h N 360 1 min 0,000 mm 2,2 UV-I 557 W/m 12,6 C 30,5 C 19,1 km/h 100,00 %
24.08.2019 16:50 30,7 C 32 % 1018,9 hPa 0,0 l/m 4,8 km/h NW 317 1 min 0,000 mm 2,2 UV-I 559 W/m 12,1 C 30,7 C 7,7 km/h 100,00 %
24.08.2019 16:49 30,7 C 32 % 1019,0 hPa 0,0 l/m 8,5 km/h W-NW 299 1 min 0,000 mm 2,2 UV-I 560 W/m 12,1 C 30,6 C 13,4 km/h 100,00 %
24.08.2019 16:48 30,8 C 33 % 1019,0 hPa 0,0 l/m 5,4 km/h NW 321 1 min 0,000 mm 2,3 UV-I 562 W/m 12,6 C 30,8 C 11,5 km/h 95,83 %
24.08.2019 16:47 30,8 C 33 % 1019,0 hPa 0,0 l/m 6,4 km/h W-NW 301 1 min 0,000 mm 2,3 UV-I 564 W/m 12,6 C 30,8 C 13,4 km/h 95,65 %
24.08.2019 16:46 30,8 C 33 % 1019,0 hPa 0,0 l/m 6,6 km/h NW 304 1 min 0,000 mm 2,3 UV-I 565 W/m 12,6 C 30,8 C 13,4 km/h 100,00 %
24.08.2019 16:45 30,8 C 33 % 1019,0 hPa 0,0 l/m 6,1 km/h N 5 1 min 0,000 mm 2,3 UV-I 569 W/m 12,6 C 30,8 C 9,6 km/h 100,00 %
24.08.2019 16:44 30,8 C 33 % 1019,0 hPa 0,0 l/m 5,3 km/h N 360 1 min 0,000 mm 2,3 UV-I 571 W/m 12,6 C 30,8 C 9,6 km/h 100,00 %
24.08.2019 16:43 30,7 C 34 % 1018,9 hPa 0,0 l/m 5,5 km/h N 360 1 min 0,000 mm 2,3 UV-I 573 W/m 13,0 C 30,7 C 15,3 km/h 100,00 %
24.08.2019 16:42 30,7 C 33 % 1019,0 hPa 0,0 l/m 9,5 km/h N 349 1 min 0,000 mm 2,4 UV-I 577 W/m 12,6 C 30,5 C 17,2 km/h 100,00 %
24.08.2019 16:41 30,7 C 34 % 1019,0 hPa 0,0 l/m 6,2 km/h NO 46 1 min 0,000 mm 2,4 UV-I 579 W/m 13,0 C 30,7 C 11,5 km/h 100,00 %
24.08.2019 16:40 30,6 C 34 % 1019,0 hPa 0,0 l/m 4,7 km/h NO 53 1 min 0,000 mm 2,4 UV-I 582 W/m 12,9 C 30,6 C 7,7 km/h 100,00 %
24.08.2019 16:39 30,4 C 33 % 1019,0 hPa 0,0 l/m 3,4 km/h N-NW 334 1 min 0,000 mm 2,4 UV-I 584 W/m 12,3 C 30,4 C 5,7 km/h 100,00 %
24.08.2019 16:38 30,4 C 33 % 1019,1 hPa 0,0 l/m 5,9 km/h NW 315 1 min 0,000 mm 2,4 UV-I 587 W/m 12,3 C 30,4 C 9,6 km/h 100,00 %
24.08.2019 16:37 30,4 C 33 % 1019,1 hPa 0,0 l/m 3,6 km/h N-NW 337 1 min 0,000 mm 2,4 UV-I 587 W/m 12,3 C 30,4 C 7,7 km/h 100,00 %
24.08.2019 16:36 30,4 C 33 % 1019,1 hPa 0,0 l/m 5,4 km/h W-NW 303 1 min 0,000 mm 2,5 UV-I 588 W/m 12,3 C 30,4 C 9,6 km/h 100,00 %
24.08.2019 16:35 30,5 C 33 % 1019,1 hPa 0,0 l/m 7,2 km/h NW 306 1 min 0,000 mm 2,5 UV-I 591 W/m 12,4 C 30,4 C 9,6 km/h 100,00 %
24.08.2019 16:34 30,6 C 33 % 1019,1 hPa 0,0 l/m 11,3 km/h N 5 1 min 0,000 mm 2,5 UV-I 592 W/m 12,5 C 30,3 C 15,3 km/h 100,00 %
24.08.2019 16:33 30,6 C 33 % 1019,1 hPa 0,0 l/m 11,0 km/h N-NO 24 1 min 0,000 mm 2,5 UV-I 595 W/m 12,5 C 30,3 C 17,2 km/h 100,00 %
24.08.2019 16:32 30,6 C 33 % 1019,1 hPa 0,0 l/m 9,7 km/h N 5 1 min 0,000 mm 2,5 UV-I 601 W/m 12,5 C 30,4 C 15,3 km/h 100,00 %
24.08.2019 16:31 30,6 C 33 % 1019,1 hPa 0,0 l/m 6,6 km/h N 9 1 min 0,000 mm 2,6 UV-I 602 W/m 12,5 C 30,6 C 13,4 km/h 100,00 %
24.08.2019 16:30 30,6 C 33 % 1019,1 hPa 0,0 l/m 7,4 km/h W-NW 303 1 min 0,000 mm 2,6 UV-I 606 W/m 12,5 C 30,5 C 9,6 km/h 100,00 %
24.08.2019 16:29 30,6 C 33 % 1019,1 hPa 0,0 l/m 7,9 km/h N 5 1 min 0,000 mm 2,6 UV-I 606 W/m 12,5 C 30,5 C 9,6 km/h 100,00 %
24.08.2019 16:28 30,6 C 33 % 1019,1 hPa 0,0 l/m 6,0 km/h N-NW 337 1 min 0,000 mm 2,6 UV-I 605 W/m 12,5 C 30,6 C 9,6 km/h 100,00 %
24.08.2019 16:27 30,7 C 33 % 1019,1 hPa 0,0 l/m 12,6 km/h NW 306 1 min 0,000 mm 2,6 UV-I 605 W/m 12,6 C 30,3 C 21,0 km/h 100,00 %
24.08.2019 16:26 30,7 C 33 % 1019,1 hPa 0,0 l/m 4,7 km/h N 360 1 min 0,000 mm 2,6 UV-I 606 W/m 12,6 C 30,7 C 9,6 km/h 100,00 %
24.08.2019 16:25 30,8 C 32 % 1019,1 hPa 0,0 l/m 2,5 km/h N 355 1 min 0,000 mm 2,6 UV-I 609 W/m 12,2 C 30,8 C 7,7 km/h 100,00 %
24.08.2019 16:24 30,8 C 32 % 1019,2 hPa 0,0 l/m 3,4 km/h N 5 1 min 0,000 mm 2,6 UV-I 611 W/m 12,2 C 30,8 C 7,7 km/h 98,73 %
24.08.2019 16:23 30,9 C 32 % 1019,2 hPa 0,0 l/m 7,4 km/h N 5 1 min 0,000 mm 2,7 UV-I 612 W/m 12,3 C 30,8 C 11,5 km/h 100,00 %
24.08.2019 16:22 31,1 C 32 % 1019,2 hPa 0,0 l/m 7,3 km/h N 350 1 min 0,000 mm 2,7 UV-I 613 W/m 12,4 C 31,0 C 9,6 km/h 100,00 %
24.08.2019 16:21 31,2 C 32 % 1019,2 hPa 0,0 l/m 8,9 km/h N 5 1 min 0,000 mm 2,7 UV-I 617 W/m 12,5 C 31,1 C 15,3 km/h 100,00 %
24.08.2019 16:20 31,2 C 33 % 1019,2 hPa 0,0 l/m 3,7 km/h O 97 1 min 0,000 mm 2,7 UV-I 617 W/m 13,0 C 31,2 C 7,7 km/h 95,65 %
24.08.2019 16:19 31,1 C 33 % 1019,2 hPa 0,0 l/m 1,9 km/h SO 124 1 min 0,000 mm 2,7 UV-I 620 W/m 12,9 C 31,1 C 5,7 km/h 100,00 %
24.08.2019 16:18 31,1 C 32 % 1019,2 hPa 0,0 l/m 0,4 km/h SO 125 1 min 0,000 mm 2,8 UV-I 624 W/m 12,4 C 31,1 C 1,9 km/h 100,00 %
24.08.2019 16:17 31,1 C 33 % 1019,2 hPa 0,0 l/m 2,1 km/h SO 125 1 min 0,000 mm 2,8 UV-I 627 W/m 12,9 C 31,1 C 3,8 km/h 100,00 %
24.08.2019 16:16 31,2 C 32 % 1019,2 hPa 0,0 l/m 3,2 km/h SO 125 1 min 0,000 mm 2,8 UV-I 629 W/m 12,5 C 31,2 C 5,7 km/h 100,00 %
24.08.2019 16:15 31,3 C 32 % 1019,2 hPa 0,0 l/m 6,0 km/h SO 124 1 min 0,000 mm 2,8 UV-I 631 W/m 12,6 C 31,3 C 11,5 km/h 100,00 %
24.08.2019 16:14 31,3 C 33 % 1019,2 hPa 0,0 l/m 6,2 km/h O-SO 112 1 min 0,000 mm 2,8 UV-I 635 W/m 13,1 C 31,3 C 11,5 km/h 100,00 %
24.08.2019 16:13 31,3 C 32 % 1019,2 hPa 0,0 l/m 4,0 km/h O 93 1 min 0,000 mm 2,9 UV-I 637 W/m 12,6 C 31,3 C 11,5 km/h 100,00 %
24.08.2019 16:12 31,2 C 33 % 1019,2 hPa 0,0 l/m 3,7 km/h O 97 1 min 0,000 mm 2,9 UV-I 640 W/m 13,0 C 31,2 C 11,5 km/h 100,00 %
24.08.2019 16:11 31,1 C 34 % 1019,2 hPa 0,0 l/m 3,0 km/h O-SO 102 1 min 0,000 mm 2,9 UV-I 642 W/m 13,4 C 31,1 C 7,7 km/h 100,00 %
24.08.2019 16:10 31,0 C 33 % 1019,2 hPa 0,0 l/m 5,5 km/h O-SO 109 1 min 0,000 mm 2,9 UV-I 645 W/m 12,8 C 31,0 C 11,5 km/h 100,00 %
24.08.2019 16:09 30,9 C 33 % 1019,3 hPa 0,0 l/m 5,0 km/h O-SO 110 1 min 0,000 mm 2,9 UV-I 645 W/m 12,7 C 30,9 C 7,7 km/h 100,00 %
24.08.2019 16:08 30,9 C 33 % 1019,2 hPa 0,0 l/m 7,2 km/h O-SO 113 1 min 0,000 mm 2,9 UV-I 647 W/m 12,7 C 30,8 C 15,3 km/h 100,00 %
24.08.2019 16:07 30,9 C 34 % 1019,2 hPa 0,0 l/m 6,1 km/h SO 128 1 min 0,000 mm 2,9 UV-I 647 W/m 13,2 C 30,9 C 9,6 km/h 100,00 %
24.08.2019 16:06 30,9 C 34 % 1019,2 hPa 0,0 l/m 7,3 km/h SO 136 1 min 0,000 mm 3,0 UV-I 648 W/m 13,2 C 30,8 C 9,6 km/h 100,00 %
24.08.2019 16:05 30,9 C 33 % 1019,3 hPa 0,0 l/m 4,6 km/h O-SO 109 1 min 0,000 mm 3,0 UV-I 649 W/m 12,7 C 30,9 C 5,7 km/h 100,00 %
24.08.2019 16:04 30,8 C 33 % 1019,3 hPa 0,0 l/m 3,5 km/h O-SO 108 1 min 0,000 mm 3,0 UV-I 652 W/m 12,6 C 30,8 C 7,7 km/h 95,83 %
24.08.2019 16:03 30,8 C 33 % 1019,3 hPa 0,0 l/m 0,3 km/h O-SO 117 1 min 0,000 mm 3,0 UV-I 653 W/m 12,6 C 30,8 C 1,9 km/h 100,00 %
24.08.2019 16:02 30,9 C 33 % 1019,3 hPa 0,0 l/m 4,0 km/h O-SO 117 1 min 0,001 mm 3,0 UV-I 657 W/m 12,7 C 30,9 C 7,7 km/h 100,00 %
24.08.2019 16:01 30,9 C 32 % 1019,3 hPa 0,0 l/m 5,8 km/h O-SO 117 1 min 0,533 mm 3,1 UV-I 660 W/m 12,3 C 30,9 C 11,5 km/h 100,00 %
24.08.2019 16:00 31,1 C 32 % 1019,3 hPa 0,0 l/m 8,7 km/h O-SO 117 1 min 0,000 mm 3,1 UV-I 661 W/m 12,4 C 31,0 C 13,4 km/h 100,00 %
24.08.2019 15:59 31,1 C 32 % 1019,3 hPa 0,0 l/m 3,9 km/h O 98 1 min 0,000 mm 3,1 UV-I 662 W/m 12,4 C 31,1 C 11,5 km/h 100,00 %
24.08.2019 15:58 31,0 C 32 % 1019,4 hPa 0,0 l/m 2,5 km/h O 98 1 min 0,000 mm 3,1 UV-I 664 W/m 12,3 C 31,0 C 3,8 km/h 100,00 %
24.08.2019 15:57 31,0 C 33 % 1019,4 hPa 0,0 l/m 5,4 km/h O 97 1 min 0,000 mm 3,1 UV-I 664 W/m 12,8 C 31,0 C 9,6 km/h 95,65 %
24.08.2019 15:56 30,9 C 32 % 1019,3 hPa 0,0 l/m 3,0 km/h O-SO 107 1 min 0,000 mm 3,1 UV-I 664 W/m 12,3 C 30,9 C 5,7 km/h 100,00 %
24.08.2019 15:55 30,9 C 32 % 1019,4 hPa 0,0 l/m 1,8 km/h O-SO 105 1 min 0,000 mm 3,1 UV-I 664 W/m 12,3 C 30,9 C 3,8 km/h 95,65 %
24.08.2019 15:54 31,0 C 32 % 1019,4 hPa 0,0 l/m 3,5 km/h O-SO 105 1 min 0,000 mm 3,1 UV-I 665 W/m 12,3 C 31,0 C 7,7 km/h 95,83 %
24.08.2019 15:53 31,1 C 32 % 1019,4 hPa 0,0 l/m 7,4 km/h O-SO 105 1 min 0,000 mm 3,1 UV-I 667 W/m 12,4 C 31,0 C 7,7 km/h 100,00 %
24.08.2019 15:52 31,0 C 32 % 1019,4 hPa 0,0 l/m 4,6 km/h O 96 1 min 0,000 mm 3,1 UV-I 670 W/m 12,3 C 31,0 C 7,7 km/h 100,00 %
24.08.2019 15:51 30,9 C 34 % 1019,3 hPa 0,0 l/m 4,7 km/h O 97 1 min 0,000 mm 3,2 UV-I 673 W/m 13,2 C 30,9 C 7,7 km/h 100,00 %
24.08.2019 15:50 30,9 C 33 % 1019,4 hPa 0,0 l/m 7,2 km/h O-SO 117 1 min 0,000 mm 3,2 UV-I 676 W/m 12,7 C 30,8 C 11,5 km/h 100,00 %
24.08.2019 15:49 30,8 C 33 % 1019,3 hPa 0,0 l/m 2,9 km/h O 100 1 min 0,000 mm 3,2 UV-I 678 W/m 12,6 C 30,8 C 13,4 km/h 100,00 %
24.08.2019 15:48 30,8 C 32 % 1019,4 hPa 0,0 l/m 0,9 km/h N 5 1 min 0,000 mm 3,3 UV-I 679 W/m 12,2 C 30,8 C 3,8 km/h 100,00 %
24.08.2019 15:47 30,7 C 33 % 1019,4 hPa 0,0 l/m 0,4 km/h N 5 1 min 0,000 mm 3,3 UV-I 683 W/m 12,6 C 30,7 C 3,8 km/h 100,00 %
24.08.2019 15:46 30,6 C 33 % 1019,3 hPa 0,0 l/m 1,0 km/h N 5 1 min 0,000 mm 3,3 UV-I 684 W/m 12,5 C 30,6 C 1,9 km/h 100,00 %
24.08.2019 15:45 30,6 C 33 % 1019,4 hPa 0,0 l/m 0,6 km/h N 5 1 min 0,000 mm 3,3 UV-I 682 W/m 12,5 C 30,6 C 1,9 km/h 100,00 %
24.08.2019 15:44 30,4 C 33 % 1019,4 hPa 0,0 l/m 0,8 km/h N 5 1 min 0,000 mm 3,3 UV-I 682 W/m 12,3 C 30,4 C 3,8 km/h 100,00 %
24.08.2019 15:43 30,3 C 33 % 1019,4 hPa 0,0 l/m 0,2 km/h N 11 1 min 0,000 mm 3,3 UV-I 684 W/m 12,2 C 30,3 C 1,9 km/h 100,00 %
24.08.2019 15:42 30,2 C 33 % 1019,5 hPa 0,0 l/m 1,0 km/h N 11 1 min 0,000 mm 3,3 UV-I 687 W/m 12,1 C 30,2 C 3,8 km/h 96,55 %
24.08.2019 15:41 30,2 C 33 % 1019,4 hPa 0,0 l/m 4,5 km/h N 11 1 min 0,000 mm 3,3 UV-I 688 W/m 12,1 C 30,2 C 7,7 km/h 100,00 %
24.08.2019 15:40 30,3 C 33 % 1019,5 hPa 0,0 l/m 7,4 km/h N-NO 31 1 min 0,000 mm 3,3 UV-I 692 W/m 12,2 C 30,2 C 9,6 km/h 100,00 %
24.08.2019 15:39 30,3 C 33 % 1019,5 hPa 0,0 l/m 11,8 km/h N 5 1 min 0,000 mm 3,3 UV-I 695 W/m 12,2 C 29,9 C 15,3 km/h 100,00 %
24.08.2019 15:38 30,4 C 33 % 1019,4 hPa 0,0 l/m 3,2 km/h N-NW 342 1 min 0,000 mm 3,4 UV-I 700 W/m 12,3 C 30,4 C 7,7 km/h 100,00 %
24.08.2019 15:37 30,4 C 33 % 1019,4 hPa 0,0 l/m 8,3 km/h N-NW 348 1 min 0,000 mm 3,4 UV-I 702 W/m 12,3 C 30,2 C 11,5 km/h 100,00 %
24.08.2019 15:36 30,4 C 33 % 1019,4 hPa 0,0 l/m 5,9 km/h N-NW 344 1 min 0,000 mm 3,4 UV-I 701 W/m 12,3 C 30,4 C 9,6 km/h 100,00 %
24.08.2019 15:35 30,4 C 33 % 1019,4 hPa 0,0 l/m 2,9 km/h NW 325 1 min 0,000 mm 3,4 UV-I 701 W/m 12,3 C 30,4 C 5,7 km/h 100,00 %
24.08.2019 15:34 30,4 C 33 % 1019,5 hPa 0,0 l/m 11,9 km/h N-NO 17 1 min 0,000 mm 3,4 UV-I 701 W/m 12,3 C 30,0 C 17,2 km/h 100,00 %
24.08.2019 15:33 30,5 C 33 % 1019,5 hPa 0,0 l/m 11,0 km/h N-NO 22 1 min 0,000 mm 3,4 UV-I 700 W/m 12,4 C 30,2 C 21,0 km/h 100,00 %
24.08.2019 15:32 30,6 C 33 % 1019,4 hPa 0,0 l/m 6,7 km/h N 355 1 min 0,000 mm 3,4 UV-I 701 W/m 12,5 C 30,6 C 9,6 km/h 100,00 %
24.08.2019 15:31 30,7 C 33 % 1019,4 hPa 0,0 l/m 14,2 km/h N 355 1 min 0,000 mm 3,5 UV-I 703 W/m 12,6 C 30,2 C 19,1 km/h 97,56 %
24.08.2019 15:30 30,7 C 34 % 1019,4 hPa 0,0 l/m 2,9 km/h N 5 1 min 0,000 mm 3,5 UV-I 706 W/m 13,0 C 30,7 C 11,5 km/h 100,00 %
24.08.2019 15:29 30,7 C 34 % 1019,4 hPa 0,0 l/m 2,2 km/h O 98 1 min 0,000 mm 3,5 UV-I 708 W/m 13,0 C 30,7 C 3,8 km/h 100,00 %
24.08.2019 15:28 30,7 C 33 % 1019,4 hPa 0,0 l/m 3,1 km/h O 97 1 min 0,000 mm 3,5 UV-I 710 W/m 12,6 C 30,7 C 7,7 km/h 100,00 %
24.08.2019 15:27 30,7 C 33 % 1019,5 hPa 0,0 l/m 6,7 km/h O-SO 122 1 min 0,000 mm 3,5 UV-I 712 W/m 12,6 C 30,7 C 7,7 km/h 100,00 %
24.08.2019 15:26 30,8 C 33 % 1019,5 hPa 0,0 l/m 8,8 km/h SO 127 1 min 0,000 mm 3,6 UV-I 714 W/m 12,6 C 30,6 C 13,4 km/h 100,00 %
24.08.2019 15:25 30,7 C 34 % 1019,5 hPa 0,0 l/m 10,7 km/h O-SO 102 1 min 0,000 mm 3,6 UV-I 715 W/m 13,0 C 30,4 C 19,1 km/h 100,00 %
24.08.2019 15:24 30,6 C 34 % 1019,5 hPa 0,0 l/m 1,8 km/h NO 51 1 min 0,000 mm 3,6 UV-I 715 W/m 12,9 C 30,6 C 3,8 km/h 100,00 %
24.08.2019 15:23 30,5 C 33 % 1019,5 hPa 0,0 l/m 3,7 km/h N-NW 339 1 min 0,000 mm 3,6 UV-I 717 W/m 12,4 C 30,5 C 7,7 km/h 100,00 %
24.08.2019 15:22 30,5 C 33 % 1019,5 hPa 0,0 l/m 1,1 km/h SO 124 1 min 0,000 mm 3,6 UV-I 721 W/m 12,4 C 30,5 C 3,8 km/h 100,00 %
24.08.2019 15:21 30,5 C 33 % 1019,5 hPa 0,0 l/m 2,5 km/h SO 130 1 min 0,000 mm 3,6 UV-I 723 W/m 12,4 C 30,5 C 5,7 km/h 100,00 %
24.08.2019 15:20 30,6 C 34 % 1019,6 hPa 0,0 l/m 5,3 km/h SO 141 1 min 0,000 mm 3,7 UV-I 725 W/m 12,9 C 30,6 C 7,7 km/h 100,00 %
24.08.2019 15:19 30,7 C 34 % 1019,6 hPa 0,0 l/m 6,1 km/h SO 139 1 min 0,000 mm 3,7 UV-I 726 W/m 13,0 C 30,7 C 9,6 km/h 96,15 %
24.08.2019 15:18 30,8 C 33 % 1019,6 hPa 0,0 l/m 5,5 km/h O-SO 115 1 min 0,000 mm 3,7 UV-I 726 W/m 12,6 C 30,8 C 7,7 km/h 96,00 %
24.08.2019 15:17 30,8 C 33 % 1019,6 hPa 0,0 l/m 5,7 km/h O-SO 114 1 min 0,000 mm 3,7 UV-I 726 W/m 12,6 C 30,8 C 13,4 km/h 100,00 %
24.08.2019 15:16 30,8 C 33 % 1019,6 hPa 0,0 l/m 7,4 km/h SO 136 1 min 0,000 mm 3,7 UV-I 728 W/m 12,6 C 30,7 C 13,4 km/h 100,00 %
24.08.2019 15:15 30,8 C 32 % 1019,7 hPa 0,0 l/m 6,1 km/h NO 47 1 min 0,000 mm 3,7 UV-I 731 W/m 12,2 C 30,8 C 7,7 km/h 96,30 %
24.08.2019 15:14 30,8 C 33 % 1019,6 hPa 0,0 l/m 3,3 km/h O-NO 57 1 min 0,000 mm 3,7 UV-I 732 W/m 12,6 C 30,8 C 7,7 km/h 96,15 %
24.08.2019 15:13 30,7 C 34 % 1019,6 hPa 0,0 l/m 3,3 km/h SO 140 1 min 0,000 mm 3,7 UV-I 733 W/m 13,0 C 30,7 C 7,7 km/h 100,00 %
24.08.2019 15:12 30,7 C 33 % 1019,6 hPa 0,0 l/m 4,1 km/h S-SO 149 1 min 0,000 mm 3,8 UV-I 734 W/m 12,6 C 30,7 C 7,7 km/h 92,31 %
24.08.2019 15:11 30,7 C 33 % 1019,6 hPa 0,0 l/m 1,9 km/h SO 133 1 min 0,000 mm 3,8 UV-I 735 W/m 12,6 C 30,7 C 3,8 km/h 100,00 %
24.08.2019 15:10 30,7 C 32 % 1019,6 hPa 0,0 l/m 4,2 km/h SO 130 1 min 0,000 mm 3,8 UV-I 738 W/m 12,1 C 30,7 C 7,7 km/h 95,65 %
24.08.2019 15:09 30,8 C 32 % 1019,6 hPa 0,0 l/m 8,7 km/h SO 131 1 min 0,000 mm 3,8 UV-I 740 W/m 12,2 C 30,6 C 13,4 km/h 100,00 %
24.08.2019 15:08 30,9 C 32 % 1019,6 hPa 0,0 l/m 5,9 km/h O-SO 107 1 min 0,000 mm 3,8 UV-I 741 W/m 12,3 C 30,9 C 7,7 km/h 95,65 %
24.08.2019 15:07 30,9 C 32 % 1019,6 hPa 0,0 l/m 3,3 km/h O-SO 111 1 min 0,000 mm 3,8 UV-I 742 W/m 12,3 C 30,9 C 5,7 km/h 96,30 %
24.08.2019 15:06 31,1 C 33 % 1019,6 hPa 0,0 l/m 6,5 km/h O-SO 111 1 min 0,000 mm 3,8 UV-I 742 W/m 12,9 C 31,1 C 7,7 km/h 97,56 %
24.08.2019 15:05 31,1 C 33 % 1019,6 hPa 0,0 l/m 5,7 km/h O 100 1 min 0,000 mm 3,8 UV-I 740 W/m 12,9 C 31,1 C 9,6 km/h 98,69 %
24.08.2019 15:04 31,2 C 32 % 1019,6 hPa 0,0 l/m 7,9 km/h S-SO 164 1 min 0,000 mm 3,8 UV-I 737 W/m 12,5 C 31,1 C 11,5 km/h 100,00 %
24.08.2019 15:03 31,2 C 32 % 1019,6 hPa 0,0 l/m 7,9 km/h O-SO 115 1 min 0,000 mm 3,8 UV-I 738 W/m 12,5 C 31,1 C 13,4 km/h 95,83 %
24.08.2019 15:02 31,1 C 32 % 1019,6 hPa 0,0 l/m 4,2 km/h O-SO 115 1 min 0,000 mm 3,8 UV-I 741 W/m 12,4 C 31,1 C 11,5 km/h 100,00 %
24.08.2019 15:01 31,0 C 32 % 1019,6 hPa 0,0 l/m 4,2 km/h O 94 1 min 0,000 mm 3,8 UV-I 743 W/m 12,3 C 31,0 C 7,7 km/h 95,65 %
24.08.2019 15:00 30,9 C 33 % 1019,7 hPa 0,0 l/m 3,8 km/h O-SO 102 1 min 0,559 mm 3,9 UV-I 743 W/m 12,7 C 30,9 C 7,7 km/h 100,00 %
24.08.2019 14:59 30,8 C 34 % 1019,6 hPa 0,0 l/m 0,4 km/h O-SO 107 1 min 0,000 mm 3,8 UV-I 742 W/m 13,1 C 30,8 C 1,9 km/h 95,65 %
24.08.2019 14:58 30,7 C 34 % 1019,6 hPa 0,0 l/m 3,6 km/h O-SO 107 1 min 0,000 mm 3,8 UV-I 738 W/m 13,0 C 30,7 C 5,7 km/h 96,30 %
24.08.2019 14:57 30,6 C 34 % 1019,7 hPa 0,0 l/m 5,3 km/h O-SO 103 1 min 0,000 mm 3,8 UV-I 737 W/m 12,9 C 30,6 C 7,7 km/h 100,00 %
24.08.2019 14:56 30,6 C 34 % 1019,6 hPa 0,0 l/m 3,5 km/h O 93 1 min 0,000 mm 3,8 UV-I 737 W/m 12,9 C 30,6 C 7,7 km/h 96,30 %
24.08.2019 14:55 30,5 C 35 % 1019,6 hPa 0,0 l/m 3,3 km/h O 100 1 min 0,000 mm 3,8 UV-I 740 W/m 13,3 C 30,5 C 11,5 km/h 100,00 %
24.08.2019 14:54 30,4 C 37 % 1019,7 hPa 0,0 l/m 3,2 km/h SO 128 1 min 0,000 mm 3,8 UV-I 742 W/m 14,0 C 30,4 C 5,7 km/h 96,30 %
24.08.2019 14:53 30,3 C 35 % 1019,7 hPa 0,0 l/m 8,7 km/h SO 128 1 min 0,000 mm 3,9 UV-I 745 W/m 13,1 C 30,1 C 13,4 km/h 100,00 %
24.08.2019 14:52 30,3 C 34 % 1019,7 hPa 0,0 l/m 6,9 km/h W-SW 242 1 min 0,000 mm 3,9 UV-I 743 W/m 12,7 C 30,3 C 9,6 km/h 95,83 %
24.08.2019 14:51 30,3 C 34 % 1019,7 hPa 0,0 l/m 7,2 km/h N 355 1 min 0,000 mm 3,9 UV-I 748 W/m 12,7 C 30,2 C 9,6 km/h 95,65 %
24.08.2019 14:50 30,3 C 35 % 1019,7 hPa 0,0 l/m 0,5 km/h O-NO 65 1 min 0,000 mm 3,9 UV-I 748 W/m 13,1 C 30,3 C 3,8 km/h 100,00 %
24.08.2019 14:49 30,2 C 35 % 1019,7 hPa 0,0 l/m 0,5 km/h SO 140 1 min 0,000 mm 3,9 UV-I 750 W/m 13,0 C 30,2 C 1,9 km/h 92,31 %
24.08.2019 14:48 30,2 C 35 % 1019,7 hPa 0,0 l/m 0,1 km/h SO 140 1 min 0,000 mm 3,9 UV-I 750 W/m 13,0 C 30,2 C 1,9 km/h 100,00 %
24.08.2019 14:47 30,1 C 35 % 1019,7 hPa 0,0 l/m 2,3 km/h SO 140 1 min 0,000 mm 3,9 UV-I 747 W/m 12,9 C 30,1 C 5,7 km/h 95,65 %
24.08.2019 14:46 30,0 C 35 % 1019,8 hPa 0,0 l/m 4,0 km/h SO 140 1 min 0,000 mm 3,9 UV-I 747 W/m 12,8 C 30,0 C 7,7 km/h 95,83 %
24.08.2019 14:45 29,9 C 34 % 1019,8 hPa 0,0 l/m 0,6 km/h N 5 1 min 0,000 mm 4,0 UV-I 750 W/m 12,3 C 29,9 C 1,9 km/h 96,15 %
24.08.2019 14:44 30,0 C 34 % 1019,8 hPa 0,0 l/m 4,3 km/h N-NO 12 1 min 0,000 mm 4,0 UV-I 751 W/m 12,4 C 30,0 C 7,7 km/h 93,33 %
24.08.2019 14:43 30,1 C 34 % 1019,8 hPa 0,0 l/m 8,8 km/h N 9 1 min 0,000 mm 4,0 UV-I 751 W/m 12,5 C 29,9 C 11,5 km/h 100,00 %
24.08.2019 14:42 30,1 C 35 % 1019,8 hPa 0,0 l/m 3,6 km/h N-NO 14 1 min 0,000 mm 4,0 UV-I 753 W/m 12,9 C 30,1 C 9,6 km/h 96,15 %
24.08.2019 14:41 30,1 C 35 % 1019,8 hPa 0,0 l/m 2,6 km/h O 86 1 min 0,000 mm 4,0 UV-I 759 W/m 12,9 C 30,1 C 7,7 km/h 100,00 %
24.08.2019 14:40 30,0 C 34 % 1019,8 hPa 0,0 l/m 1,1 km/h O 86 1 min 0,000 mm 4,0 UV-I 757 W/m 12,4 C 30,0 C 1,9 km/h 100,00 %
24.08.2019 14:39 30,0 C 34 % 1019,8 hPa 0,0 l/m 0,5 km/h O 86 1 min 0,000 mm 4,0 UV-I 759 W/m 12,4 C 30,0 C 1,9 km/h 100,00 %
24.08.2019 14:38 30,1 C 35 % 1019,8 hPa 0,0 l/m 7,3 km/h O 86 1 min 0,000 mm 4,0 UV-I 765 W/m 12,9 C 30,0 C 11,5 km/h 100,00 %
24.08.2019 14:37 30,1 C 35 % 1019,7 hPa 0,0 l/m 7,7 km/h O 96 1 min 0,000 mm 4,1 UV-I 762 W/m 12,9 C 30,0 C 15,3 km/h 100,00 %
24.08.2019 14:36 30,2 C 35 % 1019,8 hPa 0,0 l/m 2,8 km/h S-SO 159 1 min 0,000 mm 4,0 UV-I 758 W/m 13,0 C 30,2 C 7,7 km/h 100,00 %
24.08.2019 14:35 30,2 C 36 % 1019,8 hPa 0,0 l/m 3,3 km/h S-SO 161 1 min 0,000 mm 4,0 UV-I 759 W/m 13,4 C 30,2 C 7,7 km/h 100,00 %
24.08.2019 14:34 30,1 C 35 % 1019,8 hPa 0,0 l/m 3,7 km/h S-SO 161 1 min 0,000 mm 4,1 UV-I 759 W/m 12,9 C 30,1 C 7,7 km/h 100,00 %
24.08.2019 14:33 30,2 C 35 % 1019,8 hPa 0,0 l/m 5,0 km/h SO 145 1 min 0,000 mm 4,0 UV-I 760 W/m 13,0 C 30,2 C 7,7 km/h 91,67 %
24.08.2019 14:32 30,2 C 36 % 1019,8 hPa 0,0 l/m 4,2 km/h SO 146 1 min 0,000 mm 4,1 UV-I 762 W/m 13,4 C 30,2 C 7,7 km/h 96,15 %
24.08.2019 14:31 30,1 C 35 % 1019,8 hPa 0,0 l/m 5,3 km/h SO 146 1 min 0,000 mm 4,1 UV-I 764 W/m 12,9 C 30,1 C 7,7 km/h 100,00 %
24.08.2019 14:30 30,1 C 35 % 1019,8 hPa 0,0 l/m 4,1 km/h O-SO 117 1 min 0,000 mm 4,1 UV-I 769 W/m 12,9 C 30,1 C 7,7 km/h 100,00 %
24.08.2019 14:29 30,1 C 35 % 1019,8 hPa 0,0 l/m 1,5 km/h SO 142 1 min 0,000 mm 4,2 UV-I 770 W/m 12,9 C 30,1 C 5,7 km/h 100,00 %
24.08.2019 14:28 30,1 C 35 % 1019,9 hPa 0,0 l/m 7,2 km/h SO 142 1 min 0,000 mm 4,2 UV-I 772 W/m 12,9 C 30,0 C 9,6 km/h 93,75 %
24.08.2019 14:27 30,1 C 34 % 1019,9 hPa 0,0 l/m 3,8 km/h SO 143 1 min 0,000 mm 4,2 UV-I 772 W/m 12,5 C 30,1 C 5,7 km/h 100,00 %
24.08.2019 14:26 30,1 C 34 % 1019,9 hPa 0,0 l/m 1,9 km/h SO 145 1 min 0,000 mm 4,2 UV-I 774 W/m 12,5 C 30,1 C 3,8 km/h 100,00 %
24.08.2019 14:25 30,1 C 34 % 1019,9 hPa 0,0 l/m 0,9 km/h SO 145 1 min 0,000 mm 4,2 UV-I 778 W/m 12,5 C 30,1 C 1,9 km/h 92,31 %
24.08.2019 14:24 30,1 C 34 % 1019,9 hPa 0,0 l/m 6,9 km/h SO 145 1 min 0,000 mm 4,2 UV-I 779 W/m 12,5 C 30,1 C 9,6 km/h 100,00 %
24.08.2019 14:23 30,2 C 35 % 1019,9 hPa 0,0 l/m 7,9 km/h S-SO 164 1 min 0,000 mm 4,2 UV-I 778 W/m 13,0 C 30,1 C 11,5 km/h 100,00 %
24.08.2019 14:22 30,3 C 35 % 1019,9 hPa 0,0 l/m 7,5 km/h S 180 1 min 0,000 mm 4,2 UV-I 776 W/m 13,1 C 30,2 C 11,5 km/h 100,00 %
24.08.2019 14:21 30,3 C 35 % 1019,9 hPa 0,0 l/m 5,8 km/h S-SW 192 1 min 0,000 mm 4,3 UV-I 777 W/m 13,1 C 30,3 C 9,6 km/h 100,00 %
24.08.2019 14:20 30,3 C 34 % 1019,9 hPa 0,0 l/m 2,3 km/h S-SW 207 1 min 0,000 mm 4,3 UV-I 778 W/m 12,7 C 30,3 C 3,8 km/h 100,00 %
24.08.2019 14:19 30,3 C 36 % 1019,9 hPa 0,0 l/m 3,4 km/h S-SW 207 1 min 0,000 mm 4,3 UV-I 780 W/m 13,5 C 30,3 C 7,7 km/h 100,00 %
24.08.2019 14:18 30,2 C 36 % 1019,9 hPa 0,0 l/m 2,7 km/h S-SW 205 1 min 0,000 mm 4,3 UV-I 782 W/m 13,4 C 30,2 C 3,8 km/h 100,00 %
24.08.2019 14:17 30,2 C 36 % 1019,9 hPa 0,0 l/m 3,6 km/h S-SW 206 1 min 0,000 mm 4,3 UV-I 784 W/m 13,4 C 30,2 C 5,7 km/h 100,00 %
24.08.2019 14:16 30,1 C 35 % 1019,9 hPa 0,0 l/m 5,7 km/h S-SW 206 1 min 0,000 mm 4,3 UV-I 783 W/m 12,9 C 30,1 C 9,6 km/h 100,00 %
24.08.2019 14:15 30,1 C 35 % 1019,9 hPa 0,0 l/m 7,4 km/h S-SW 205 1 min 0,000 mm 4,3 UV-I 781 W/m 12,9 C 30,0 C 13,4 km/h 100,00 %
24.08.2019 14:14 30,1 C 36 % 1019,9 hPa 0,0 l/m 1,6 km/h S-SO 155 1 min 0,000 mm 4,3 UV-I 781 W/m 13,4 C 30,1 C 5,7 km/h 100,00 %
24.08.2019 14:13 30,0 C 35 % 1019,9 hPa 0,0 l/m 3,4 km/h S-SO 152 1 min 0,000 mm 4,3 UV-I 780 W/m 12,8 C 30,0 C 5,7 km/h 100,00 %
24.08.2019 14:12 30,0 C 36 % 1019,9 hPa 0,0 l/m 3,9 km/h S-SO 154 1 min 0,000 mm 4,3 UV-I 780 W/m 13,3 C 30,0 C 5,7 km/h 100,00 %
24.08.2019 14:11 30,0 C 36 % 1019,9 hPa 0,0 l/m 3,5 km/h S-SO 153 1 min 0,000 mm 4,3 UV-I 780 W/m 13,3 C 30,0 C 5,7 km/h 100,00 %
24.08.2019 14:10 30,1 C 35 % 1020,0 hPa 0,0 l/m 6,8 km/h S-SO 153 1 min 0,000 mm 4,3 UV-I 785 W/m 12,9 C 30,1 C 11,5 km/h 100,00 %
24.08.2019 14:09 30,2 C 34 % 1020,0 hPa 0,0 l/m 7,5 km/h SO 145 1 min 0,000 mm 4,4 UV-I 786 W/m 12,6 C 30,1 C 11,5 km/h 100,00 %
24.08.2019 14:08 30,3 C 35 % 1020,0 hPa 0,0 l/m 5,5 km/h S-SO 147 1 min 0,000 mm 4,3 UV-I 785 W/m 13,1 C 30,3 C 9,6 km/h 100,00 %
24.08.2019 14:07 30,4 C 34 % 1020,0 hPa 0,0 l/m 5,2 km/h S-SO 167 1 min 0,000 mm 4,3 UV-I 786 W/m 12,7 C 30,4 C 7,7 km/h 95,65 %
24.08.2019 14:06 30,5 C 35 % 1020,0 hPa 0,0 l/m 7,4 km/h S-SO 167 1 min 0,000 mm 4,3 UV-I 784 W/m 13,3 C 30,4 C 9,6 km/h 100,00 %
24.08.2019 14:05 30,6 C 34 % 1020,0 hPa 0,0 l/m 2,0 km/h S-SO 152 1 min 0,000 mm 4,3 UV-I 783 W/m 12,9 C 30,6 C 5,7 km/h 100,00 %
24.08.2019 14:04 30,6 C 34 % 1020,0 hPa 0,0 l/m 5,0 km/h S-SO 152 1 min 0,000 mm 4,3 UV-I 781 W/m 12,9 C 30,6 C 7,7 km/h 100,00 %
24.08.2019 14:03 30,6 C 34 % 1020,0 hPa 0,0 l/m 3,4 km/h S-SO 153 1 min 0,000 mm 4,3 UV-I 779 W/m 12,9 C 30,6 C 7,7 km/h 100,00 %
24.08.2019 14:02 30,5 C 36 % 1020,0 hPa 0,0 l/m 1,4 km/h NO 40 1 min 0,000 mm 4,3 UV-I 777 W/m 13,7 C 30,5 C 3,8 km/h 100,00 %
24.08.2019 14:01 30,3 C 34 % 1020,0 hPa 0,0 l/m 0,3 km/h NO 45 1 min 0,558 mm 4,3 UV-I 777 W/m 12,7 C 30,3 C 1,9 km/h 95,83 %
24.08.2019 14:00 30,3 C 34 % 1020,1 hPa 0,0 l/m 2,1 km/h NO 45 1 min 0,000 mm 4,3 UV-I 780 W/m 12,7 C 30,3 C 3,8 km/h 100,00 %
24.08.2019 13:59 30,2 C 34 % 1020,1 hPa 0,0 l/m 2,8 km/h NO 44 1 min 0,000 mm 4,3 UV-I 779 W/m 12,6 C 30,2 C 7,7 km/h 100,00 %
24.08.2019 13:58 30,1 C 34 % 1020,1 hPa 0,0 l/m 3,8 km/h N-NO 19 1 min 0,000 mm 4,4 UV-I 780 W/m 12,5 C 30,1 C 5,7 km/h 100,00 %
24.08.2019 13:57 30,1 C 35 % 1020,1 hPa 0,0 l/m 2,1 km/h N 355 1 min 0,000 mm 4,4 UV-I 781 W/m 12,9 C 30,1 C 3,8 km/h 97,73 %
24.08.2019 13:56 30,0 C 35 % 1020,1 hPa 0,0 l/m 4,4 km/h N 355 1 min 0,000 mm 4,4 UV-I 782 W/m 12,8 C 30,0 C 7,7 km/h 100,00 %
24.08.2019 13:55 29,9 C 36 % 1020,2 hPa 0,0 l/m 3,2 km/h NW 304 1 min 0,000 mm 4,4 UV-I 782 W/m 13,2 C 29,9 C 7,7 km/h 100,00 %
24.08.2019 13:54 29,8 C 36 % 1020,2 hPa 0,0 l/m 2,9 km/h N-NW 344 1 min 0,000 mm 4,4 UV-I 783 W/m 13,1 C 29,8 C 9,6 km/h 100,00 %
24.08.2019 13:53 29,8 C 37 % 1020,1 hPa 0,0 l/m 2,8 km/h SO 126 1 min 0,000 mm 4,4 UV-I 785 W/m 13,5 C 29,8 C 5,7 km/h 100,00 %
24.08.2019 13:52 29,7 C 36 % 1020,1 hPa 0,0 l/m 3,0 km/h SO 126 1 min 0,000 mm 4,4 UV-I 784 W/m 13,0 C 29,7 C 5,7 km/h 100,00 %
24.08.2019 13:51 29,7 C 35 % 1020,1 hPa 0,0 l/m 8,6 km/h SO 126 1 min 0,000 mm 4,4 UV-I 784 W/m 12,6 C 29,5 C 13,4 km/h 100,00 %
24.08.2019 13:50 29,7 C 35 % 1020,1 hPa 0,0 l/m 0,0 km/h O-SO 117 1 min 0,000 mm 4,4 UV-I 782 W/m 12,6 C 29,7 C 0,0 km/h 100,00 %
24.08.2019 13:49 29,6 C 34 % 1020,1 hPa 0,0 l/m 1,6 km/h O-SO 117 1 min 0,000 mm 4,4 UV-I 785 W/m 12,1 C 29,6 C 3,8 km/h 100,00 %
24.08.2019 13:48 29,7 C 34 % 1020,1 hPa 0,0 l/m 2,1 km/h O-SO 117 1 min 0,000 mm 4,4 UV-I 782 W/m 12,1 C 29,7 C 3,8 km/h 97,14 %
24.08.2019 13:47 29,7 C 34 % 1020,2 hPa 0,0 l/m 1,8 km/h O-SO 117 1 min 0,000 mm 4,4 UV-I 783 W/m 12,1 C 29,7 C 3,8 km/h 100,00 %
24.08.2019 13:46 29,6 C 36 % 1020,2 hPa 0,0 l/m 0,8 km/h O-SO 121 1 min 0,000 mm 4,4 UV-I 785 W/m 12,9 C 29,6 C 1,9 km/h 100,00 %
24.08.2019 13:45 29,7 C 34 % 1020,2 hPa 0,0 l/m 4,1 km/h O-SO 121 1 min 0,000 mm 4,4 UV-I 786 W/m 12,1 C 29,7 C 7,7 km/h 96,15 %
24.08.2019 13:44 29,7 C 36 % 1020,3 hPa 0,0 l/m 2,1 km/h O 86 1 min 0,000 mm 4,4 UV-I 786 W/m 13,0 C 29,7 C 5,7 km/h 100,00 %
24.08.2019 13:43 29,6 C 35 % 1020,3 hPa 0,0 l/m 2,1 km/h O-NO 66 1 min 0,000 mm 4,4 UV-I 786 W/m 12,5 C 29,6 C 5,7 km/h 100,00 %
24.08.2019 13:42 29,6 C 35 % 1020,3 hPa 0,0 l/m 2,0 km/h O-NO 66 1 min 0,000 mm 4,4 UV-I 786 W/m 12,5 C 29,6 C 5,7 km/h 100,00 %
24.08.2019 13:41 29,5 C 35 % 1020,3 hPa 0,0 l/m 3,3 km/h O-NO 64 1 min 0,000 mm 4,4 UV-I 786 W/m 12,4 C 29,5 C 7,7 km/h 100,00 %
24.08.2019 13:40 29,4 C 35 % 1020,3 hPa 0,0 l/m 6,0 km/h O-SO 107 1 min 0,000 mm 4,4 UV-I 787 W/m 12,3 C 29,4 C 11,5 km/h 100,00 %
24.08.2019 13:39 29,5 C 35 % 1020,3 hPa 0,0 l/m 6,7 km/h O 95 1 min 0,000 mm 4,4 UV-I 786 W/m 12,4 C 29,5 C 13,4 km/h 100,00 %
24.08.2019 13:38 29,6 C 36 % 1020,3 hPa 0,0 l/m 7,0 km/h O-NO 63 1 min 0,000 mm 4,4 UV-I 786 W/m 12,9 C 29,5 C 11,5 km/h 100,00 %
24.08.2019 13:37 29,6 C 37 % 1020,3 hPa 0,0 l/m 5,6 km/h SO 134 1 min 0,000 mm 4,4 UV-I 786 W/m 13,3 C 29,6 C 9,6 km/h 100,00 %
24.08.2019 13:36 29,6 C 36 % 1020,3 hPa 0,0 l/m 7,1 km/h O-SO 123 1 min 0,000 mm 4,4 UV-I 784 W/m 12,9 C 29,5 C 11,5 km/h 100,00 %
24.08.2019 13:35 29,5 C 37 % 1020,3 hPa 0,0 l/m 4,0 km/h SO 125 1 min 0,000 mm 4,4 UV-I 781 W/m 13,3 C 29,5 C 9,6 km/h 100,00 %
24.08.2019 13:34 29,4 C 36 % 1020,3 hPa 0,0 l/m 0,9 km/h N-NW 336 1 min 0,000 mm 4,4 UV-I 781 W/m 12,7 C 29,4 C 3,8 km/h 100,00 %
24.08.2019 13:33 29,3 C 36 % 1020,3 hPa 0,0 l/m 3,0 km/h N-NW 336 1 min 0,000 mm 4,4 UV-I 782 W/m 12,7 C 29,3 C 3,8 km/h 100,00 %
24.08.2019 13:32 29,3 C 36 % 1020,3 hPa 0,0 l/m 2,2 km/h N-NW 331 1 min 0,000 mm 4,4 UV-I 780 W/m 12,7 C 29,3 C 5,7 km/h 100,00 %
24.08.2019 13:31 29,3 C 36 % 1020,3 hPa 0,0 l/m 2,7 km/h NW 311 1 min 0,000 mm 4,4 UV-I 780 W/m 12,7 C 29,3 C 3,8 km/h 100,00 %
24.08.2019 13:30 29,3 C 36 % 1020,3 hPa 0,0 l/m 0,6 km/h NW 320 1 min 0,000 mm 4,4 UV-I 782 W/m 12,7 C 29,3 C 1,9 km/h 100,00 %
24.08.2019 13:29 29,3 C 36 % 1020,3 hPa 0,0 l/m 3,7 km/h NW 320 1 min 0,000 mm 4,4 UV-I 780 W/m 12,7 C 29,3 C 5,7 km/h 100,00 %
24.08.2019 13:28 29,2 C 36 % 1020,3 hPa 0,0 l/m 1,9 km/h N 5 1 min 0,000 mm 4,4 UV-I 778 W/m 12,6 C 29,2 C 3,8 km/h 100,00 %
24.08.2019 13:27 29,2 C 36 % 1020,4 hPa 0,0 l/m 2,9 km/h N 9 1 min 0,000 mm 4,4 UV-I 777 W/m 12,6 C 29,2 C 3,8 km/h 100,00 %
24.08.2019 13:26 29,2 C 36 % 1020,3 hPa 0,0 l/m 4,5 km/h N 10 1 min 0,000 mm 4,4 UV-I 779 W/m 12,6 C 29,2 C 7,7 km/h 100,00 %
24.08.2019 13:25 29,2 C 36 % 1020,3 hPa 0,0 l/m 8,3 km/h N 5 1 min 0,000 mm 4,4 UV-I 780 W/m 12,6 C 29,0 C 15,3 km/h 100,00 %
24.08.2019 13:24 29,2 C 36 % 1020,4 hPa 0,0 l/m 2,4 km/h O-NO 67 1 min 0,000 mm 4,4 UV-I 778 W/m 12,6 C 29,2 C 5,7 km/h 100,00 %
24.08.2019 13:23 29,2 C 36 % 1020,4 hPa 0,0 l/m 0,5 km/h O 85 1 min 0,000 mm 4,4 UV-I 778 W/m 12,6 C 29,2 C 1,9 km/h 100,00 %
24.08.2019 13:22 29,2 C 36 % 1020,4 hPa 0,0 l/m 4,5 km/h O 85 1 min 0,000 mm 4,4 UV-I 781 W/m 12,6 C 29,2 C 7,7 km/h 100,00 %
24.08.2019 13:21 29,2 C 38 % 1020,3 hPa 0,0 l/m 10,3 km/h O 86 1 min 0,000 mm 4,4 UV-I 780 W/m 13,4 C 28,8 C 13,4 km/h 100,00 %
24.08.2019 13:20 29,1 C 38 % 1020,4 hPa 0,0 l/m 4,2 km/h SO 140 1 min 0,000 mm 4,4 UV-I 782 W/m 13,3 C 29,1 C 13,4 km/h 96,15 %
24.08.2019 13:19 28,9 C 38 % 1020,3 hPa 0,0 l/m 3,1 km/h N 351 1 min 0,000 mm 4,4 UV-I 780 W/m 13,1 C 28,9 C 5,7 km/h 91,67 %
24.08.2019 13:18 28,8 C 37 % 1020,3 hPa 0,0 l/m 4,5 km/h W-NW 297 1 min 0,000 mm 4,4 UV-I 780 W/m 12,6 C 28,8 C 7,7 km/h 100,00 %
24.08.2019 13:17 28,8 C 37 % 1020,4 hPa 0,0 l/m 6,4 km/h NW 325 1 min 0,000 mm 4,4 UV-I 778 W/m 12,6 C 28,8 C 7,7 km/h 100,00 %
24.08.2019 13:16 28,8 C 37 % 1020,4 hPa 0,0 l/m 3,7 km/h N-NW 348 1 min 0,000 mm 4,4 UV-I 777 W/m 12,6 C 28,8 C 9,6 km/h 100,00 %
24.08.2019 13:15 28,8 C 37 % 1020,4 hPa 0,0 l/m 1,6 km/h NO 45 1 min 0,000 mm 4,4 UV-I 774 W/m 12,6 C 28,8 C 3,8 km/h 100,00 %
24.08.2019 13:14 28,7 C 37 % 1020,4 hPa 0,0 l/m 3,2 km/h NO 37 1 min 0,000 mm 4,4 UV-I 775 W/m 12,5 C 28,7 C 7,7 km/h 100,00 %
24.08.2019 13:13 28,7 C 38 % 1020,4 hPa 0,0 l/m 5,4 km/h S-SO 162 1 min 0,000 mm 4,3 UV-I 773 W/m 13,0 C 28,7 C 13,4 km/h 100,00 %
24.08.2019 13:12 28,7 C 37 % 1020,5 hPa 0,0 l/m 6,8 km/h S-SO 151 1 min 0,000 mm 4,3 UV-I 772 W/m 12,5 C 28,6 C 15,3 km/h 100,00 %
24.08.2019 13:11 28,7 C 37 % 1020,4 hPa 0,0 l/m 8,8 km/h O-SO 108 1 min 0,000 mm 4,3 UV-I 772 W/m 12,5 C 28,4 C 13,4 km/h 100,00 %
24.08.2019 13:10 28,7 C 38 % 1020,5 hPa 0,0 l/m 5,8 km/h O-SO 108 1 min 0,000 mm 4,4 UV-I 772 W/m 13,0 C 28,7 C 11,5 km/h 100,00 %
24.08.2019 13:09 28,6 C 38 % 1020,5 hPa 0,0 l/m 2,8 km/h O-NO 75 1 min 0,000 mm 4,3 UV-I 773 W/m 12,9 C 28,6 C 5,7 km/h 100,00 %
24.08.2019 13:08 28,6 C 38 % 1020,5 hPa 0,0 l/m 1,7 km/h SO 129 1 min 0,000 mm 4,3 UV-I 773 W/m 12,9 C 28,6 C 3,8 km/h 100,00 %
24.08.2019 13:07 28,7 C 38 % 1020,5 hPa 0,0 l/m 5,9 km/h SO 129 1 min 0,000 mm 4,3 UV-I 771 W/m 13,0 C 28,7 C 7,7 km/h 100,00 %
24.08.2019 13:06 28,7 C 38 % 1020,5 hPa 0,0 l/m 4,4 km/h SO 128 1 min 0,000 mm 4,3 UV-I 768 W/m 13,0 C 28,7 C 7,7 km/h 94,44 %
24.08.2019 13:05 28,8 C 37 % 1020,5 hPa 0,0 l/m 8,2 km/h SO 127 1 min 0,000 mm 4,3 UV-I 768 W/m 12,6 C 28,6 C 15,3 km/h 100,00 %
24.08.2019 13:04 28,8 C 37 % 1020,5 hPa 0,0 l/m 8,6 km/h O-NO 62 1 min 0,000 mm 4,3 UV-I 767 W/m 12,6 C 28,5 C 15,3 km/h 95,83 %
24.08.2019 13:03 28,8 C 37 % 1020,5 hPa 0,0 l/m 4,2 km/h NO 51 1 min 0,000 mm 4,3 UV-I 769 W/m 12,6 C 28,8 C 9,6 km/h 95,65 %
24.08.2019 13:02 28,8 C 38 % 1020,5 hPa 0,0 l/m 6,5 km/h NO 53 1 min 0,000 mm 4,3 UV-I 765 W/m 13,0 C 28,8 C 13,4 km/h 100,00 %
24.08.2019 13:01 28,7 C 37 % 1020,6 hPa 0,0 l/m 3,4 km/h NO 43 1 min 0,508 mm 4,3 UV-I 765 W/m 12,5 C 28,7 C 5,7 km/h 96,55 %
24.08.2019 13:00 28,7 C 38 % 1020,6 hPa 0,0 l/m 1,4 km/h NO 40 1 min 0,000 mm 4,3 UV-I 765 W/m 13,0 C 28,7 C 3,8 km/h 92,59 %
24.08.2019 12:59 28,7 C 37 % 1020,6 hPa 0,0 l/m 1,2 km/h N-NO 31 1 min 0,000 mm 4,3 UV-I 764 W/m 12,5 C 28,7 C 3,8 km/h 100,00 %
24.08.2019 12:58 28,7 C 38 % 1020,6 hPa 0,0 l/m 2,9 km/h N-NO 31 1 min 0,000 mm 4,3 UV-I 764 W/m 13,0 C 28,7 C 5,7 km/h 95,83 %
24.08.2019 12:57 28,6 C 37 % 1020,6 hPa 0,0 l/m 1,0 km/h N-NO 33 1 min 0,000 mm 4,3 UV-I 765 W/m 12,5 C 28,6 C 1,9 km/h 100,00 %
24.08.2019 12:56 28,5 C 38 % 1020,6 hPa 0,0 l/m 1,8 km/h NO 34 1 min 0,000 mm 4,2 UV-I 762 W/m 12,8 C 28,5 C 5,7 km/h 95,83 %
24.08.2019 12:55 28,4 C 38 % 1020,6 hPa 0,0 l/m 3,2 km/h N-NO 29 1 min 0,000 mm 4,2 UV-I 760 W/m 12,7 C 28,4 C 9,6 km/h 100,00 %
24.08.2019 12:54 28,4 C 37 % 1020,6 hPa 0,0 l/m 8,5 km/h N-NO 31 1 min 0,000 mm 4,2 UV-I 760 W/m 12,3 C 28,1 C 17,2 km/h 96,30 %
24.08.2019 12:53 28,4 C 38 % 1020,6 hPa 0,0 l/m 7,4 km/h N 355 1 min 0,000 mm 4,2 UV-I 762 W/m 12,7 C 28,3 C 13,4 km/h 100,00 %
24.08.2019 12:52 28,4 C 37 % 1020,7 hPa 0,0 l/m 1,9 km/h N-NO 26 1 min 0,000 mm 4,2 UV-I 761 W/m 12,3 C 28,4 C 3,8 km/h 91,67 %
24.08.2019 12:51 28,5 C 37 % 1020,7 hPa 0,0 l/m 1,1 km/h N 355 1 min 0,000 mm 4,2 UV-I 759 W/m 12,4 C 28,5 C 3,8 km/h 96,88 %
24.08.2019 12:50 28,6 C 38 % 1020,7 hPa 0,0 l/m 6,8 km/h N 355 1 min 0,000 mm 4,2 UV-I 756 W/m 12,9 C 28,5 C 11,5 km/h 100,00 %
24.08.2019 12:49 28,6 C 38 % 1020,7 hPa 0,0 l/m 5,2 km/h NO 38 1 min 0,000 mm 4,2 UV-I 755 W/m 12,9 C 28,6 C 9,6 km/h 100,00 %
24.08.2019 12:48 28,6 C 38 % 1020,7 hPa 0,0 l/m 8,4 km/h NO 52 1 min 0,000 mm 4,2 UV-I 752 W/m 12,9 C 28,3 C 13,4 km/h 95,65 %
24.08.2019 12:47 28,6 C 39 % 1020,8 hPa 0,0 l/m 6,8 km/h NO 48 1 min 0,000 mm 4,2 UV-I 752 W/m 13,3 C 28,5 C 11,5 km/h 96,00 %
24.08.2019 12:46 28,4 C 39 % 1020,8 hPa 0,0 l/m 3,1 km/h NO 47 1 min 0,000 mm 4,1 UV-I 751 W/m 13,1 C 28,4 C 7,7 km/h 91,30 %
24.08.2019 12:45 28,4 C 39 % 1020,8 hPa 0,0 l/m 3,2 km/h N-NO 17 1 min 0,000 mm 4,1 UV-I 751 W/m 13,1 C 28,4 C 7,7 km/h 92,00 %
24.08.2019 12:44 28,4 C 39 % 1020,8 hPa 0,0 l/m 5,2 km/h N-NO 19 1 min 0,000 mm 4,1 UV-I 751 W/m 13,1 C 28,4 C 7,7 km/h 100,00 %
24.08.2019 12:43 28,3 C 40 % 1020,8 hPa 0,0 l/m 1,5 km/h NO 44 1 min 0,000 mm 4,1 UV-I 749 W/m 13,4 C 28,3 C 3,8 km/h 95,83 %
24.08.2019 12:42 28,2 C 40 % 1020,8 hPa 0,0 l/m 3,9 km/h NO 44 1 min 0,000 mm 4,1 UV-I 749 W/m 13,3 C 28,2 C 9,6 km/h 100,00 %
24.08.2019 12:41 28,1 C 40 % 1020,8 hPa 0,0 l/m 6,7 km/h NO 51 1 min 0,000 mm 4,1 UV-I 748 W/m 13,2 C 28,1 C 11,5 km/h 96,30 %
24.08.2019 12:40 28,1 C 40 % 1020,8 hPa 0,0 l/m 2,3 km/h NO 44 1 min 0,000 mm 4,1 UV-I 746 W/m 13,2 C 28,1 C 7,7 km/h 94,12 %
24.08.2019 12:39 27,9 C 40 % 1020,8 hPa 0,0 l/m 6,6 km/h NO 44 1 min 0,000 mm 4,1 UV-I 745 W/m 13,0 C 27,9 C 9,6 km/h 100,00 %
24.08.2019 12:38 27,9 C 40 % 1020,8 hPa 0,0 l/m 5,7 km/h NO 48 1 min 0,000 mm 4,1 UV-I 747 W/m 13,0 C 27,9 C 11,5 km/h 92,86 %
24.08.2019 12:37 27,8 C 40 % 1020,7 hPa 0,0 l/m 5,4 km/h N-NO 19 1 min 0,000 mm 4,1 UV-I 749 W/m 12,9 C 27,8 C 9,6 km/h 100,00 %
24.08.2019 12:36 27,9 C 39 % 1020,8 hPa 0,0 l/m 5,7 km/h N-NO 13 1 min 0,000 mm 4,1 UV-I 747 W/m 12,6 C 27,9 C 7,7 km/h 95,65 %
24.08.2019 12:35 27,9 C 39 % 1020,8 hPa 0,0 l/m 1,7 km/h N-NO 13 1 min 0,000 mm 4,0 UV-I 744 W/m 12,6 C 27,9 C 7,7 km/h 100,00 %
24.08.2019 12:34 27,9 C 38 % 1020,8 hPa 0,0 l/m 4,4 km/h N-NO 21 1 min 0,000 mm 4,0 UV-I 743 W/m 12,2 C 27,9 C 7,7 km/h 96,15 %
24.08.2019 12:33 28,1 C 39 % 1020,9 hPa 0,0 l/m 7,0 km/h N 360 1 min 0,000 mm 4,0 UV-I 742 W/m 12,8 C 28,0 C 9,6 km/h 100,00 %
24.08.2019 12:32 28,1 C 40 % 1020,8 hPa 0,0 l/m 6,1 km/h N 355 1 min 0,000 mm 4,0 UV-I 742 W/m 13,2 C 28,1 C 7,7 km/h 96,15 %
24.08.2019 12:31 28,1 C 40 % 1020,8 hPa 0,0 l/m 5,3 km/h N-NO 18 1 min 0,000 mm 4,0 UV-I 736 W/m 13,2 C 28,1 C 11,5 km/h 100,00 %
24.08.2019 12:30 27,9 C 40 % 1020,9 hPa 0,0 l/m 3,0 km/h O-NO 58 1 min 0,000 mm 4,0 UV-I 732 W/m 13,0 C 27,9 C 5,7 km/h 91,67 %
24.08.2019 12:29 27,9 C 41 % 1020,9 hPa 0,0 l/m 5,5 km/h O-NO 59 1 min 0,000 mm 4,0 UV-I 731 W/m 13,4 C 27,9 C 11,5 km/h 95,65 %
24.08.2019 12:28 27,9 C 41 % 1020,9 hPa 0,0 l/m 3,6 km/h NO 35 1 min 0,000 mm 4,0 UV-I 730 W/m 13,4 C 27,9 C 7,7 km/h 100,00 %
24.08.2019 12:27 27,8 C 41 % 1020,9 hPa 0,0 l/m 5,9 km/h N-NO 22 1 min 0,000 mm 4,0 UV-I 728 W/m 13,3 C 27,8 C 9,6 km/h 91,30 %
24.08.2019 12:26 27,8 C 41 % 1020,9 hPa 0,0 l/m 2,3 km/h NO 34 1 min 0,000 mm 4,0 UV-I 728 W/m 13,3 C 27,8 C 5,7 km/h 96,30 %
24.08.2019 12:25 27,7 C 42 % 1020,9 hPa 0,0 l/m 1,0 km/h O-NO 62 1 min 0,000 mm 3,9 UV-I 728 W/m 13,6 C 27,7 C 3,8 km/h 96,15 %
24.08.2019 12:24 27,7 C 43 % 1020,9 hPa 0,0 l/m 3,2 km/h O-NO 62 1 min 0,000 mm 3,9 UV-I 728 W/m 14,0 C 27,7 C 7,7 km/h 100,00 %
24.08.2019 12:23 27,6 C 41 % 1020,9 hPa 0,0 l/m 1,7 km/h O-NO 63 1 min 0,000 mm 3,9 UV-I 728 W/m 13,1 C 27,6 C 3,8 km/h 95,65 %
24.08.2019 12:22 27,6 C 41 % 1021,0 hPa 0,0 l/m 3,4 km/h O-NO 63 1 min 0,000 mm 3,9 UV-I 726 W/m 13,1 C 27,6 C 5,7 km/h 100,00 %
24.08.2019 12:21 27,7 C 42 % 1021,0 hPa 0,0 l/m 6,7 km/h O-NO 64 1 min 0,000 mm 3,9 UV-I 726 W/m 13,6 C 27,7 C 9,6 km/h 100,00 %
24.08.2019 12:20 27,7 C 41 % 1021,0 hPa 0,0 l/m 6,8 km/h O-NO 65 1 min 0,000 mm 3,9 UV-I 727 W/m 13,2 C 27,6 C 9,6 km/h 100,00 %
24.08.2019 12:19 27,7 C 41 % 1021,1 hPa 0,0 l/m 5,7 km/h O-NO 63 1 min 0,000 mm 3,9 UV-I 723 W/m 13,2 C 27,7 C 7,7 km/h 100,00 %
24.08.2019 12:18 27,7 C 41 % 1021,0 hPa 0,0 l/m 7,3 km/h O-NO 65 1 min 0,000 mm 3,8 UV-I 721 W/m 13,2 C 27,5 C 9,6 km/h 96,00 %
24.08.2019 12:17 27,7 C 41 % 1021,0 hPa 0,0 l/m 5,4 km/h O-NO 64 1 min 0,000 mm 3,8 UV-I 717 W/m 13,2 C 27,7 C 9,6 km/h 100,00 %
24.08.2019 12:16 27,7 C 41 % 1021,0 hPa 0,0 l/m 8,6 km/h O-NO 63 2 min 0,000 mm 3,8 UV-I 714 W/m 13,2 C 27,3 C 15,3 km/h 100,00 %
24.08.2019 12:14 27,4 C 39 % 1021,1 hPa 0,0 l/m 1,9 km/h O-NO 59 1 min 0,000 mm 3,8 UV-I 715 W/m 12,2 C 27,4 C 1,9 km/h 100,00 %
24.08.2019 12:13 27,4 C 40 % 1021,0 hPa 0,0 l/m 5,1 km/h O-NO 59 1 min 0,000 mm 3,8 UV-I 714 W/m 12,6 C 27,4 C 7,7 km/h 100,00 %
24.08.2019 12:12 27,3 C 39 % 1021,1 hPa 0,0 l/m 3,3 km/h NO 45 1 min 0,000 mm 3,8 UV-I 711 W/m 12,1 C 27,3 C 5,7 km/h 100,00 %
24.08.2019 12:11 27,2 C 40 % 1021,1 hPa 0,0 l/m 3,1 km/h N 5 1 min 0,000 mm 3,8 UV-I 711 W/m 12,4 C 27,2 C 5,7 km/h 100,00 %
24.08.2019 12:10 27,2 C 40 % 1021,1 hPa 0,0 l/m 5,2 km/h N 5 1 min 0,000 mm 3,8 UV-I 712 W/m 12,4 C 27,2 C 7,7 km/h 100,00 %
24.08.2019 12:09 27,3 C 39 % 1021,1 hPa 0,0 l/m 3,9 km/h N 5 1 min 0,000 mm 3,8 UV-I 714 W/m 12,1 C 27,3 C 7,7 km/h 91,30 %
24.08.2019 12:08 27,2 C 39 % 1021,1 hPa 0,0 l/m 3,4 km/h N-NO 29 1 min 0,000 mm 3,8 UV-I 713 W/m 12,0 C 27,2 C 5,7 km/h 100,00 %
24.08.2019 12:07 27,2 C 40 % 1021,1 hPa 0,0 l/m 3,9 km/h O-NO 58 1 min 0,000 mm 3,8 UV-I 709 W/m 12,4 C 27,2 C 5,7 km/h 100,00 %
24.08.2019 12:06 27,2 C 41 % 1021,1 hPa 0,0 l/m 3,0 km/h O-NO 62 1 min 0,000 mm 3,7 UV-I 706 W/m 12,8 C 27,2 C 5,7 km/h 100,00 %
24.08.2019 12:05 27,3 C 40 % 1021,1 hPa 0,0 l/m 2,4 km/h O-NO 63 1 min 0,000 mm 3,8 UV-I 706 W/m 12,5 C 27,3 C 7,7 km/h 100,00 %
24.08.2019 12:04 27,3 C 41 % 1021,2 hPa 0,0 l/m 7,8 km/h O-NO 66 1 min 0,000 mm 3,7 UV-I 704 W/m 12,9 C 27,0 C 11,5 km/h 100,00 %
24.08.2019 12:03 27,4 C 40 % 1021,2 hPa 0,0 l/m 6,0 km/h O-NO 62 1 min 0,000 mm 3,7 UV-I 703 W/m 12,6 C 27,4 C 9,6 km/h 100,00 %
24.08.2019 12:02 27,4 C 40 % 1021,2 hPa 0,0 l/m 5,8 km/h O-NO 61 1 min 0,000 mm 3,7 UV-I 701 W/m 12,6 C 27,4 C 9,6 km/h 100,00 %
24.08.2019 12:01 27,3 C 40 % 1021,2 hPa 0,0 l/m 5,6 km/h NO 56 1 min 0,432 mm 3,7 UV-I 698 W/m 12,5 C 27,3 C 7,7 km/h 100,00 %
24.08.2019 12:00 27,2 C 42 % 1021,2 hPa 0,0 l/m 4,1 km/h NO 55 1 min 0,000 mm 3,7 UV-I 698 W/m 13,2 C 27,2 C 7,7 km/h 100,00 %
24.08.2019 11:59 27,2 C 42 % 1021,2 hPa 0,0 l/m 4,5 km/h NO 47 1 min 0,000 mm 3,6 UV-I 697 W/m 13,2 C 27,2 C 7,7 km/h 98,74 %
24.08.2019 11:58 27,0 C 43 % 1021,2 hPa 0,0 l/m 3,3 km/h O-NO 59 1 min 0,000 mm 3,7 UV-I 694 W/m 13,3 C 27,0 C 5,7 km/h 96,15 %
24.08.2019 11:57 26,8 C 43 % 1021,2 hPa 0,0 l/m 0,5 km/h O-NO 60 1 min 0,000 mm 3,7 UV-I 694 W/m 13,2 C 26,8 C 1,9 km/h 100,00 %
24.08.2019 11:56 26,8 C 44 % 1021,3 hPa 0,0 l/m 0,4 km/h O-NO 61 1 min 0,000 mm 3,6 UV-I 694 W/m 13,5 C 26,8 C 1,9 km/h 100,00 %
24.08.2019 11:55 26,7 C 43 % 1021,3 hPa 0,0 l/m 0,1 km/h O-NO 61 1 min 0,000 mm 3,6 UV-I 693 W/m 13,1 C 26,7 C 1,9 km/h 100,00 %
24.08.2019 11:54 26,7 C 43 % 1021,3 hPa 0,0 l/m 3,3 km/h O-NO 61 1 min 0,000 mm 3,6 UV-I 690 W/m 13,1 C 26,7 C 5,7 km/h 100,00 %
24.08.2019 11:53 26,7 C 44 % 1021,3 hPa 0,0 l/m 5,3 km/h O-NO 61 1 min 0,000 mm 3,6 UV-I 686 W/m 13,4 C 26,7 C 9,6 km/h 96,15 %
24.08.2019 11:52 26,6 C 43 % 1021,3 hPa 0,0 l/m 4,4 km/h O-NO 61 1 min 0,000 mm 3,6 UV-I 686 W/m 13,0 C 26,6 C 7,7 km/h 100,00 %
24.08.2019 11:51 26,6 C 44 % 1021,3 hPa 0,0 l/m 2,1 km/h O-NO 61 1 min 0,000 mm 3,6 UV-I 687 W/m 13,3 C 26,6 C 5,7 km/h 100,00 %
24.08.2019 11:50 26,6 C 43 % 1021,3 hPa 0,0 l/m 2,2 km/h O-NO 61 1 min 0,000 mm 3,6 UV-I 686 W/m 13,0 C 26,6 C 3,8 km/h 100,00 %
24.08.2019 11:49 26,6 C 43 % 1021,3 hPa 0,0 l/m 3,9 km/h O-NO 61 1 min 0,000 mm 3,5 UV-I 684 W/m 13,0 C 26,6 C 9,6 km/h 96,55 %
24.08.2019 11:48 26,6 C 43 % 1021,3 hPa 0,0 l/m 7,2 km/h O-NO 65 1 min 0,000 mm 3,5 UV-I 680 W/m 13,0 C 26,4 C 11,5 km/h 100,00 %
24.08.2019 11:47 26,5 C 41 % 1021,3 hPa 0,0 l/m 0,6 km/h NO 53 1 min 0,000 mm 3,5 UV-I 681 W/m 12,2 C 26,5 C 1,9 km/h 100,00 %
24.08.2019 11:46 26,5 C 43 % 1021,4 hPa 0,0 l/m 2,8 km/h O-NO 59 1 min 0,000 mm 3,4 UV-I 680 W/m 12,9 C 26,5 C 5,7 km/h 100,00 %
24.08.2019 11:45 26,5 C 44 % 1021,3 hPa 0,0 l/m 3,5 km/h O-NO 60 1 min 0,000 mm 3,4 UV-I 680 W/m 13,2 C 26,5 C 5,7 km/h 100,00 %
24.08.2019 11:44 26,4 C 43 % 1021,4 hPa 0,0 l/m 4,9 km/h O-NO 61 1 min 0,000 mm 3,5 UV-I 678 W/m 12,8 C 26,4 C 7,7 km/h 100,00 %
24.08.2019 11:43 26,4 C 43 % 1021,4 hPa 0,0 l/m 4,7 km/h O-NO 61 1 min 0,000 mm 3,5 UV-I 676 W/m 12,8 C 26,4 C 13,4 km/h 100,00 %
24.08.2019 11:42 26,4 C 43 % 1021,4 hPa 0,0 l/m 4,0 km/h O-NO 61 1 min 0,000 mm 3,5 UV-I 673 W/m 12,8 C 26,4 C 9,6 km/h 100,00 %
24.08.2019 11:41 26,4 C 44 % 1021,3 hPa 0,0 l/m 5,5 km/h O-NO 61 1 min 0,000 mm 3,5 UV-I 671 W/m 13,1 C 26,4 C 7,7 km/h 100,00 %
24.08.2019 11:40 26,4 C 44 % 1021,4 hPa 0,0 l/m 3,0 km/h O-NO 61 1 min 0,000 mm 3,4 UV-I 671 W/m 13,1 C 26,4 C 5,7 km/h 100,00 %
24.08.2019 11:39 26,4 C 44 % 1021,4 hPa 0,0 l/m 2,0 km/h O-NO 61 1 min 0,000 mm 3,4 UV-I 664 W/m 13,1 C 26,4 C 3,8 km/h 100,00 %
24.08.2019 11:38 26,4 C 44 % 1021,4 hPa 0,0 l/m 5,1 km/h O-NO 61 1 min 0,000 mm 3,4 UV-I 664 W/m 13,1 C 26,4 C 7,7 km/h 100,00 %
24.08.2019 11:37 26,4 C 44 % 1021,4 hPa 0,0 l/m 4,6 km/h O-NO 61 1 min 0,000 mm 3,4 UV-I 664 W/m 13,1 C 26,4 C 9,6 km/h 100,00 %
24.08.2019 11:36 26,3 C 44 % 1021,3 hPa 0,0 l/m 5,2 km/h O-NO 59 1 min 0,000 mm 3,4 UV-I 662 W/m 13,1 C 26,3 C 7,7 km/h 100,00 %
24.08.2019 11:35 26,3 C 45 % 1021,4 hPa 0,0 l/m 2,9 km/h O-NO 59 1 min 0,000 mm 3,4 UV-I 661 W/m 13,4 C 26,3 C 3,8 km/h 98,70 %
24.08.2019 11:34 26,2 C 45 % 1021,4 hPa 0,0 l/m 0,5 km/h O-NO 59 1 min 0,000 mm 3,3 UV-I 659 W/m 13,3 C 26,2 C 1,9 km/h 100,00 %
24.08.2019 11:33 26,1 C 45 % 1021,4 hPa 0,0 l/m 0,2 km/h O-NO 59 1 min 0,000 mm 3,3 UV-I 656 W/m 13,2 C 26,1 C 1,9 km/h 100,00 %
24.08.2019 11:32 26,0 C 45 % 1021,4 hPa 0,0 l/m 3,2 km/h O-NO 59 1 min 0,000 mm 3,3 UV-I 654 W/m 13,1 C 26,0 C 5,7 km/h 95,65 %
24.08.2019 11:31 25,9 C 45 % 1021,4 hPa 0,0 l/m 6,3 km/h O-NO 59 1 min 0,000 mm 3,3 UV-I 654 W/m 13,0 C 25,9 C 7,7 km/h 100,00 %
24.08.2019 11:30 25,9 C 46 % 1021,4 hPa 0,0 l/m 5,3 km/h O-NO 59 1 min 0,000 mm 3,3 UV-I 653 W/m 13,4 C 25,9 C 7,7 km/h 100,00 %
24.08.2019 11:29 25,8 C 47 % 1021,4 hPa 0,0 l/m 4,9 km/h O-NO 59 1 min 0,000 mm 3,3 UV-I 650 W/m 13,6 C 25,8 C 7,7 km/h 100,00 %
24.08.2019 11:28 25,8 C 47 % 1021,4 hPa 0,0 l/m 2,2 km/h O-NO 57 1 min 0,000 mm 3,3 UV-I 649 W/m 13,6 C 25,8 C 3,8 km/h 100,00 %
24.08.2019 11:27 25,7 C 47 % 1021,5 hPa 0,0 l/m 0,9 km/h O-NO 57 1 min 0,000 mm 3,2 UV-I 646 W/m 13,5 C 25,7 C 3,8 km/h 100,00 %
24.08.2019 11:26 25,7 C 47 % 1021,4 hPa 0,0 l/m 0,9 km/h O-NO 61 1 min 0,000 mm 3,2 UV-I 647 W/m 13,5 C 25,7 C 3,8 km/h 100,00 %
24.08.2019 11:25 25,7 C 47 % 1021,4 hPa 0,0 l/m 0,4 km/h O-NO 61 1 min 0,000 mm 3,2 UV-I 644 W/m 13,5 C 25,7 C 1,9 km/h 100,00 %
24.08.2019 11:24 25,8 C 47 % 1021,5 hPa 0,0 l/m 2,6 km/h O-NO 61 1 min 0,000 mm 3,2 UV-I 642 W/m 13,6 C 25,8 C 3,8 km/h 100,00 %
24.08.2019 11:23 25,8 C 47 % 1021,5 hPa 0,0 l/m 4,2 km/h O-NO 62 1 min 0,000 mm 3,1 UV-I 640 W/m 13,6 C 25,8 C 5,7 km/h 100,00 %
24.08.2019 11:22 25,9 C 47 % 1021,5 hPa 0,0 l/m 8,0 km/h O-NO 63 1 min 0,000 mm 2,3 UV-I 638 W/m 13,7 C 25,5 C 9,6 km/h 100,00 %
24.08.2019 11:21 26,0 C 46 % 1021,5 hPa 0,0 l/m 7,6 km/h O-NO 62 1 min 0,000 mm 3,1 UV-I 636 W/m 13,5 C 25,7 C 9,6 km/h 100,00 %
24.08.2019 11:20 26,0 C 46 % 1021,5 hPa 0,0 l/m 4,1 km/h N-NO 24 1 min 0,000 mm 3,1 UV-I 635 W/m 13,5 C 26,0 C 7,7 km/h 100,00 %
24.08.2019 11:19 26,0 C 47 % 1021,5 hPa 0,0 l/m 1,0 km/h NO 55 1 min 0,000 mm 3,1 UV-I 633 W/m 13,8 C 26,0 C 3,8 km/h 100,00 %
24.08.2019 11:18 25,9 C 47 % 1021,5 hPa 0,0 l/m 3,6 km/h NO 55 1 min 0,000 mm 3,1 UV-I 631 W/m 13,7 C 25,9 C 7,7 km/h 100,00 %
24.08.2019 11:17 25,9 C 47 % 1021,5 hPa 0,0 l/m 4,2 km/h NO 55 1 min 0,000 mm 3,1 UV-I 629 W/m 13,7 C 25,9 C 5,7 km/h 100,00 %
24.08.2019 11:16 25,8 C 47 % 1021,5 hPa 0,0 l/m 1,1 km/h NO 54 1 min 0,000 mm 3,1 UV-I 626 W/m 13,6 C 25,8 C 3,8 km/h 100,00 %
24.08.2019 11:15 25,8 C 46 % 1021,4 hPa 0,0 l/m 3,9 km/h NO 53 1 min 0,000 mm 3,1 UV-I 624 W/m 13,3 C 25,8 C 9,6 km/h 100,00 %
24.08.2019 11:14 25,8 C 47 % 1021,5 hPa 0,0 l/m 3,4 km/h NO 53 1 min 0,000 mm 3,1 UV-I 623 W/m 13,6 C 25,8 C 5,7 km/h 100,00 %
24.08.2019 11:13 25,7 C 47 % 1021,5 hPa 0,0 l/m 2,6 km/h NO 44 1 min 0,000 mm 3,0 UV-I 620 W/m 13,5 C 25,7 C 5,7 km/h 100,00 %
24.08.2019 11:12 25,7 C 47 % 1021,5 hPa 0,0 l/m 1,0 km/h O-NO 58 1 min 0,000 mm 3,0 UV-I 619 W/m 13,5 C 25,7 C 5,7 km/h 100,00 %
24.08.2019 11:11 25,7 C 47 % 1021,5 hPa 0,0 l/m 1,3 km/h O-NO 60 1 min 0,000 mm 3,0 UV-I 617 W/m 13,5 C 25,7 C 3,8 km/h 95,65 %
24.08.2019 11:10 25,7 C 46 % 1021,5 hPa 0,0 l/m 2,4 km/h O-NO 61 1 min 0,000 mm 3,0 UV-I 615 W/m 13,2 C 25,7 C 3,8 km/h 100,00 %
24.08.2019 11:09 25,7 C 47 % 1021,5 hPa 0,0 l/m 6,3 km/h O-NO 61 1 min 0,000 mm 3,0 UV-I 612 W/m 13,5 C 25,7 C 9,6 km/h 96,30 %
24.08.2019 11:08 25,7 C 46 % 1021,5 hPa 0,0 l/m 1,9 km/h O-NO 59 1 min 0,000 mm 3,0 UV-I 611 W/m 13,2 C 25,7 C 5,7 km/h 100,00 %
24.08.2019 11:07 25,7 C 46 % 1021,5 hPa 0,0 l/m 2,8 km/h O-NO 57 1 min 0,000 mm 2,9 UV-I 609 W/m 13,2 C 25,7 C 5,7 km/h 100,00 %
24.08.2019 11:06 25,6 C 46 % 1021,5 hPa 0,0 l/m 3,2 km/h O-NO 57 1 min 0,000 mm 2,9 UV-I 606 W/m 13,1 C 25,6 C 7,7 km/h 100,00 %
24.08.2019 11:05 25,6 C 47 % 1021,5 hPa 0,0 l/m 2,6 km/h NO 54 1 min 0,000 mm 2,9 UV-I 605 W/m 13,4 C 25,6 C 3,8 km/h 100,00 %
24.08.2019 11:04 25,5 C 47 % 1021,5 hPa 0,0 l/m 0,7 km/h NO 54 1 min 0,000 mm 2,9 UV-I 603 W/m 13,3 C 25,5 C 3,8 km/h 100,00 %
24.08.2019 11:03 25,5 C 46 % 1021,5 hPa 0,0 l/m 4,9 km/h NO 55 1 min 0,000 mm 2,9 UV-I 600 W/m 13,0 C 25,5 C 7,7 km/h 100,00 %
24.08.2019 11:02 25,5 C 47 % 1021,5 hPa 0,0 l/m 4,5 km/h NO 54 1 min 0,000 mm 2,9 UV-I 599 W/m 13,3 C 25,5 C 5,7 km/h 95,83 %
24.08.2019 11:01 25,4 C 48 % 1021,5 hPa 0,0 l/m 3,8 km/h NO 55 1 min 0,356 mm 2,9 UV-I 597 W/m 13,6 C 25,4 C 7,7 km/h 100,00 %
24.08.2019 11:00 25,4 C 47 % 1021,6 hPa 0,0 l/m 0,2 km/h NO 55 1 min 0,000 mm 2,8 UV-I 595 W/m 13,3 C 25,4 C 1,9 km/h 100,00 %
24.08.2019 10:59 25,4 C 48 % 1021,5 hPa 0,0 l/m 2,1 km/h NO 55 1 min 0,000 mm 2,8 UV-I 592 W/m 13,6 C 25,4 C 5,7 km/h 100,00 %
24.08.2019 10:58 25,3 C 48 % 1021,5 hPa 0,0 l/m 1,0 km/h NO 54 1 min 0,000 mm 2,7 UV-I 591 W/m 13,5 C 25,3 C 3,8 km/h 100,00 %
24.08.2019 10:57 25,3 C 48 % 1021,5 hPa 0,0 l/m 1,0 km/h NO 55 1 min 0,000 mm 2,6 UV-I 588 W/m 13,5 C 25,3 C 3,8 km/h 100,00 %
24.08.2019 10:56 25,3 C 48 % 1021,5 hPa 0,0 l/m 1,2 km/h NO 55 1 min 0,000 mm 2,8 UV-I 586 W/m 13,5 C 25,3 C 1,9 km/h 100,00 %
24.08.2019 10:55 25,2 C 47 % 1021,5 hPa 0,0 l/m 1,1 km/h NO 55 1 min 0,000 mm 2,7 UV-I 585 W/m 13,1 C 25,2 C 3,8 km/h 100,00 %
24.08.2019 10:54 25,2 C 47 % 1021,6 hPa 0,0 l/m 2,2 km/h NO 55 1 min 0,000 mm 2,7 UV-I 583 W/m 13,1 C 25,2 C 7,7 km/h 100,00 %
24.08.2019 10:53 25,2 C 47 % 1021,5 hPa 0,0 l/m 7,2 km/h O-NO 57 1 min 0,000 mm 2,7 UV-I 580 W/m 13,1 C 25,0 C 9,6 km/h 100,00 %
24.08.2019 10:52 25,2 C 47 % 1021,5 hPa 0,0 l/m 5,2 km/h O-NO 58 1 min 0,000 mm 2,7 UV-I 578 W/m 13,1 C 25,2 C 7,7 km/h 100,00 %
24.08.2019 10:51 25,2 C 48 % 1021,5 hPa 0,0 l/m 7,3 km/h O-NO 60 1 min 0,000 mm 2,7 UV-I 577 W/m 13,4 C 25,0 C 9,6 km/h 100,00 %
24.08.2019 10:50 25,1 C 49 % 1021,5 hPa 0,0 l/m 3,9 km/h O-NO 58 1 min 0,000 mm 2,7 UV-I 574 W/m 13,6 C 25,1 C 5,7 km/h 100,00 %
24.08.2019 10:49 25,0 C 48 % 1021,5 hPa 0,0 l/m 1,0 km/h O-NO 57 1 min 0,000 mm 2,6 UV-I 572 W/m 13,2 C 25,0 C 1,9 km/h 100,00 %
24.08.2019 10:48 24,9 C 48 % 1021,6 hPa 0,0 l/m 3,2 km/h O-NO 57 1 min 0,000 mm 2,6 UV-I 570 W/m 13,1 C 24,9 C 5,7 km/h 100,00 %
24.08.2019 10:47 24,8 C 48 % 1021,5 hPa 0,0 l/m 1,8 km/h NO 56 1 min 0,000 mm 2,6 UV-I 570 W/m 13,0 C 24,8 C 3,8 km/h 100,00 %
24.08.2019 10:46 24,8 C 48 % 1021,5 hPa 0,0 l/m 1,0 km/h NO 56 1 min 0,000 mm 2,6 UV-I 566 W/m 13,0 C 24,8 C 1,9 km/h 95,65 %
24.08.2019 10:45 24,7 C 47 % 1021,6 hPa 0,0 l/m 0,7 km/h O-NO 57 1 min 0,000 mm 2,6 UV-I 563 W/m 12,6 C 24,7 C 3,8 km/h 100,00 %
24.08.2019 10:44 24,7 C 47 % 1021,6 hPa 0,0 l/m 3,3 km/h O-NO 57 1 min 0,000 mm 2,5 UV-I 561 W/m 12,6 C 24,7 C 5,7 km/h 100,00 %
24.08.2019 10:43 24,7 C 48 % 1021,6 hPa 0,0 l/m 4,8 km/h O-NO 58 1 min 0,000 mm 2,5 UV-I 558 W/m 12,9 C 24,7 C 7,7 km/h 100,00 %
24.08.2019 10:42 24,7 C 48 % 1021,6 hPa 0,0 l/m 3,2 km/h NO 46 1 min 0,000 mm 2,5 UV-I 555 W/m 12,9 C 24,7 C 5,7 km/h 95,83 %
24.08.2019 10:41 24,7 C 48 % 1021,6 hPa 0,0 l/m 3,5 km/h O-NO 61 1 min 0,000 mm 2,5 UV-I 555 W/m 12,9 C 24,7 C 5,7 km/h 100,00 %
24.08.2019 10:40 24,7 C 48 % 1021,6 hPa 0,0 l/m 6,5 km/h O-NO 62 1 min 0,000 mm 2,5 UV-I 553 W/m 12,9 C 24,7 C 9,6 km/h 100,00 %
24.08.2019 10:39 24,7 C 48 % 1021,5 hPa 0,0 l/m 5,9 km/h O-NO 63 1 min 0,000 mm 2,5 UV-I 550 W/m 12,9 C 24,7 C 9,6 km/h 100,00 %
24.08.2019 10:38 24,6 C 49 % 1021,5 hPa 0,0 l/m 0,5 km/h NO 54 1 min 0,000 mm 2,5 UV-I 548 W/m 13,2 C 24,6 C 3,8 km/h 100,00 %
24.08.2019 10:37 24,5 C 50 % 1021,6 hPa 0,0 l/m 2,2 km/h NO 54 1 min 0,000 mm 2,4 UV-I 546 W/m 13,4 C 24,5 C 3,8 km/h 100,00 %
24.08.2019 10:36 24,4 C 50 % 1021,6 hPa 0,0 l/m 4,3 km/h O-NO 61 1 min 0,000 mm 2,4 UV-I 544 W/m 13,3 C 24,4 C 5,7 km/h 100,00 %
24.08.2019 10:35 24,4 C 50 % 1021,6 hPa 0,0 l/m 5,5 km/h O-NO 61 1 min 0,000 mm 2,4 UV-I 541 W/m 13,3 C 24,4 C 7,7 km/h 100,00 %
24.08.2019 10:34 24,3 C 51 % 1021,6 hPa 0,0 l/m 6,5 km/h O-NO 63 1 min 0,000 mm 2,4 UV-I 540 W/m 13,5 C 24,3 C 9,6 km/h 100,00 %
24.08.2019 10:33 24,2 C 51 % 1021,6 hPa 0,0 l/m 6,6 km/h O-NO 65 1 min 0,000 mm 2,4 UV-I 537 W/m 13,4 C 24,2 C 11,5 km/h 100,00 %
24.08.2019 10:32 24,2 C 50 % 1021,6 hPa 0,0 l/m 4,8 km/h NO 53 1 min 0,000 mm 2,3 UV-I 535 W/m 13,1 C 24,2 C 7,7 km/h 100,00 %
24.08.2019 10:31 24,1 C 50 % 1021,6 hPa 0,0 l/m 2,1 km/h NO 46 1 min 0,000 mm 2,3 UV-I 532 W/m 13,0 C 24,1 C 3,8 km/h 100,00 %
24.08.2019 10:30 24,1 C 50 % 1021,6 hPa 0,0 l/m 5,0 km/h NO 45 1 min 0,000 mm 2,3 UV-I 533 W/m 13,0 C 24,1 C 7,7 km/h 100,00 %
24.08.2019 10:29 23,9 C 51 % 1021,6 hPa 0,0 l/m 4,7 km/h NO 46 1 min 0,000 mm 2,3 UV-I 527 W/m 13,1 C 23,9 C 9,6 km/h 95,65 %
24.08.2019 10:28 23,9 C 52 % 1021,6 hPa 0,0 l/m 5,0 km/h O-NO 64 1 min 0,000 mm 2,3 UV-I 526 W/m 13,4 C 23,9 C 5,7 km/h 95,83 %
24.08.2019 10:27 23,9 C 52 % 1021,6 hPa 0,0 l/m 3,4 km/h O-NO 65 1 min 0,000 mm 2,3 UV-I 524 W/m 13,4 C 23,9 C 5,7 km/h 100,00 %
24.08.2019 10:26 23,9 C 51 % 1021,6 hPa 0,0 l/m 6,6 km/h O-NO 65 1 min 0,000 mm 2,3 UV-I 522 W/m 13,1 C 23,9 C 9,6 km/h 100,00 %
24.08.2019 10:25 23,9 C 51 % 1021,6 hPa 0,0 l/m 7,0 km/h O-NO 66 1 min 0,000 mm 2,2 UV-I 519 W/m 13,1 C 23,7 C 11,5 km/h 100,00 %
24.08.2019 10:24 23,8 C 51 % 1021,5 hPa 0,0 l/m 6,8 km/h O-NO 62 1 min 0,000 mm 2,2 UV-I 517 W/m 13,0 C 23,7 C 9,6 km/h 100,00 %
24.08.2019 10:23 23,7 C 52 % 1021,5 hPa 0,0 l/m 6,4 km/h O-NO 63 1 min 0,000 mm 2,2 UV-I 515 W/m 13,2 C 23,7 C 9,6 km/h 100,00 %
24.08.2019 10:22 23,7 C 52 % 1021,6 hPa 0,0 l/m 5,3 km/h O-NO 63 1 min 0,000 mm 2,2 UV-I 513 W/m 13,2 C 23,7 C 7,7 km/h 100,00 %
24.08.2019 10:21 23,7 C 52 % 1021,6 hPa 0,0 l/m 9,1 km/h O-NO 67 1 min 0,000 mm 2,2 UV-I 511 W/m 13,2 C 22,9 C 11,5 km/h 100,00 %
24.08.2019 10:20 23,8 C 52 % 1021,6 hPa 0,0 l/m 7,3 km/h O-NO 63 1 min 0,000 mm 2,2 UV-I 508 W/m 13,3 C 23,5 C 9,6 km/h 100,00 %
24.08.2019 10:19 23,8 C 53 % 1021,6 hPa 0,0 l/m 6,7 km/h O-NO 62 1 min 0,000 mm 2,2 UV-I 506 W/m 13,6 C 23,7 C 7,7 km/h 100,00 %
24.08.2019 10:18 23,8 C 53 % 1021,6 hPa 0,0 l/m 7,7 km/h O-NO 63 1 min 0,000 mm 2,1 UV-I 502 W/m 13,6 C 23,4 C 11,5 km/h 100,00 %
24.08.2019 10:17 23,7 C 52 % 1021,6 hPa 0,0 l/m 3,8 km/h O-NO 58 1 min 0,000 mm 2,1 UV-I 499 W/m 13,2 C 23,7 C 5,7 km/h 100,00 %
24.08.2019 10:16 23,7 C 54 % 1021,6 hPa 0,0 l/m 4,6 km/h O-NO 58 1 min 0,000 mm 2,1 UV-I 497 W/m 13,8 C 23,7 C 7,7 km/h 96,15 %
24.08.2019 10:15 23,6 C 54 % 1021,6 hPa 0,0 l/m 4,9 km/h O-NO 61 1 min 0,000 mm 2,1 UV-I 496 W/m 13,7 C 23,6 C 11,5 km/h 100,00 %
24.08.2019 10:14 23,6 C 55 % 1021,6 hPa 0,0 l/m 1,8 km/h O-NO 58 1 min 0,000 mm 2,1 UV-I 492 W/m 14,0 C 23,6 C 3,8 km/h 100,00 %
24.08.2019 10:13 23,5 C 56 % 1021,6 hPa 0,0 l/m 4,7 km/h O-NO 60 1 min 0,000 mm 2,1 UV-I 489 W/m 14,2 C 23,5 C 7,7 km/h 100,00 %
24.08.2019 10:12 23,4 C 57 % 1021,6 hPa 0,0 l/m 5,5 km/h O-NO 61 1 min 0,000 mm 2,1 UV-I 484 W/m 14,4 C 23,4 C 9,6 km/h 95,65 %
24.08.2019 10:11 23,4 C 57 % 1021,6 hPa 0,0 l/m 3,0 km/h O-NO 57 1 min 0,000 mm 2,0 UV-I 483 W/m 14,4 C 23,4 C 7,7 km/h 100,00 %
24.08.2019 10:10 23,3 C 57 % 1021,6 hPa 0,0 l/m 2,2 km/h O-NO 58 1 min 0,000 mm 2,0 UV-I 481 W/m 14,3 C 23,3 C 3,8 km/h 100,00 %
24.08.2019 10:09 23,2 C 58 % 1021,6 hPa 0,0 l/m 3,0 km/h O-NO 59 1 min 0,000 mm 2,0 UV-I 479 W/m 14,5 C 23,2 C 5,7 km/h 100,00 %
24.08.2019 10:08 23,1 C 58 % 1021,6 hPa 0,0 l/m 2,9 km/h O-NO 59 1 min 0,000 mm 2,0 UV-I 477 W/m 14,4 C 23,1 C 5,7 km/h 100,00 %
24.08.2019 10:07 23,0 C 57 % 1021,6 hPa 0,0 l/m 0,2 km/h O-NO 59 1 min 0,000 mm 2,0 UV-I 474 W/m 14,0 C 23,0 C 1,9 km/h 100,00 %
24.08.2019 10:06 22,9 C 58 % 1021,6 hPa 0,0 l/m 5,7 km/h O-NO 59 1 min 0,000 mm 1,9 UV-I 471 W/m 14,2 C 22,9 C 7,7 km/h 96,15 %
24.08.2019 10:05 22,9 C 59 % 1021,6 hPa 0,0 l/m 5,4 km/h O-NO 59 1 min 0,000 mm 1,9 UV-I 469 W/m 14,5 C 22,9 C 9,6 km/h 100,00 %
24.08.2019 10:04 22,8 C 59 % 1021,6 hPa 0,0 l/m 4,2 km/h O-NO 59 1 min 0,000 mm 1,9 UV-I 467 W/m 14,4 C 22,8 C 7,7 km/h 100,00 %
24.08.2019 10:03 22,8 C 59 % 1021,6 hPa 0,0 l/m 4,3 km/h O-NO 59 1 min 0,000 mm 1,9 UV-I 463 W/m 14,4 C 22,8 C 5,7 km/h 100,00 %
24.08.2019 10:02 22,8 C 58 % 1021,6 hPa 0,0 l/m 4,0 km/h O-NO 59 1 min 0,000 mm 1,9 UV-I 461 W/m 14,1 C 22,8 C 7,7 km/h 100,00 %
24.08.2019 10:01 22,8 C 58 % 1021,6 hPa 0,0 l/m 3,5 km/h O-NO 59 1 min 0,254 mm 1,9 UV-I 459 W/m 14,1 C 22,8 C 5,7 km/h 96,15 %
24.08.2019 10:00 22,7 C 58 % 1021,6 hPa 0,0 l/m 6,2 km/h O-NO 59 1 min 0,000 mm 1,8 UV-I 457 W/m 14,0 C 22,7 C 7,7 km/h 100,00 %
24.08.2019 09:59 22,7 C 59 % 1021,6 hPa 0,0 l/m 5,3 km/h O-NO 59 1 min 0,000 mm 1,8 UV-I 455 W/m 14,3 C 22,7 C 7,7 km/h 100,00 %
24.08.2019 09:58 22,6 C 60 % 1021,7 hPa 0,0 l/m 5,5 km/h O-NO 59 1 min 0,000 mm 1,8 UV-I 453 W/m 14,4 C 22,6 C 7,7 km/h 100,00 %
24.08.2019 09:57 22,6 C 61 % 1021,6 hPa 0,0 l/m 2,5 km/h O-NO 59 1 min 0,000 mm 1,8 UV-I 450 W/m 14,7 C 22,6 C 5,7 km/h 100,00 %
24.08.2019 09:56 22,4 C 61 % 1021,7 hPa 0,0 l/m 3,6 km/h O-NO 59 1 min 0,000 mm 1,8 UV-I 447 W/m 14,5 C 22,4 C 5,7 km/h 100,00 %
24.08.2019 09:55 22,4 C 61 % 1021,7 hPa 0,0 l/m 3,0 km/h O-NO 59 1 min 0,000 mm 1,8 UV-I 445 W/m 14,5 C 22,4 C 3,8 km/h 100,00 %
24.08.2019 09:54 22,3 C 61 % 1021,7 hPa 0,0 l/m 3,0 km/h O-NO 59 1 min 0,000 mm 1,7 UV-I 443 W/m 14,4 C 22,3 C 5,7 km/h 100,00 %
24.08.2019 09:53 22,3 C 61 % 1021,6 hPa 0,0 l/m 5,5 km/h O-NO 59 1 min 0,000 mm 1,7 UV-I 439 W/m 14,4 C 22,3 C 7,7 km/h 100,00 %
24.08.2019 09:52 22,3 C 61 % 1021,7 hPa 0,0 l/m 4,1 km/h O-NO 59 1 min 0,000 mm 1,7 UV-I 437 W/m 14,4 C 22,3 C 5,7 km/h 100,00 %
24.08.2019 09:51 22,3 C 61 % 1021,6 hPa 0,0 l/m 4,3 km/h O-NO 59 1 min 0,000 mm 1,7 UV-I 434 W/m 14,4 C 22,3 C 5,7 km/h 100,00 %
24.08.2019 09:50 22,3 C 61 % 1021,6 hPa 0,0 l/m 5,7 km/h O-NO 61 1 min 0,000 mm 1,7 UV-I 432 W/m 14,4 C 22,3 C 9,6 km/h 100,00 %
24.08.2019 09:49 22,2 C 62 % 1021,6 hPa 0,0 l/m 4,9 km/h O-NO 57 1 min 0,000 mm 1,7 UV-I 431 W/m 14,6 C 22,2 C 7,7 km/h 100,00 %
24.08.2019 09:48 22,2 C 63 % 1021,6 hPa 0,0 l/m 3,2 km/h O-NO 57 1 min 0,000 mm 1,7 UV-I 427 W/m 14,8 C 22,2 C 3,8 km/h 100,00 %
24.08.2019 09:47 22,2 C 62 % 1021,6 hPa 0,0 l/m 3,7 km/h O-NO 57 1 min 0,000 mm 1,6 UV-I 424 W/m 14,6 C 22,2 C 5,7 km/h 100,00 %
24.08.2019 09:46 22,2 C 61 % 1021,6 hPa 0,0 l/m 4,1 km/h O-NO 58 1 min 0,000 mm 1,6 UV-I 420 W/m 14,3 C 22,2 C 7,7 km/h 100,00 %
24.08.2019 09:45 22,2 C 62 % 1021,6 hPa 0,0 l/m 5,4 km/h O-NO 59 1 min 0,000 mm 1,6 UV-I 418 W/m 14,6 C 22,2 C 7,7 km/h 96,30 %
24.08.2019 09:44 22,2 C 62 % 1021,6 hPa 0,0 l/m 5,0 km/h O-NO 58 1 min 0,000 mm 1,6 UV-I 416 W/m 14,6 C 22,2 C 7,7 km/h 96,15 %
24.08.2019 09:43 22,2 C 62 % 1021,6 hPa 0,0 l/m 4,4 km/h O-NO 57 1 min 0,000 mm 1,6 UV-I 415 W/m 14,6 C 22,2 C 7,7 km/h 100,00 %
24.08.2019 09:42 22,2 C 62 % 1021,6 hPa 0,0 l/m 4,7 km/h O-NO 58 1 min 0,000 mm 1,6 UV-I 411 W/m 14,6 C 22,2 C 7,7 km/h 95,65 %
24.08.2019 09:41 22,1 C 62 % 1021,6 hPa 0,0 l/m 6,4 km/h O-NO 57 1 min 0,000 mm 1,5 UV-I 407 W/m 14,5 C 22,1 C 9,6 km/h 100,00 %
24.08.2019 09:40 22,1 C 63 % 1021,6 hPa 0,0 l/m 4,9 km/h NO 56 1 min 0,000 mm 1,5 UV-I 405 W/m 14,7 C 22,1 C 5,7 km/h 94,74 %
24.08.2019 09:39 22,0 C 63 % 1021,6 hPa 0,0 l/m 2,6 km/h NO 56 1 min 0,000 mm 1,5 UV-I 403 W/m 14,6 C 22,0 C 3,8 km/h 98,47 %
24.08.2019 09:38 21,9 C 63 % 1021,6 hPa 0,0 l/m 3,7 km/h NO 56 1 min 0,000 mm 1,5 UV-I 402 W/m 14,5 C 21,9 C 5,7 km/h 95,65 %
24.08.2019 09:37 21,9 C 63 % 1021,6 hPa 0,0 l/m 4,1 km/h NO 56 1 min 0,000 mm 1,5 UV-I 398 W/m 14,5 C 21,9 C 5,7 km/h 100,00 %
24.08.2019 09:36 21,9 C 63 % 1021,6 hPa 0,0 l/m 3,6 km/h NO 56 1 min 0,000 mm 1,5 UV-I 397 W/m 14,5 C 21,9 C 5,7 km/h 92,31 %
24.08.2019 09:35 21,9 C 63 % 1021,6 hPa 0,0 l/m 5,7 km/h O-NO 57 1 min 0,000 mm 1,5 UV-I 393 W/m 14,5 C 21,9 C 9,6 km/h 91,67 %
24.08.2019 09:34 21,9 C 63 % 1021,6 hPa 0,0 l/m 7,0 km/h NO 56 1 min 0,000 mm 1,4 UV-I 390 W/m 14,5 C 21,7 C 9,6 km/h 100,00 %
24.08.2019 09:33 21,9 C 63 % 1021,6 hPa 0,0 l/m 2,6 km/h NO 46 1 min 0,000 mm 1,4 UV-I 387 W/m 14,5 C 21,9 C 3,8 km/h 96,30 %
24.08.2019 09:32 21,9 C 63 % 1021,7 hPa 0,0 l/m 5,0 km/h NO 44 1 min 0,000 mm 1,4 UV-I 384 W/m 14,5 C 21,9 C 7,7 km/h 95,65 %
24.08.2019 09:31 21,9 C 63 % 1021,7 hPa 0,0 l/m 5,7 km/h NO 44 1 min 0,000 mm 1,4 UV-I 383 W/m 14,5 C 21,9 C 7,7 km/h 95,83 %
24.08.2019 09:30 21,9 C 64 % 1021,6 hPa 0,0 l/m 3,7 km/h NO 44 1 min 0,000 mm 1,4 UV-I 380 W/m 14,8 C 21,9 C 5,7 km/h 100,00 %
24.08.2019 09:29 21,8 C 65 % 1021,7 hPa 0,0 l/m 1,0 km/h NO 40 1 min 0,000 mm 1,4 UV-I 377 W/m 14,9 C 21,8 C 3,8 km/h 95,83 %
24.08.2019 09:28 21,7 C 65 % 1021,7 hPa 0,0 l/m 0,2 km/h NO 40 1 min 0,000 mm 1,3 UV-I 374 W/m 14,8 C 21,7 C 1,9 km/h 95,65 %
24.08.2019 09:27 21,6 C 65 % 1021,7 hPa 0,0 l/m 1,8 km/h NO 40 1 min 0,000 mm 1,3 UV-I 372 W/m 14,7 C 21,6 C 3,8 km/h 100,00 %
24.08.2019 09:26 21,6 C 65 % 1021,7 hPa 0,0 l/m 2,6 km/h NO 40 1 min 0,000 mm 1,3 UV-I 370 W/m 14,7 C 21,6 C 5,7 km/h 96,15 %
24.08.2019 09:25 21,4 C 65 % 1021,7 hPa 0,0 l/m 3,3 km/h NO 40 1 min 0,000 mm 1,3 UV-I 366 W/m 14,5 C 21,4 C 3,8 km/h 100,00 %
24.08.2019 09:24 21,4 C 65 % 1021,6 hPa 0,0 l/m 1,3 km/h NO 40 1 min 0,000 mm 1,3 UV-I 364 W/m 14,5 C 21,4 C 3,8 km/h 95,83 %
24.08.2019 09:23 21,3 C 66 % 1021,7 hPa 0,0 l/m 1,7 km/h NO 40 1 min 0,000 mm 1,3 UV-I 361 W/m 14,7 C 21,3 C 3,8 km/h 100,00 %
24.08.2019 09:22 21,3 C 66 % 1021,7 hPa 0,0 l/m 2,5 km/h NO 40 1 min 0,000 mm 1,3 UV-I 359 W/m 14,7 C 21,3 C 3,8 km/h 96,67 %
24.08.2019 09:21 21,3 C 65 % 1021,7 hPa 0,0 l/m 3,2 km/h NO 40 1 min 0,000 mm 1,3 UV-I 356 W/m 14,4 C 21,3 C 5,7 km/h 100,00 %
24.08.2019 09:20 21,2 C 66 % 1021,6 hPa 0,0 l/m 4,5 km/h NO 40 1 min 0,000 mm 1,3 UV-I 353 W/m 14,6 C 21,2 C 7,7 km/h 95,83 %
24.08.2019 09:19 21,3 C 66 % 1021,6 hPa 0,0 l/m 4,6 km/h NO 38 1 min 0,000 mm 1,2 UV-I 350 W/m 14,7 C 21,3 C 7,7 km/h 96,15 %
24.08.2019 09:18 21,2 C 66 % 1021,6 hPa 0,0 l/m 4,1 km/h NO 36 1 min 0,000 mm 1,2 UV-I 348 W/m 14,6 C 21,2 C 7,7 km/h 100,00 %
24.08.2019 09:17 21,2 C 67 % 1021,7 hPa 0,0 l/m 0,8 km/h N-NO 26 1 min 0,000 mm 1,2 UV-I 345 W/m 14,8 C 21,2 C 3,8 km/h 95,65 %
24.08.2019 09:16 21,1 C 67 % 1021,6 hPa 0,0 l/m 1,1 km/h N-NO 26 1 min 0,000 mm 1,2 UV-I 342 W/m 14,7 C 21,1 C 3,8 km/h 97,37 %
24.08.2019 09:15 21,0 C 67 % 1021,6 hPa 0,0 l/m 0,9 km/h N-NO 26 1 min 0,000 mm 1,2 UV-I 340 W/m 14,6 C 21,0 C 1,9 km/h 98,58 %
24.08.2019 09:14 20,9 C 67 % 1021,6 hPa 0,0 l/m 0,6 km/h N-NO 26 1 min 0,000 mm 1,2 UV-I 338 W/m 14,5 C 20,9 C 1,9 km/h 100,00 %
24.08.2019 09:13 20,8 C 68 % 1021,6 hPa 0,0 l/m 2,8 km/h N-NO 26 1 min 0,000 mm 1,2 UV-I 336 W/m 14,7 C 20,8 C 5,7 km/h 91,30 %
24.08.2019 09:12 20,8 C 69 % 1021,6 hPa 0,0 l/m 1,0 km/h N-NO 23 1 min 0,000 mm 1,2 UV-I 332 W/m 14,9 C 20,8 C 3,8 km/h 100,00 %
24.08.2019 09:11 20,7 C 69 % 1021,6 hPa 0,0 l/m 0,8 km/h N-NO 23 1 min 0,000 mm 1,1 UV-I 330 W/m 14,8 C 20,7 C 1,9 km/h 95,83 %
24.08.2019 09:10 20,6 C 69 % 1021,6 hPa 0,0 l/m 1,3 km/h N-NO 23 1 min 0,000 mm 1,1 UV-I 327 W/m 14,7 C 20,6 C 3,8 km/h 95,65 %
24.08.2019 09:09 20,5 C 68 % 1021,6 hPa 0,0 l/m 0,2 km/h N-NO 23 1 min 0,000 mm 1,1 UV-I 324 W/m 14,4 C 20,5 C 1,9 km/h 100,00 %
24.08.2019 09:08 20,4 C 68 % 1021,6 hPa 0,0 l/m 2,6 km/h N-NO 23 1 min 0,000 mm 1,1 UV-I 320 W/m 14,3 C 20,4 C 3,8 km/h 95,83 %
24.08.2019 09:07 20,4 C 69 % 1021,5 hPa 0,0 l/m 3,6 km/h N-NO 23 1 min 0,000 mm 1,1 UV-I 318 W/m 14,5 C 20,4 C 3,8 km/h 100,00 %
24.08.2019 09:06 20,4 C 69 % 1021,6 hPa 0,0 l/m 2,5 km/h N-NO 23 1 min 0,000 mm 1,1 UV-I 316 W/m 14,5 C 20,4 C 3,8 km/h 95,65 %
24.08.2019 09:05 20,3 C 69 % 1021,6 hPa 0,0 l/m 1,7 km/h N-NO 23 1 min 0,000 mm 1,0 UV-I 314 W/m 14,4 C 20,3 C 3,8 km/h 96,30 %
24.08.2019 09:04 20,3 C 69 % 1021,6 hPa 0,0 l/m 1,3 km/h N-NO 23 1 min 0,000 mm 1,0 UV-I 311 W/m 14,4 C 20,3 C 3,8 km/h 96,15 %
24.08.2019 09:03 20,3 C 70 % 1021,6 hPa 0,0 l/m 4,2 km/h N-NO 23 1 min 0,000 mm 1,0 UV-I 308 W/m 14,6 C 20,3 C 5,7 km/h 100,00 %
24.08.2019 09:02 20,3 C 69 % 1021,6 hPa 0,0 l/m 2,3 km/h N-NO 23 1 min 0,000 mm 1,0 UV-I 304 W/m 14,4 C 20,3 C 3,8 km/h 95,65 %
24.08.2019 09:01 20,2 C 70 % 1021,6 hPa 0,0 l/m 1,2 km/h N-NO 23 1 min 0,127 mm 1,0 UV-I 302 W/m 14,5 C 20,2 C 3,8 km/h 100,00 %
24.08.2019 09:00 20,1 C 69 % 1021,6 hPa 0,0 l/m 1,9 km/h N-NO 23 1 min 0,000 mm 1,0 UV-I 300 W/m 14,2 C 20,1 C 3,8 km/h 96,15 %
_ Min-Zeit 06:25 17:00 19:21 - 13:50 - - - - - - 17:23 06:25 13:50 05:19
Minimum _ 15,4 C 31 % 1017,8 hPa - 0,0 km/h - - - - - - 11,6 C 15,4 C 0,0 km/h 83,33 %
_ Max-Zeit 16:13 06:29 09:17 09:00 15:31 - - 12:16 15:00 13:10 13:40 08:34 16:13 15:33 09:01
Maximum _ 31,3 C 85 % 1021,7 hPa 0,0 l/m 14,2 km/h
N
- - 2 min 0,559 mm 4,4 UV-I 787 W/m 15,2 C 31,3 C 21,0 km/h
N
100,00 %
Durchschnitt _ 23,1 C 58 % 1019,2 hPa #0,0 l/m 2,1 km/h N - #0 min. #0,178 mm 0,5 UV-I 77 W/m 13,3 C 23,1 C 3,7 km/h 98,61 %